Today

Time Wind Dr Wind Spd
mph
Wind Gust
mph
Hum In
%
Humid
%
TempI
F
Temp
F
Raw Bar
in
Tot Rain
in
UV Solar
W/sqm
DailyRain
in
HourRain
in
24HrRain
in
RainRate
in
09/20/21 12:01:21 AM 296 0.0 0.0 52 69 72.1 65.1 29.916 5.37 0.0 0 0.00 0.00 0.00 0.00
09/20/21 12:02:28 AM 296 0.0 0.0 52 69 72.1 65.1 29.914 5.37 0.0 0 0.00 0.00 0.00 0.00
09/20/21 12:03:20 AM 296 0.0 0.0 52 69 72.1 65.0 29.913 5.37 0.0 0 0.00 0.00 0.00 0.00
09/20/21 12:04:32 AM 296 0.0 0.0 52 69 72.0 65.0 29.915 5.37 0.0 0 0.00 0.00 0.00 0.00
09/20/21 12:05:24 AM 296 0.0 0.0 52 69 72.0 65.0 29.913 5.37 0.0 0 0.00 0.00 0.00 0.00
09/20/21 12:06:36 AM 296 0.0 0.0 52 69 72.0 64.9 29.915 5.37 0.0 0 0.00 0.00 0.00 0.00
09/20/21 12:08:34 AM 296 0.0 0.0 52 69 72.0 64.8 29.914 5.37 0.0 0 0.00 0.00 0.00 0.00
09/20/21 12:09:26 AM 296 0.0 0.0 52 69 71.9 64.8 29.915 5.37 0.0 0 0.00 0.00 0.00 0.00
09/20/21 12:10:17 AM 296 0.0 0.0 52 69 72.0 64.7 29.913 5.37 0.0 0 0.00 0.00 0.00 0.00
09/20/21 12:11:30 AM 296 0.0 0.0 52 69 72.0 64.7 29.913 5.37 0.0 0 0.00 0.00 0.00 0.00
09/20/21 12:12:21 AM 296 0.0 0.0 52 69 71.9 64.7 29.916 5.37 0.0 0 0.00 0.00 0.00 0.00
09/20/21 12:13:28 AM 296 0.0 0.0 52 69 71.9 64.6 29.914 5.37 0.0 0 0.00 0.00 0.00 0.00
09/20/21 12:14:22 AM 296 0.0 0.0 52 69 71.9 64.5 29.915 5.37 0.0 0 0.00 0.00 0.00 0.00
09/20/21 12:15:35 AM 296 0.0 0.0 52 68 71.8 64.5 29.915 5.37 0.0 0 0.00 0.00 0.00 0.00
09/20/21 12:16:24 AM 296 0.0 0.0 52 68 71.8 64.4 29.917 5.37 0.0 0 0.00 0.00 0.00 0.00
09/20/21 12:17:35 AM 296 0.0 0.0 52 68 71.8 64.3 29.915 5.37 0.0 0 0.00 0.00 0.00 0.00
09/20/21 12:18:21 AM 296 0.0 0.0 52 69 71.8 64.3 29.914 5.37 0.0 0 0.00 0.00 0.00 0.00
09/20/21 12:19:35 AM 296 0.0 0.0 52 69 71.7 64.2 29.912 5.37 0.0 0 0.00 0.00 0.00 0.00
09/20/21 12:20:27 AM 296 0.0 0.0 52 69 71.8 64.2 29.911 5.37 0.0 0 0.00 0.00 0.00 0.00
09/20/21 12:21:19 AM 296 0.0 0.0 52 69 71.7 64.1 29.914 5.37 0.0 0 0.00 0.00 0.00 0.00
09/20/21 12:22:33 AM 296 0.0 0.0 52 69 71.7 64.1 29.911 5.37 0.0 0 0.00 0.00 0.00 0.00
09/20/21 12:23:19 AM 296 0.0 0.0 52 69 71.7 64.0 29.911 5.37 0.0 0 0.00 0.00 0.00 0.00
09/20/21 12:24:33 AM 296 0.0 0.0 52 69 71.7 64.0 29.914 5.37 0.0 0 0.00 0.00 0.00 0.00
09/20/21 12:25:22 AM 296 0.0 0.0 52 69 71.7 63.9 29.912 5.37 0.0 0 0.00 0.00 0.00 0.00
09/20/21 12:26:35 AM 296 0.0 0.0 52 69 71.7 63.9 29.910 5.37 0.0 0 0.00 0.00 0.00 0.00
09/20/21 12:27:28 AM 296 0.0 0.0 52 69 71.7 63.9 29.912 5.37 0.0 0 0.00 0.00 0.00 0.00
09/20/21 12:28:17 AM 296 0.0 0.0 52 69 71.6 63.8 29.910 5.37 0.0 0 0.00 0.00 0.00 0.00
09/20/21 12:29:24 AM 296 0.0 0.0 52 71 71.6 63.8 29.911 5.37 0.0 0 0.00 0.00 0.00 0.00
09/20/21 12:30:20 AM 296 0.0 0.0 52 71 71.6 63.8 29.911 5.37 0.0 0 0.00 0.00 0.00 0.00
09/20/21 12:31:27 AM 296 0.0 0.0 52 71 71.6 63.7 29.910 5.37 0.0 0 0.00 0.00 0.00 0.00
09/20/21 12:32:19 AM 296 0.0 0.0 52 72 71.6 63.6 29.910 5.37 0.0 0 0.00 0.00 0.00 0.00
09/20/21 12:33:30 AM 296 0.0 0.0 52 71 71.6 63.6 29.909 5.37 0.0 0 0.00 0.00 0.00 0.00
09/20/21 12:34:16 AM 296 0.0 0.0 52 71 71.6 63.6 29.910 5.37 0.0 0 0.00 0.00 0.00 0.00
09/20/21 12:35:27 AM 296 0.0 0.0 52 71 71.6 63.5 29.909 5.37 0.0 0 0.00 0.00 0.00 0.00
09/20/21 12:36:19 AM 296 0.0 0.0 52 71 71.6 63.5 29.906 5.37 0.0 0 0.00 0.00 0.00 0.00
09/20/21 12:37:33 AM 296 0.0 0.0 52 71 71.6 63.4 29.909 5.37 0.0 0 0.00 0.00 0.00 0.00
09/20/21 12:38:22 AM 296 0.0 0.0 52 71 71.6 63.4 29.905 5.37 0.0 0 0.00 0.00 0.00 0.00
09/20/21 12:39:29 AM 296 0.0 0.0 52 70 71.6 63.4 29.906 5.37 0.0 0 0.00 0.00 0.00 0.00
09/20/21 12:40:22 AM 296 0.0 0.0 52 70 71.6 63.4 29.905 5.37 0.0 0 0.00 0.00 0.00 0.00
09/20/21 12:41:32 AM 296 0.0 0.0 52 70 71.6 63.4 29.905 5.37 0.0 0 0.00 0.00 0.00 0.00
09/20/21 12:42:24 AM 296 0.0 0.0 52 70 71.6 63.4 29.904 5.37 0.0 0 0.00 0.00 0.00 0.00
09/20/21 12:43:35 AM 296 0.0 0.0 52 70 71.6 63.3 29.904 5.37 0.0 0 0.00 0.00 0.00 0.00
09/20/21 12:44:24 AM 296 0.0 0.0 52 70 71.6 63.3 29.905 5.37 0.0 0 0.00 0.00 0.00 0.00
09/20/21 12:45:38 AM 296 0.0 0.0 52 70 71.6 63.3 29.904 5.37 0.0 0 0.00 0.00 0.00 0.00
09/20/21 12:46:27 AM 296 0.0 0.0 52 70 71.6 63.2 29.904 5.37 0.0 0 0.00 0.00 0.00 0.00
09/20/21 12:47:19 AM 296 0.0 0.0 52 70 71.6 63.2 29.906 5.37 0.0 0 0.00 0.00 0.00 0.00
09/20/21 12:48:33 AM 296 0.0 0.0 52 70 71.5 63.2 29.905 5.37 0.0 0 0.00 0.00 0.00 0.00
09/20/21 12:49:25 AM 296 0.0 0.0 52 71 71.6 63.2 29.904 5.37 0.0 0 0.00 0.00 0.00 0.00
09/20/21 12:50:33 AM 296 0.0 0.0 53 71 71.5 63.2 29.906 5.37 0.0 0 0.00 0.00 0.00 0.00
09/20/21 12:51:25 AM 296 0.0 0.0 53 71 71.5 63.1 29.906 5.37 0.0 0 0.00 0.00 0.00 0.00
09/20/21 12:52:36 AM 296 0.0 0.0 53 71 71.5 63.1 29.906 5.37 0.0 0 0.00 0.00 0.00 0.00
09/20/21 12:53:28 AM 296 0.0 0.0 53 71 71.5 63.1 29.904 5.37 0.0 0 0.00 0.00 0.00 0.00
09/20/21 12:54:17 AM 296 0.0 0.0 53 72 71.5 63.1 29.905 5.37 0.0 0 0.00 0.00 0.00 0.00
09/20/21 12:55:28 AM 296 0.0 0.0 53 72 71.5 63.1 29.905 5.37 0.0 0 0.00 0.00 0.00 0.00
09/20/21 12:56:17 AM 296 0.0 0.0 53 72 71.5 63.1 29.905 5.37 0.0 0 0.00 0.00 0.00 0.00
09/20/21 12:57:31 AM 296 0.0 0.0 53 72 71.5 63.1 29.904 5.37 0.0 0 0.00 0.00 0.00 0.00
09/20/21 12:58:20 AM 296 0.0 0.0 53 72 71.4 63.1 29.907 5.37 0.0 0 0.00 0.00 0.00 0.00
09/20/21 12:59:34 AM 296 0.0 0.0 53 72 71.5 63.1 29.906 5.37 0.0 0 0.00 0.00 0.00 0.00
09/20/21 1:00:23 AM 296 0.0 0.0 53 72 71.5 63.1 29.905 5.37 0.0 0 0.00 0.00 0.00 0.00
09/20/21 1:01:34 AM 296 0.0 0.0 53 72 71.5 63.1 29.906 5.37 0.0 0 0.00 0.00 0.00 0.00
09/20/21 1:02:26 AM 296 0.0 0.0 53 72 71.5 63.1 29.905 5.37 0.0 0 0.00 0.00 0.00 0.00
09/20/21 1:03:18 AM 296 0.0 0.0 53 72 71.5 63.1 29.905 5.37 0.0 0 0.00 0.00 0.00 0.00
09/20/21 1:04:29 AM 296 0.0 0.0 53 72 71.5 63.0 29.906 5.37 0.0 0 0.00 0.00 0.00 0.00
09/20/21 1:05:21 AM 296 0.0 0.0 53 72 71.5 63.0 29.907 5.37 0.0 0 0.00 0.00 0.00 0.00
09/20/21 1:06:29 AM 296 0.0 0.0 53 71 71.4 63.0 29.905 5.37 0.0 0 0.00 0.00 0.00 0.00
09/20/21 1:07:18 AM 296 0.0 0.0 53 71 71.5 62.9 29.904 5.37 0.0 0 0.00 0.00 0.00 0.00
09/20/21 1:08:32 AM 296 0.0 0.0 53 71 71.4 62.9 29.902 5.37 0.0 0 0.00 0.00 0.00 0.00
09/20/21 1:09:24 AM 296 0.0 0.0 53 71 71.4 62.8 29.900 5.37 0.0 0 0.00 0.00 0.00 0.00
09/20/21 1:10:35 AM 296 0.0 0.0 53 71 71.5 62.7 29.904 5.37 0.0 0 0.00 0.00 0.00 0.00
09/20/21 1:11:24 AM 296 0.0 0.0 53 71 71.4 62.7 29.902 5.37 0.0 0 0.00 0.00 0.00 0.00
09/20/21 1:12:35 AM 296 0.0 0.0 53 71 71.5 62.7 29.901 5.37 0.0 0 0.00 0.00 0.00 0.00
09/20/21 1:13:30 AM 296 0.0 0.0 53 71 71.4 62.7 29.902 5.37 0.0 0 0.00 0.00 0.00 0.00
09/20/21 1:14:23 AM 296 0.0 0.0 53 71 71.5 62.6 29.901 5.37 0.0 0 0.00 0.00 0.00 0.00
09/20/21 1:15:36 AM 296 0.0 0.0 53 71 71.4 62.6 29.902 5.37 0.0 0 0.00 0.00 0.00 0.00
09/20/21 1:16:23 AM 296 0.0 0.0 53 71 71.4 62.6 29.903 5.37 0.0 0 0.00 0.00 0.00 0.00
09/20/21 1:17:36 AM 296 0.0 0.0 53 71 71.4 62.6 29.903 5.37 0.0 0 0.00 0.00 0.00 0.00
09/20/21 1:18:26 AM 296 0.0 0.0 53 71 71.4 62.6 29.906 5.37 0.0 0 0.00 0.00 0.00 0.00
09/20/21 1:19:19 AM 296 0.0 0.0 53 71 71.4 62.5 29.903 5.37 0.0 0 0.00 0.00 0.00 0.00
09/20/21 1:20:32 AM 296 0.0 0.0 53 71 71.4 62.5 29.906 5.37 0.0 0 0.00 0.00 0.00 0.00
09/20/21 1:21:22 AM 296 0.0 0.0 53 71 71.4 62.5 29.903 5.37 0.0 0 0.00 0.00 0.00 0.00
09/20/21 1:22:30 AM 296 0.0 0.0 53 71 71.3 62.4 29.902 5.37 0.0 0 0.00 0.00 0.00 0.00
09/20/21 1:23:22 AM 296 0.0 0.0 53 72 71.4 62.4 29.902 5.37 0.0 0 0.00 0.00 0.00 0.00
09/20/21 1:24:32 AM 296 0.0 0.0 53 72 71.4 62.4 29.905 5.37 0.0 0 0.00 0.00 0.00 0.00
09/20/21 1:25:25 AM 296 0.0 0.0 53 72 71.4 62.3 29.903 5.37 0.0 0 0.00 0.00 0.00 0.00
09/20/21 1:26:17 AM 296 0.0 0.0 53 72 71.3 62.3 29.903 5.37 0.0 0 0.00 0.00 0.00 0.00
09/20/21 1:27:25 AM 296 0.0 0.0 53 73 71.3 62.3 29.902 5.37 0.0 0 0.00 0.00 0.00 0.00
09/20/21 1:28:35 AM 296 0.0 0.0 53 73 71.4 62.3 29.902 5.37 0.0 0 0.00 0.00 0.00 0.00
09/20/21 1:29:28 AM 296 0.0 0.0 53 73 71.3 62.3 29.905 5.37 0.0 0 0.00 0.00 0.00 0.00
09/20/21 1:30:23 AM 296 0.0 0.0 53 73 71.3 62.3 29.905 5.37 0.0 0 0.00 0.00 0.00 0.00
09/20/21 1:31:34 AM 296 0.0 0.0 53 73 71.3 62.3 29.902 5.37 0.0 0 0.00 0.00 0.00 0.00
09/20/21 1:32:20 AM 296 0.0 0.0 53 73 71.3 62.3 29.906 5.37 0.0 0 0.00 0.00 0.00 0.00
09/20/21 1:33:31 AM 296 0.0 0.0 53 73 71.3 62.3 29.905 5.37 0.0 0 0.00 0.00 0.00 0.00
09/20/21 1:34:23 AM 296 0.0 0.0 53 73 71.3 62.3 29.904 5.37 0.0 0 0.00 0.00 0.00 0.00
09/20/21 1:35:33 AM 296 0.0 0.0 53 73 71.3 62.2 29.903 5.37 0.0 0 0.00 0.00 0.00 0.00
09/20/21 1:36:26 AM 296 0.0 0.0 53 73 71.3 62.2 29.904 5.37 0.0 0 0.00 0.00 0.00 0.00
09/20/21 1:37:18 AM 296 0.0 0.0 53 74 71.3 62.2 29.905 5.37 0.0 0 0.00 0.00 0.00 0.00
09/20/21 1:38:23 AM 296 0.0 0.0 53 74 71.3 62.2 29.906 5.37 0.0 0 0.00 0.00 0.00 0.00
09/20/21 1:39:36 AM 296 0.0 0.0 53 74 71.3 62.2 29.905 5.37 0.0 0 0.00 0.00 0.00 0.00
09/20/21 1:40:26 AM 296 0.0 0.0 53 74 71.3 62.2 29.907 5.37 0.0 0 0.00 0.00 0.00 0.00
09/20/21 1:41:18 AM 296 0.0 0.0 53 73 71.3 62.2 29.906 5.37 0.0 0 0.00 0.00 0.00 0.00
09/20/21 1:42:28 AM 296 0.0 0.0 53 73 71.3 62.2 29.904 5.37 0.0 0 0.00 0.00 0.00 0.00
09/20/21 1:43:18 AM 296 0.0 0.0 53 73 71.3 62.2 29.905 5.37 0.0 0 0.00 0.00 0.00 0.00
09/20/21 1:44:28 AM 296 0.0 0.0 53 73 71.3 62.1 29.903 5.37 0.0 0 0.00 0.00 0.00 0.00
09/20/21 1:45:45 AM 296 0.0 0.0 53 73 71.3 62.1 29.903 5.37 0.0 0 0.00 0.00 0.00 0.00
09/20/21 1:46:34 AM 296 0.0 0.0 53 73 71.3 62.1 29.902 5.37 0.0 0 0.00 0.00 0.00 0.00
09/20/21 1:48:18 AM 296 0.0 0.0 53 73 71.3 62.1 29.903 5.37 0.0 0 0.00 0.00 0.00 0.00
09/20/21 1:49:25 AM 296 0.0 0.0 53 73 71.3 62.0 29.903 5.37 0.0 0 0.00 0.00 0.00 0.00
09/20/21 1:50:17 AM 296 0.0 0.0 53 73 71.2 62.0 29.905 5.37 0.0 0 0.00 0.00 0.00 0.00
09/20/21 1:51:28 AM 296 0.0 0.0 53 73 71.3 61.9 29.904 5.37 0.0 0 0.00 0.00 0.00 0.00
09/20/21 1:52:20 AM 296 0.0 1.0 53 73 71.3 61.9 29.904 5.37 0.0 0 0.00 0.00 0.00 0.00
09/20/21 1:53:34 AM 298 2.0 3.0 53 73 71.2 61.9 29.906 5.37 0.0 0 0.00 0.00 0.00 0.00
09/20/21 1:54:20 AM 298 3.0 3.0 53 73 71.2 61.8 29.905 5.37 0.0 0 0.00 0.00 0.00 0.00
09/20/21 1:55:31 AM 298 1.0 3.0 53 73 71.2 61.8 29.905 5.37 0.0 0 0.00 0.00 0.00 0.00
09/20/21 1:56:23 AM 297 1.0 3.0 53 73 71.2 61.8 29.904 5.37 0.0 0 0.00 0.00 0.00 0.00
09/20/21 1:57:34 AM 298 0.0 3.0 53 73 71.2 61.8 29.905 5.37 0.0 0 0.00 0.00 0.00 0.00
09/20/21 1:58:26 AM 298 0.0 3.0 53 73 71.2 61.8 29.904 5.37 0.0 0 0.00 0.00 0.00 0.00
09/20/21 1:59:34 AM 298 0.0 3.0 53 73 71.2 61.7 29.902 5.37 0.0 0 0.00 0.00 0.00 0.00
09/20/21 2:00:26 AM 298 0.0 3.0 53 73 71.2 61.7 29.904 5.37 0.0 0 0.00 0.00 0.00 0.00
09/20/21 2:01:18 AM 298 0.0 3.0 53 73 71.1 61.7 29.904 5.37 0.0 0 0.00 0.00 0.00 0.00
09/20/21 2:02:29 AM 298 0.0 3.0 53 73 71.1 61.7 29.903 5.37 0.0 0 0.00 0.00 0.00 0.00
09/20/21 2:03:21 AM 298 0.0 3.0 53 73 71.1 61.7 29.906 5.37 0.0 0 0.00 0.00 0.00 0.00
09/20/21 2:04:29 AM 298 0.0 3.0 53 73 71.1 61.7 29.903 5.37 0.0 0 0.00 0.00 0.00 0.00
09/20/21 2:05:21 AM 298 0.0 3.0 53 73 71.1 61.8 29.904 5.37 0.0 0 0.00 0.00 0.00 0.00
09/20/21 2:06:35 AM 298 0.0 3.0 53 73 71.1 61.8 29.901 5.37 0.0 0 0.00 0.00 0.00 0.00
09/20/21 2:07:24 AM 298 0.0 3.0 53 73 71.1 61.8 29.903 5.37 0.0 0 0.00 0.00 0.00 0.00
09/20/21 2:08:35 AM 298 0.0 3.0 53 74 71.1 61.8 29.903 5.37 0.0 0 0.00 0.00 0.00 0.00
09/20/21 2:10:33 AM 298 0.0 3.0 53 74 71.1 61.8 29.904 5.37 0.0 0 0.00 0.00 0.00 0.00
09/20/21 2:12:17 AM 298 0.0 3.0 53 74 71.1 61.8 29.901 5.37 0.0 0 0.00 0.00 0.00 0.00
09/20/21 2:13:31 AM 298 0.0 3.0 53 74 71.0 61.8 29.902 5.37 0.0 0 0.00 0.00 0.00 0.00
09/20/21 2:14:23 AM 298 0.0 3.0 53 74 71.0 61.8 29.903 5.37 0.0 0 0.00 0.00 0.00 0.00
09/20/21 2:15:33 AM 298 0.0 3.0 53 74 71.0 61.7 29.901 5.37 0.0 0 0.00 0.00 0.00 0.00
09/20/21 2:16:26 AM 298 0.0 3.0 53 73 71.0 61.6 29.905 5.37 0.0 0 0.00 0.00 0.00 0.00
09/20/21 2:17:36 AM 298 0.0 3.0 53 73 71.0 61.6 29.904 5.37 0.0 0 0.00 0.00 0.00 0.00
09/20/21 2:18:29 AM 298 0.0 3.0 53 73 71.0 61.5 29.903 5.37 0.0 0 0.00 0.00 0.00 0.00
09/20/21 2:19:18 AM 298 0.0 3.0 53 73 71.0 61.5 29.902 5.37 0.0 0 0.00 0.00 0.00 0.00
09/20/21 2:20:26 AM 298 0.0 3.0 53 74 71.0 61.5 29.903 5.37 0.0 0 0.00 0.00 0.00 0.00
09/20/21 2:21:18 AM 298 0.0 3.0 53 74 71.0 61.5 29.906 5.37 0.0 0 0.00 0.00 0.00 0.00
09/20/21 2:22:32 AM 298 0.0 3.0 53 74 71.0 61.4 29.903 5.37 0.0 0 0.00 0.00 0.00 0.00
09/20/21 2:23:24 AM 298 0.0 3.0 53 74 71.0 61.4 29.906 5.37 0.0 0 0.00 0.00 0.00 0.00
09/20/21 2:24:17 AM 298 0.0 3.0 53 74 71.0 61.4 29.904 5.37 0.0 0 0.00 0.00 0.00 0.00
09/20/21 2:25:27 AM 298 0.0 3.0 53 74 71.0 61.4 29.905 5.37 0.0 0 0.00 0.00 0.00 0.00
09/20/21 2:26:16 AM 298 0.0 3.0 53 74 70.9 61.4 29.907 5.37 0.0 0 0.00 0.00 0.00 0.00
09/20/21 2:27:27 AM 298 0.0 3.0 53 74 70.9 61.4 29.905 5.37 0.0 0 0.00 0.00 0.00 0.00
09/20/21 2:28:19 AM 298 0.0 3.0 53 74 70.9 61.4 29.906 5.37 0.0 0 0.00 0.00 0.00 0.00
09/20/21 2:29:30 AM 298 0.0 3.0 53 74 70.9 61.3 29.904 5.37 0.0 0 0.00 0.00 0.00 0.00
09/20/21 2:30:25 AM 298 0.0 3.0 53 74 70.9 61.3 29.905 5.37 0.0 0 0.00 0.00 0.00 0.00
09/20/21 2:31:33 AM 298 0.0 3.0 53 74 70.9 61.3 29.904 5.37 0.0 0 0.00 0.00 0.00 0.00
09/20/21 2:32:22 AM 298 0.0 3.0 53 73 70.9 61.3 29.904 5.37 0.0 0 0.00 0.00 0.00 0.00
09/20/21 2:33:33 AM 298 0.0 3.0 53 73 70.9 61.2 29.905 5.37 0.0 0 0.00 0.00 0.00 0.00
09/20/21 2:34:25 AM 298 0.0 3.0 53 74 70.9 61.2 29.903 5.37 0.0 0 0.00 0.00 0.00 0.00
09/20/21 2:35:18 AM 298 0.0 3.0 53 74 70.9 61.2 29.904 5.37 0.0 0 0.00 0.00 0.00 0.00
09/20/21 2:36:25 AM 298 0.0 3.0 53 73 70.9 61.2 29.902 5.37 0.0 0 0.00 0.00 0.00 0.00
09/20/21 2:37:18 AM 298 0.0 3.0 53 73 70.8 61.1 29.903 5.37 0.0 0 0.00 0.00 0.00 0.00
09/20/21 2:38:28 AM 298 0.0 3.0 53 74 70.8 61.1 29.904 5.37 0.0 0 0.00 0.00 0.00 0.00
09/20/21 2:39:21 AM 298 0.0 3.0 53 74 70.8 61.1 29.902 5.37 0.0 0 0.00 0.00 0.00 0.00
09/20/21 2:40:31 AM 298 0.0 3.0 53 74 70.8 61.1 29.905 5.37 0.0 0 0.00 0.00 0.00 0.00
09/20/21 2:41:24 AM 298 0.0 3.0 53 74 70.8 61.1 29.906 5.37 0.0 0 0.00 0.00 0.00 0.00
09/20/21 2:42:31 AM 298 0.0 3.0 53 74 70.8 61.0 29.905 5.37 0.0 0 0.00 0.00 0.00 0.00
09/20/21 2:43:24 AM 298 0.0 3.0 53 74 70.8 61.0 29.906 5.37 0.0 0 0.00 0.00 0.00 0.00
09/20/21 2:44:37 AM 298 0.0 3.0 53 74 70.8 60.9 29.906 5.37 0.0 0 0.00 0.00 0.00 0.00
09/20/21 2:45:30 AM 298 0.0 3.0 53 74 70.8 60.9 29.905 5.37 0.0 0 0.00 0.00 0.00 0.00
09/20/21 2:46:22 AM 298 0.0 3.0 53 74 70.8 60.9 29.905 5.37 0.0 0 0.00 0.00 0.00 0.00
09/20/21 2:47:30 AM 298 0.0 3.0 53 74 70.8 60.9 29.905 5.37 0.0 0 0.00 0.00 0.00 0.00
09/20/21 2:48:19 AM 298 0.0 3.0 53 74 70.8 60.9 29.906 5.37 0.0 0 0.00 0.00 0.00 0.00
09/20/21 2:49:33 AM 298 0.0 3.0 53 74 70.8 60.9 29.905 5.37 0.0 0 0.00 0.00 0.00 0.00
09/20/21 2:50:22 AM 298 0.0 3.0 53 74 70.8 60.8 29.905 5.37 0.0 0 0.00 0.00 0.00 0.00
09/20/21 2:51:36 AM 298 0.0 3.0 53 74 70.8 60.8 29.906 5.37 0.0 0 0.00 0.00 0.00 0.00
09/20/21 2:53:35 AM 298 0.0 3.0 53 74 70.8 60.8 29.907 5.37 0.0 0 0.00 0.00 0.00 0.00
09/20/21 2:54:27 AM 298 0.0 3.0 53 74 70.8 60.8 29.905 5.37 0.0 0 0.00 0.00 0.00 0.00
09/20/21 2:55:17 AM 298 0.0 3.0 53 75 70.8 60.7 29.906 5.37 0.0 0 0.00 0.00 0.00 0.00
09/20/21 2:56:30 AM 298 0.0 3.0 53 75 70.8 60.7 29.905 5.37 0.0 0 0.00 0.00 0.00 0.00
09/20/21 2:57:20 AM 298 0.0 3.0 53 75 70.8 60.7 29.906 5.37 0.0 0 0.00 0.00 0.00 0.00
09/20/21 2:58:27 AM 298 0.0 3.0 53 75 70.8 60.7 29.907 5.37 0.0 0 0.00 0.00 0.00 0.00
09/20/21 2:59:20 AM 298 0.0 3.0 53 75 70.8 60.7 29.907 5.37 0.0 0 0.00 0.00 0.00 0.00
09/20/21 3:00:33 AM 298 0.0 3.0 53 75 70.8 60.7 29.906 5.37 0.0 0 0.00 0.00 0.00 0.00
09/20/21 3:01:23 AM 298 0.0 3.0 53 75 70.8 60.7 29.907 5.37 0.0 0 0.00 0.00 0.00 0.00
09/20/21 3:02:36 AM 298 0.0 3.0 53 75 70.8 60.7 29.907 5.37 0.0 0 0.00 0.00 0.00 0.00
09/20/21 3:03:23 AM 298 0.0 3.0 53 75 70.7 60.6 29.908 5.37 0.0 0 0.00 0.00 0.00 0.00
09/20/21 3:04:33 AM 298 0.0 3.0 53 75 70.8 60.6 29.904 5.37 0.0 0 0.00 0.00 0.00 0.00
09/20/21 3:05:26 AM 298 0.0 3.0 53 75 70.8 60.6 29.906 5.37 0.0 0 0.00 0.00 0.00 0.00
09/20/21 3:06:18 AM 298 0.0 3.0 53 75 70.8 60.6 29.907 5.37 0.0 0 0.00 0.00 0.00 0.00
09/20/21 3:07:29 AM 298 0.0 3.0 53 76 70.8 60.6 29.906 5.37 0.0 0 0.00 0.00 0.00 0.00
09/20/21 3:08:18 AM 298 0.0 3.0 53 76 70.8 60.5 29.904 5.37 0.0 0 0.00 0.00 0.00 0.00
09/20/21 3:09:29 AM 298 0.0 3.0 53 76 70.8 60.6 29.905 5.37 0.0 0 0.00 0.00 0.00 0.00
09/20/21 3:10:21 AM 298 0.0 3.0 53 76 70.8 60.5 29.904 5.37 0.0 0 0.00 0.00 0.00 0.00
09/20/21 3:11:32 AM 298 0.0 3.0 53 76 70.7 60.6 29.903 5.37 0.0 0 0.00 0.00 0.00 0.00
09/20/21 3:12:21 AM 298 0.0 3.0 53 76 70.8 60.5 29.903 5.37 0.0 0 0.00 0.00 0.00 0.00
09/20/21 3:13:29 AM 298 0.0 3.0 53 76 70.8 60.5 29.903 5.37 0.0 0 0.00 0.00 0.00 0.00
09/20/21 3:14:21 AM 298 0.0 3.0 53 76 70.8 60.5 29.902 5.37 0.0 0 0.00 0.00 0.00 0.00
09/20/21 3:15:35 AM 298 0.0 3.0 53 76 70.8 60.5 29.901 5.37 0.0 0 0.00 0.00 0.00 0.00
09/20/21 3:16:24 AM 298 0.0 3.0 53 76 70.7 60.5 29.904 5.37 0.0 0 0.00 0.00 0.00 0.00
09/20/21 3:17:17 AM 298 0.0 3.0 53 76 70.7 60.5 29.902 5.37 0.0 0 0.00 0.00 0.00 0.00
09/20/21 3:18:27 AM 298 0.0 3.0 53 76 70.8 60.5 29.903 5.37 0.0 0 0.00 0.00 0.00 0.00
09/20/21 3:19:38 AM 298 0.0 3.0 53 76 70.7 60.5 29.900 5.37 0.0 0 0.00 0.00 0.00 0.00
09/20/21 3:20:30 AM 298 0.0 3.0 53 76 70.8 60.4 29.903 5.37 0.0 0 0.00 0.00 0.00 0.00
09/20/21 3:21:20 AM 298 0.0 3.0 53 76 70.8 60.5 29.902 5.37 0.0 0 0.00 0.00 0.00 0.00
09/20/21 3:22:33 AM 298 0.0 3.0 53 76 70.7 60.4 29.900 5.37 0.0 0 0.00 0.00 0.00 0.00
09/20/21 3:24:29 AM 298 0.0 3.0 53 77 70.7 60.4 29.901 5.37 0.0 0 0.00 0.00 0.00 0.00
09/20/21 3:25:22 AM 298 0.0 3.0 53 77 70.7 60.4 29.901 5.37 0.0 0 0.00 0.00 0.00 0.00
09/20/21 3:26:32 AM 298 0.0 3.0 53 76 70.7 60.4 29.900 5.37 0.0 0 0.00 0.00 0.00 0.00
09/20/21 3:27:25 AM 298 0.0 3.0 53 76 70.6 60.4 29.901 5.37 0.0 0 0.00 0.00 0.00 0.00
09/20/21 3:28:35 AM 298 0.0 3.0 53 76 70.7 60.4 29.901 5.37 0.0 0 0.00 0.00 0.00 0.00
09/20/21 3:29:25 AM 298 0.0 3.0 53 76 70.7 60.3 29.899 5.37 0.0 0 0.00 0.00 0.00 0.00
09/20/21 3:30:17 AM 298 0.0 3.0 53 76 70.7 60.3 29.900 5.37 0.0 0 0.00 0.00 0.00 0.00
09/20/21 3:31:31 AM 298 0.0 3.0 53 77 70.6 60.3 29.899 5.37 0.0 0 0.00 0.00 0.00 0.00
09/20/21 3:32:20 AM 298 0.0 3.0 53 77 70.7 60.3 29.899 5.37 0.0 0 0.00 0.00 0.00 0.00
09/20/21 3:33:31 AM 298 0.0 3.0 53 77 70.6 60.3 29.895 5.37 0.0 0 0.00 0.00 0.00 0.00
09/20/21 3:34:24 AM 298 0.0 3.0 53 77 70.6 60.3 29.900 5.37 0.0 0 0.00 0.00 0.00 0.00
09/20/21 3:35:31 AM 298 0.0 3.0 53 77 70.6 60.3 29.901 5.37 0.0 0 0.00 0.00 0.00 0.00
09/20/21 3:36:24 AM 298 0.0 3.0 53 77 70.7 60.3 29.899 5.37 0.0 0 0.00 0.00 0.00 0.00
09/20/21 3:37:34 AM 298 0.0 3.0 53 77 70.6 60.3 29.900 5.37 0.0 0 0.00 0.00 0.00 0.00
09/20/21 3:38:27 AM 298 0.0 3.0 53 77 70.7 60.3 29.898 5.37 0.0 0 0.00 0.00 0.00 0.00
09/20/21 3:39:17 AM 298 0.0 3.0 53 77 70.6 60.3 29.898 5.37 0.0 0 0.00 0.00 0.00 0.00
09/20/21 3:40:24 AM 298 0.0 3.0 53 77 70.6 60.3 29.896 5.37 0.0 0 0.00 0.00 0.00 0.00
09/20/21 3:41:17 AM 298 0.0 3.0 53 77 70.6 60.3 29.898 5.37 0.0 0 0.00 0.00 0.00 0.00
09/20/21 3:42:27 AM 298 0.0 3.0 53 77 70.6 60.4 29.898 5.37 0.0 0 0.00 0.00 0.00 0.00
09/20/21 3:43:20 AM 298 0.0 3.0 53 77 70.6 60.4 29.897 5.37 0.0 0 0.00 0.00 0.00 0.00
09/20/21 3:44:30 AM 297 0.0 3.0 53 78 70.6 60.4 29.900 5.37 0.0 0 0.00 0.00 0.00 0.00
09/20/21 3:45:20 AM 297 0.0 3.0 53 78 70.6 60.4 29.899 5.37 0.0 0 0.00 0.00 0.00 0.00
09/20/21 3:46:30 AM 297 0.0 3.0 53 78 70.6 60.4 29.898 5.37 0.0 0 0.00 0.00 0.00 0.00
09/20/21 3:47:23 AM 297 0.0 3.0 53 78 70.6 60.4 29.899 5.37 0.0 0 0.00 0.00 0.00 0.00
09/20/21 3:48:33 AM 297 0.0 3.0 53 78 70.6 60.4 29.897 5.37 0.0 0 0.00 0.00 0.00 0.00
09/20/21 3:49:26 AM 297 0.0 3.0 53 78 70.6 60.4 29.898 5.37 0.0 0 0.00 0.00 0.00 0.00
09/20/21 3:50:19 AM 297 0.0 3.0 53 78 70.6 60.4 29.898 5.37 0.0 0 0.00 0.00 0.00 0.00
09/20/21 3:51:26 AM 297 0.0 3.0 53 78 70.7 60.4 29.898 5.37 0.0 0 0.00 0.00 0.00 0.00
09/20/21 3:52:19 AM 297 0.0 3.0 53 78 70.6 60.4 29.898 5.37 0.0 0 0.00 0.00 0.00 0.00
09/20/21 3:53:30 AM 297 0.0 3.0 53 78 70.6 60.4 29.898 5.37 0.0 0 0.00 0.00 0.00 0.00
09/20/21 3:54:22 AM 297 0.0 3.0 53 78 70.6 60.4 29.897 5.37 0.0 0 0.00 0.00 0.00 0.00
09/20/21 3:55:33 AM 297 0.0 3.0 53 78 70.6 60.4 29.896 5.37 0.0 0 0.00 0.00 0.00 0.00
09/20/21 3:56:23 AM 297 0.0 3.0 53 78 70.6 60.3 29.898 5.37 0.0 0 0.00 0.00 0.00 0.00
09/20/21 3:57:33 AM 297 0.0 3.0 53 78 70.6 60.3 29.898 5.37 0.0 0 0.00 0.00 0.00 0.00
09/20/21 3:58:26 AM 297 0.0 3.0 53 78 70.6 60.3 29.899 5.37 0.0 0 0.00 0.00 0.00 0.00
09/20/21 3:59:15 AM 297 0.0 3.0 53 78 70.6 60.3 29.898 5.37 0.0 0 0.00 0.00 0.00 0.00
09/20/21 4:00:29 AM 297 0.0 3.0 53 78 70.6 60.2 29.897 5.37 0.0 0 0.00 0.00 0.00 0.00
09/20/21 4:06:35 AM 297 0.0 3.0 53 77 70.6 60.2 29.894 5.37 0.0 0 0.00 0.00 0.00 0.00
09/20/21 4:07:28 AM 297 0.0 3.0 53 78 70.6 60.2 29.896 5.37 0.0 0 0.00 0.00 0.00 0.00
09/20/21 4:08:17 AM 297 0.0 3.0 53 77 70.5 60.2 29.898 5.37 0.0 0 0.00 0.00 0.00 0.00
09/20/21 4:09:25 AM 297 0.0 3.0 53 77 70.5 60.2 29.898 5.37 0.0 0 0.00 0.00 0.00 0.00
09/20/21 4:10:17 AM 297 0.0 3.0 53 77 70.5 60.2 29.897 5.37 0.0 0 0.00 0.00 0.00 0.00
09/20/21 4:11:31 AM 297 0.0 3.0 53 78 70.5 60.2 29.896 5.37 0.0 0 0.00 0.00 0.00 0.00
09/20/21 4:12:20 AM 297 0.0 3.0 53 78 70.5 60.2 29.898 5.37 0.0 0 0.00 0.00 0.00 0.00
09/20/21 4:13:34 AM 297 0.0 3.0 53 78 70.5 60.1 29.899 5.37 0.0 0 0.00 0.00 0.00 0.00
09/20/21 4:14:20 AM 297 0.0 3.0 53 78 70.5 60.1 29.894 5.37 0.0 0 0.00 0.00 0.00 0.00
09/20/21 4:15:34 AM 297 0.0 3.0 53 78 70.5 60.1 29.894 5.37 0.0 0 0.00 0.00 0.00 0.00
09/20/21 4:16:24 AM 297 0.0 3.0 53 78 70.5 60.1 29.898 5.37 0.0 0 0.00 0.00 0.00 0.00
09/20/21 4:17:16 AM 297 0.0 3.0 53 78 70.4 60.1 29.898 5.37 0.0 0 0.00 0.00 0.00 0.00
09/20/21 4:18:30 AM 297 0.0 3.0 53 78 70.4 60.0 29.898 5.37 0.0 0 0.00 0.00 0.00 0.00
09/20/21 4:19:22 AM 297 0.0 3.0 53 78 70.4 60.0 29.897 5.37 0.0 0 0.00 0.00 0.00 0.00
09/20/21 4:20:27 AM 297 0.0 3.0 53 78 70.4 60.0 29.893 5.37 0.0 0 0.00 0.00 0.00 0.00
09/20/21 4:21:19 AM 297 0.0 3.0 53 78 70.5 60.0 29.892 5.37 0.0 0 0.00 0.00 0.00 0.00
09/20/21 4:22:33 AM 298 0.0 3.0 53 78 70.4 60.0 29.894 5.37 0.0 0 0.00 0.00 0.00 0.00
09/20/21 4:23:26 AM 336 0.0 3.0 53 78 70.4 59.9 29.895 5.37 0.0 0 0.00 0.00 0.00 0.00
09/20/21 4:24:36 AM 336 0.0 3.0 53 78 70.5 59.8 29.894 5.37 0.0 0 0.00 0.00 0.00 0.00
09/20/21 4:25:26 AM 355 0.0 3.0 53 78 70.4 59.8 29.896 5.37 0.0 0 0.00 0.00 0.00 0.00
09/20/21 4:26:36 AM 23 2.0 4.0 53 77 70.4 59.7 29.896 5.37 0.0 0 0.00 0.00 0.00 0.00
09/20/21 4:27:29 AM 23 0.0 4.0 53 77 70.4 59.6 29.896 5.37 0.0 0 0.00 0.00 0.00 0.00
09/20/21 4:28:21 AM 23 0.0 4.0 53 77 70.4 59.6 29.897 5.37 0.0 0 0.00 0.00 0.00 0.00
09/20/21 4:29:32 AM 23 0.0 4.0 53 77 70.4 59.5 29.895 5.37 0.0 0 0.00 0.00 0.00 0.00
09/20/21 4:30:22 AM 23 0.0 4.0 53 78 70.4 59.5 29.895 5.37 0.0 0 0.00 0.00 0.00 0.00
09/20/21 4:31:32 AM 23 0.0 4.0 53 78 70.4 59.5 29.894 5.37 0.0 0 0.00 0.00 0.00 0.00
09/20/21 4:32:25 AM 23 0.0 4.0 53 78 70.4 59.5 29.894 5.37 0.0 0 0.00 0.00 0.00 0.00
09/20/21 4:33:35 AM 23 0.0 4.0 53 78 70.4 59.5 29.896 5.37 0.0 0 0.00 0.00 0.00 0.00
09/20/21 4:34:28 AM 23 0.0 4.0 53 78 70.4 59.5 29.895 5.37 0.0 0 0.00 0.00 0.00 0.00
09/20/21 4:35:17 AM 23 0.0 4.0 53 78 70.4 59.5 29.896 5.37 0.0 0 0.00 0.00 0.00 0.00
09/20/21 4:36:25 AM 22 0.0 4.0 53 78 70.4 59.4 29.894 5.37 0.0 0 0.00 0.00 0.00 0.00
09/20/21 4:37:18 AM 21 2.0 4.0 53 78 70.4 59.4 29.896 5.37 0.0 0 0.00 0.00 0.00 0.00
09/20/21 4:38:28 AM 307 2.0 4.0 53 78 70.4 59.4 29.895 5.37 0.0 0 0.00 0.00 0.00 0.00
09/20/21 4:39:21 AM 306 2.0 4.0 53 79 70.4 59.4 29.897 5.37 0.0 0 0.00 0.00 0.00 0.00
09/20/21 4:40:31 AM 325 5.0 6.0 53 79 70.3 59.5 29.898 5.37 0.0 0 0.00 0.00 0.00 0.00
09/20/21 4:41:21 AM 325 4.0 6.0 53 79 70.4 59.4 29.897 5.37 0.0 0 0.00 0.00 0.00 0.00
09/20/21 4:42:31 AM 325 3.0 6.0 53 78 70.4 59.4 29.898 5.37 0.0 0 0.00 0.00 0.00 0.00
09/20/21 4:43:24 AM 325 3.0 6.0 53 78 70.4 59.3 29.899 5.37 0.0 0 0.00 0.00 0.00 0.00
09/20/21 4:44:35 AM 323 5.0 6.0 53 78 70.3 59.3 29.898 5.37 0.0 0 0.00 0.00 0.00 0.00
09/20/21 4:45:27 AM 321 3.0 6.0 53 79 70.3 59.3 29.899 5.37 0.0 0 0.00 0.00 0.00 0.00
09/20/21 4:46:35 AM 321 3.0 6.0 53 79 70.3 59.4 29.896 5.37 0.0 0 0.00 0.00 0.00 0.00
09/20/21 4:47:27 AM 320 4.0 6.0 53 79 70.3 59.4 29.896 5.37 0.0 0 0.00 0.00 0.00 0.00
09/20/21 4:48:17 AM 319 4.0 6.0 53 79 70.3 59.5 29.896 5.37 0.0 0 0.00 0.00 0.00 0.00
09/20/21 4:49:31 AM 318 3.0 6.0 53 79 70.3 59.5 29.895 5.37 0.0 0 0.00 0.00 0.00 0.00
09/20/21 4:50:23 AM 318 2.0 6.0 53 79 70.2 59.5 29.895 5.37 0.0 0 0.00 0.00 0.00 0.00
09/20/21 4:51:31 AM 318 2.0 6.0 53 79 70.3 59.6 29.897 5.37 0.0 0 0.00 0.00 0.00 0.00
09/20/21 4:52:20 AM 318 2.0 6.0 53 79 70.2 59.6 29.895 5.37 0.0 0 0.00 0.00 0.00 0.00
09/20/21 4:53:34 AM 317 2.0 6.0 53 79 70.2 59.7 29.896 5.37 0.0 0 0.00 0.00 0.00 0.00
09/20/21 4:54:24 AM 317 2.0 6.0 53 79 70.2 59.7 29.894 5.37 0.0 0 0.00 0.00 0.00 0.00
09/20/21 4:55:16 AM 317 1.0 6.0 53 79 70.2 59.8 29.896 5.37 0.0 0 0.00 0.00 0.00 0.00
09/20/21 4:56:30 AM 317 2.0 6.0 53 79 70.2 59.8 29.894 5.37 0.0 0 0.00 0.00 0.00 0.00
09/20/21 4:57:16 AM 317 1.0 6.0 53 79 70.2 59.8 29.894 5.37 0.0 0 0.00 0.00 0.00 0.00
09/20/21 4:58:30 AM 317 0.0 6.0 53 79 70.2 59.9 29.896 5.37 0.0 0 0.00 0.00 0.00 0.00
09/20/21 4:59:20 AM 317 0.0 6.0 53 79 70.1 59.9 29.899 5.37 0.0 0 0.00 0.00 0.00 0.00
09/20/21 5:00:36 AM 317 0.0 6.0 53 79 70.1 60.0 29.896 5.37 0.0 0 0.00 0.00 0.00 0.00
09/20/21 5:01:26 AM 316 0.0 6.0 53 79 70.1 60.0 29.894 5.37 0.0 0 0.00 0.00 0.00 0.00
09/20/21 5:02:31 AM 316 0.0 6.0 53 79 70.1 60.0 29.894 5.37 0.0 0 0.00 0.00 0.00 0.00
09/20/21 5:03:23 AM 316 0.0 6.0 54 79 70.1 60.1 29.895 5.37 0.0 0 0.00 0.00 0.00 0.00
09/20/21 5:04:34 AM 316 0.0 6.0 54 79 70.1 60.0 29.894 5.37 0.0 0 0.00 0.00 0.00 0.00
09/20/21 5:05:27 AM 316 0.0 6.0 54 79 70.1 60.0 29.893 5.37 0.0 0 0.00 0.00 0.00 0.00
09/20/21 5:06:16 AM 316 0.0 6.0 54 79 70.0 60.0 29.894 5.37 0.0 0 0.00 0.00 0.00 0.00
09/20/21 5:07:24 AM 316 0.0 6.0 54 78 70.0 60.0 29.894 5.37 0.0 0 0.00 0.00 0.00 0.00
09/20/21 5:08:17 AM 316 0.0 6.0 54 78 70.0 60.0 29.894 5.37 0.0 0 0.00 0.00 0.00 0.00
09/20/21 5:09:28 AM 316 0.0 6.0 54 78 70.0 60.0 29.893 5.37 0.0 0 0.00 0.00 0.00 0.00
09/20/21 5:10:20 AM 316 0.0 6.0 54 78 69.9 60.0 29.892 5.37 0.0 0 0.00 0.00 0.00 0.00
09/20/21 5:11:34 AM 316 0.0 6.0 54 78 69.9 59.9 29.893 5.37 0.0 0 0.00 0.00 0.00 0.00
09/20/21 5:13:33 AM 316 0.0 6.0 54 78 69.9 59.9 29.892 5.37 0.0 0 0.00 0.00 0.00 0.00
09/20/21 5:14:23 AM 317 0.0 6.0 54 78 69.9 59.9 29.896 5.37 0.0 0 0.00 0.00 0.00 0.00
09/20/21 5:15:36 AM 319 0.0 6.0 54 78 69.8 59.8 29.894 5.37 0.0 0 0.00 0.00 0.00 0.00
09/20/21 5:16:26 AM 319 0.0 6.0 54 78 69.7 59.8 29.894 5.37 0.0 0 0.00 0.00 0.00 0.00
09/20/21 5:17:19 AM 319 0.0 6.0 54 79 69.7 59.8 29.896 5.37 0.0 0 0.00 0.00 0.00 0.00
09/20/21 5:18:23 AM 319 0.0 6.0 55 79 69.7 59.8 29.897 5.37 0.0 0 0.00 0.00 0.00 0.00
09/20/21 5:19:37 AM 319 0.0 6.0 55 79 69.7 59.9 29.895 5.37 0.0 0 0.00 0.00 0.00 0.00
09/20/21 5:20:27 AM 319 0.0 6.0 55 79 69.7 59.8 29.895 5.37 0.0 0 0.00 0.00 0.00 0.00
09/20/21 5:21:19 AM 319 0.0 6.0 55 79 69.6 59.9 29.894 5.37 0.0 0 0.00 0.00 0.00 0.00
09/20/21 5:22:30 AM 319 0.0 6.0 55 79 69.6 59.9 29.895 5.37 0.0 0 0.00 0.00 0.00 0.00
09/20/21 5:23:17 AM 319 0.0 6.0 55 79 69.6 59.9 29.896 5.37 0.0 0 0.00 0.00 0.00 0.00
09/20/21 5:24:31 AM 319 0.0 6.0 55 79 69.5 59.8 29.895 5.37 0.0 0 0.00 0.00 0.00 0.00
09/20/21 5:25:20 AM 319 0.0 6.0 55 79 69.5 59.8 29.895 5.37 0.0 0 0.00 0.00 0.00 0.00
09/20/21 5:26:31 AM 318 0.0 6.0 55 79 69.5 59.8 29.893 5.37 0.0 0 0.00 0.00 0.00 0.00
09/20/21 5:27:23 AM 318 0.0 6.0 55 79 69.4 59.8 29.893 5.37 0.0 0 0.00 0.00 0.00 0.00
09/20/21 5:28:31 AM 321 3.0 6.0 55 79 69.4 59.7 29.895 5.37 0.0 0 0.00 0.00 0.00 0.00
09/20/21 5:29:24 AM 330 4.0 6.0 55 79 69.4 59.7 29.892 5.37 0.0 0 0.00 0.00 0.00 0.00
09/20/21 5:30:37 AM 328 4.0 6.0 55 79 69.4 59.6 29.896 5.37 0.0 0 0.00 0.00 0.00 0.00
09/20/21 5:31:27 AM 311 3.0 6.0 55 79 69.3 59.6 29.895 5.37 0.0 0 0.00 0.00 0.00 0.00
09/20/21 5:32:16 AM 311 3.0 6.0 55 79 69.2 59.6 29.895 5.37 0.0 0 0.00 0.00 0.00 0.00
09/20/21 5:33:27 AM 311 2.0 6.0 55 79 69.2 59.6 29.897 5.37 0.0 0 0.00 0.00 0.00 0.00
09/20/21 5:34:16 AM 310 3.0 6.0 55 80 69.2 59.7 29.898 5.37 0.0 0 0.00 0.00 0.00 0.00
09/20/21 5:35:27 AM 310 3.0 6.0 55 80 69.2 59.7 29.895 5.37 0.0 0 0.00 0.00 0.00 0.00
09/20/21 5:36:17 AM 310 3.0 6.0 55 80 69.1 59.7 29.896 5.37 0.0 0 0.00 0.00 0.00 0.00
09/20/21 5:37:30 AM 309 1.0 6.0 55 80 69.1 59.7 29.895 5.37 0.0 0 0.00 0.00 0.00 0.00
09/20/21 5:38:20 AM 309 3.0 6.0 55 80 69.1 59.7 29.894 5.37 0.0 0 0.00 0.00 0.00 0.00
09/20/21 5:39:28 AM 309 3.0 6.0 55 80 69.0 59.7 29.895 5.37 0.0 0 0.00 0.00 0.00 0.00
09/20/21 5:40:20 AM 309 1.0 6.0 55 80 69.0 59.8 29.895 5.37 0.0 0 0.00 0.00 0.00 0.00
09/20/21 5:41:31 AM 309 0.0 6.0 55 80 69.0 59.8 29.896 5.37 0.0 0 0.00 0.00 0.00 0.00
09/20/21 5:42:23 AM 310 2.0 6.0 55 80 69.0 59.8 29.895 5.37 0.0 0 0.00 0.00 0.00 0.00
09/20/21 5:43:34 AM 310 0.0 6.0 56 79 69.0 59.8 29.896 5.37 0.0 0 0.00 0.00 0.00 0.00
09/20/21 5:44:21 AM 309 1.0 6.0 56 79 68.9 59.8 29.897 5.37 0.0 0 0.00 0.00 0.00 0.00
09/20/21 5:45:34 AM 309 1.0 6.0 56 79 68.9 59.8 29.895 5.37 0.0 0 0.00 0.00 0.00 0.00
09/20/21 5:46:27 AM 309 0.0 6.0 56 79 68.9 59.8 29.896 5.37 0.0 0 0.00 0.00 0.00 0.00
09/20/21 5:47:16 AM 309 0.0 6.0 56 79 68.8 59.8 29.897 5.37 0.0 0 0.00 0.00 0.00 0.00
09/20/21 5:48:27 AM 309 0.0 6.0 56 79 68.8 59.8 29.895 5.37 0.0 0 0.00 0.00 0.00 0.00
09/20/21 5:49:20 AM 309 0.0 6.0 56 79 68.8 59.8 29.897 5.37 0.0 0 0.00 0.00 0.00 0.00
09/20/21 5:50:27 AM 309 0.0 6.0 56 79 68.7 59.8 29.899 5.37 0.0 0 0.00 0.00 0.00 0.00
09/20/21 5:51:20 AM 309 1.0 6.0 56 79 68.7 59.7 29.898 5.37 0.0 0 0.00 0.00 0.00 0.00
09/20/21 5:52:30 AM 309 0.0 6.0 56 79 68.7 59.7 29.897 5.37 0.0 0 0.00 0.00 0.00 0.00
09/20/21 5:53:20 AM 309 0.0 6.0 56 79 68.6 59.7 29.896 5.37 0.0 0 0.00 0.00 0.00 0.00
09/20/21 5:54:34 AM 309 0.0 6.0 56 79 68.6 59.7 29.898 5.37 0.0 0 0.00 0.00 0.00 0.00
09/20/21 5:55:20 AM 309 0.0 6.0 56 79 68.6 59.6 29.898 5.37 0.0 0 0.00 0.00 0.00 0.00
09/20/21 5:56:34 AM 309 0.0 6.0 56 79 68.6 59.6 29.897 5.37 0.0 0 0.00 0.00 0.00 0.00
09/20/21 5:57:24 AM 309 0.0 6.0 56 79 68.5 59.6 29.898 5.37 0.0 0 0.00 0.00 0.00 0.00
09/20/21 5:58:16 AM 309 0.0 6.0 56 79 68.5 59.6 29.897 5.37 0.0 0 0.00 0.00 0.00 0.00
09/20/21 5:59:27 AM 309 0.0 6.0 57 79 68.5 59.6 29.898 5.37 0.0 0 0.00 0.00 0.00 0.00
09/20/21 6:00:38 AM 309 0.0 6.0 57 79 68.5 59.5 29.898 5.37 0.0 0 0.00 0.00 0.00 0.00
09/20/21 6:01:30 AM 309 0.0 6.0 57 79 68.4 59.5 29.899 5.37 0.0 0 0.00 0.00 0.00 0.00
09/20/21 6:02:20 AM 309 0.0 6.0 57 79 68.4 59.5 29.898 5.37 0.0 0 0.00 0.00 0.00 0.00
09/20/21 6:03:33 AM 309 0.0 6.0 57 79 68.4 59.5 29.899 5.37 0.0 0 0.00 0.00 0.00 0.00
09/20/21 6:04:23 AM 309 0.0 6.0 57 79 68.3 59.5 29.899 5.37 0.0 0 0.00 0.00 0.00 0.00
09/20/21 6:05:16 AM 309 0.0 6.0 57 79 68.3 59.4 29.901 5.37 0.0 0 0.00 0.00 0.00 0.00
09/20/21 6:06:23 AM 309 0.0 6.0 57 79 68.3 59.4 29.900 5.37 0.0 0 0.00 0.00 0.00 0.00
09/20/21 6:07:34 AM 309 0.0 6.0 57 79 68.3 59.4 29.902 5.37 0.0 0 0.00 0.00 0.00 0.00
09/20/21 6:08:27 AM 309 0.0 6.0 57 79 68.2 59.4 29.901 5.37 0.0 0 0.00 0.00 0.00 0.00
09/20/21 6:09:19 AM 309 0.0 6.0 57 79 68.2 59.4 29.902 5.37 0.0 0 0.00 0.00 0.00 0.00
09/20/21 6:10:33 AM 309 0.0 6.0 57 80 68.1 59.4 29.900 5.37 0.0 0 0.00 0.00 0.00 0.00
09/20/21 6:11:19 AM 309 0.0 6.0 57 80 68.2 59.4 29.900 5.37 0.0 0 0.00 0.00 0.00 0.00
09/20/21 6:12:30 AM 309 0.0 6.0 57 80 68.1 59.4 29.900 5.37 0.0 0 0.00 0.00 0.00 0.00
09/20/21 6:13:23 AM 309 0.0 6.0 57 80 68.1 59.4 29.902 5.37 0.0 0 0.00 0.00 0.00 0.00
09/20/21 6:14:33 AM 309 0.0 6.0 57 80 68.1 59.4 29.906 5.37 0.0 0 0.00 0.00 0.00 0.00
09/20/21 6:15:26 AM 309 0.0 6.0 57 80 68.1 59.4 29.902 5.37 0.0 0 0.00 0.00 0.00 0.00
09/20/21 6:16:34 AM 309 0.0 6.0 57 80 68.0 59.4 29.904 5.37 0.0 0 0.00 0.00 0.00 0.00
09/20/21 6:17:23 AM 309 0.0 6.0 57 80 68.1 59.4 29.902 5.37 0.0 0 0.00 0.00 0.00 0.00
09/20/21 6:18:34 AM 308 0.0 6.0 57 80 68.0 59.4 29.901 5.37 0.0 0 0.00 0.00 0.00 0.00
09/20/21 6:19:27 AM 308 0.0 6.0 57 80 68.1 59.5 29.902 5.37 0.0 0 0.00 0.00 0.00 0.00
09/20/21 6:20:16 AM 309 0.0 6.0 57 80 68.0 59.4 29.903 5.37 0.0 0 0.00 0.00 0.00 0.00
09/20/21 6:21:24 AM 307 0.0 6.0 57 79 68.0 59.4 29.904 5.37 0.0 0 0.00 0.00 0.00 0.00
09/20/21 6:22:16 AM 307 0.0 6.0 57 80 68.0 59.4 29.904 5.37 0.0 0 0.00 0.00 0.00 0.00
09/20/21 6:23:30 AM 307 0.0 6.0 57 79 68.0 59.4 29.905 5.37 0.0 0 0.00 0.00 0.00 0.00
09/20/21 6:24:20 AM 307 0.0 6.0 57 79 67.9 59.4 29.905 5.37 0.0 0 0.00 0.00 0.00 0.00
09/20/21 6:25:33 AM 307 0.0 6.0 57 80 67.9 59.4 29.905 5.37 0.0 0 0.00 0.00 0.00 0.00
09/20/21 6:26:23 AM 307 0.0 6.0 57 80 67.9 59.4 29.904 5.37 0.0 0 0.00 0.00 0.00 0.00
09/20/21 6:27:31 AM 307 0.0 6.0 57 80 67.9 59.4 29.904 5.37 0.0 0 0.00 0.00 0.00 0.00
09/20/21 6:28:26 AM 307 0.0 6.0 57 80 67.9 59.4 29.907 5.37 0.0 0 0.00 0.00 0.00 0.00
09/20/21 6:29:19 AM 307 0.0 6.0 57 80 67.9 59.4 29.905 5.37 0.0 0 0.00 0.00 0.00 0.00
09/20/21 6:30:33 AM 306 0.0 6.0 57 80 67.8 59.4 29.901 5.37 0.0 0 0.00 0.00 0.00 0.00
09/20/21 6:31:25 AM 306 0.0 6.0 57 80 67.8 59.4 29.907 5.37 0.0 0 0.00 0.00 0.00 0.00
09/20/21 6:32:30 AM 306 0.0 6.0 57 80 67.8 59.4 29.906 5.37 0.0 0 0.00 0.00 0.00 0.00
09/20/21 6:33:23 AM 306 0.0 6.0 57 79 67.8 59.4 29.908 5.37 0.0 0 0.00 0.00 0.00 0.00
09/20/21 6:34:33 AM 306 0.0 6.0 57 79 67.8 59.4 29.905 5.37 0.0 0 0.00 0.00 0.00 0.00
09/20/21 6:35:26 AM 306 0.0 6.0 57 79 67.8 59.4 29.907 5.37 0.0 0 0.00 0.00 0.00 0.00
09/20/21 6:36:19 AM 306 0.0 6.0 57 79 67.7 59.3 29.904 5.37 0.0 0 0.00 0.00 0.00 0.00
09/20/21 6:37:26 AM 306 0.0 6.0 57 79 67.8 59.3 29.904 5.37 0.0 0 0.00 0.00 0.00 0.00
09/20/21 6:38:19 AM 306 0.0 6.0 57 79 67.8 59.3 29.906 5.37 0.0 0 0.00 0.00 0.00 0.00
09/20/21 6:39:30 AM 306 0.0 6.0 57 79 67.8 59.3 29.910 5.37 0.0 0 0.00 0.00 0.00 0.00
09/20/21 6:40:22 AM 306 0.0 6.0 57 79 67.7 59.3 29.906 5.37 0.0 0 0.00 0.00 0.00 0.00
09/20/21 6:41:33 AM 306 0.0 6.0 57 79 67.7 59.3 29.905 5.37 0.0 5 0.00 0.00 0.00 0.00
09/20/21 6:42:26 AM 306 0.0 6.0 57 79 67.7 59.3 29.908 5.37 0.0 5 0.00 0.00 0.00 0.00
09/20/21 6:43:33 AM 306 0.0 6.0 57 79 67.7 59.3 29.908 5.37 0.0 5 0.00 0.00 0.00 0.00
09/20/21 6:44:26 AM 306 0.0 6.0 57 79 67.7 59.3 29.911 5.37 0.0 7 0.00 0.00 0.00 0.00
09/20/21 6:45:19 AM 306 0.0 6.0 57 79 67.7 59.2 29.910 5.37 0.0 7 0.00 0.00 0.00 0.00
09/20/21 6:46:29 AM 306 0.0 6.0 57 79 67.7 59.2 29.908 5.37 0.0 9 0.00 0.00 0.00 0.00
09/20/21 6:47:22 AM 306 0.0 6.0 57 78 67.7 59.2 29.907 5.37 0.0 9 0.00 0.00 0.00 0.00
09/20/21 6:48:30 AM 306 0.0 6.0 57 78 67.6 59.1 29.910 5.37 0.0 11 0.00 0.00 0.00 0.00
09/20/21 6:49:19 AM 306 0.0 6.0 57 78 67.6 59.1 29.908 5.37 0.0 12 0.00 0.00 0.00 0.00
09/20/21 6:50:30 AM 306 0.0 6.0 57 78 67.6 59.1 29.905 5.37 0.0 12 0.00 0.00 0.00 0.00
09/20/21 6:51:23 AM 307 0.0 6.0 57 78 67.6 59.1 29.907 5.37 0.0 14 0.00 0.00 0.00 0.00
09/20/21 6:52:36 AM 325 0.0 6.0 57 78 67.6 59.0 29.907 5.37 0.0 14 0.00 0.00 0.00 0.00
09/20/21 6:53:23 AM 325 0.0 6.0 57 78 67.6 59.0 29.910 5.37 0.0 16 0.00 0.00 0.00 0.00
09/20/21 6:54:16 AM 325 0.0 6.0 57 78 67.6 59.0 29.910 5.37 0.0 18 0.00 0.00 0.00 0.00
09/20/21 6:55:29 AM 325 0.0 6.0 57 78 67.6 58.9 29.912 5.37 0.0 18 0.00 0.00 0.00 0.00
09/20/21 6:56:22 AM 325 0.0 6.0 57 78 67.6 58.9 29.912 5.37 0.0 19 0.00 0.00 0.00 0.00
09/20/21 6:57:33 AM 325 0.0 6.0 57 79 67.5 59.0 29.910 5.37 0.0 21 0.00 0.00 0.00 0.00
09/20/21 6:58:25 AM 325 0.0 6.0 57 79 67.6 58.9 29.909 5.37 0.0 21 0.00 0.00 0.00 0.00
09/20/21 6:59:33 AM 325 0.0 6.0 57 79 67.5 58.9 29.911 5.37 0.0 23 0.00 0.00 0.00 0.00
09/20/21 7:00:26 AM 325 0.0 6.0 57 79 67.5 59.0 29.911 5.37 0.0 23 0.00 0.00 0.00 0.00
09/20/21 7:01:19 AM 324 4.0 6.0 57 79 67.5 59.0 29.913 5.37 0.0 25 0.00 0.00 0.00 0.00
09/20/21 7:02:30 AM 317 3.0 6.0 57 79 67.5 59.0 29.912 5.37 0.0 26 0.00 0.00 0.00 0.00
09/20/21 7:03:19 AM 317 2.0 6.0 57 79 67.5 59.0 29.913 5.37 0.0 26 0.00 0.00 0.00 0.00
09/20/21 7:04:30 AM 317 0.0 6.0 57 79 67.5 59.0 29.909 5.37 0.0 28 0.00 0.00 0.00 0.00
09/20/21 7:05:23 AM 317 0.0 6.0 57 79 67.5 59.0 29.912 5.37 0.0 28 0.00 0.00 0.00 0.00
09/20/21 7:06:33 AM 54 2.0 6.0 57 79 67.5 59.0 29.913 5.37 0.0 30 0.00 0.00 0.00 0.00
09/20/21 7:07:26 AM 54 1.0 6.0 57 78 67.5 59.1 29.914 5.37 0.0 32 0.00 0.00 0.00 0.00
09/20/21 7:08:19 AM 248 4.0 6.0 57 78 67.4 59.1 29.914 5.37 0.0 32 0.00 0.00 0.00 0.00
09/20/21 7:09:27 AM 247 1.0 6.0 57 78 67.4 59.1 29.911 5.37 0.0 33 0.00 0.00 0.00 0.00
09/20/21 7:10:16 AM 247 2.0 6.0 57 78 67.4 59.1 29.912 5.37 0.0 33 0.00 0.00 0.00 0.00
09/20/21 7:11:27 AM 247 3.0 6.0 57 78 67.4 59.1 29.914 5.37 0.0 35 0.00 0.00 0.00 0.00
09/20/21 7:12:20 AM 247 0.0 6.0 57 78 67.4 59.1 29.916 5.37 0.0 35 0.00 0.00 0.00 0.00
09/20/21 7:13:33 AM 247 0.0 6.0 57 78 67.4 59.2 29.915 5.37 0.0 37 0.00 0.00 0.00 0.00
09/20/21 7:14:23 AM 247 0.0 6.0 57 78 67.4 59.2 29.912 5.37 0.0 39 0.00 0.00 0.00 0.00
09/20/21 7:15:34 AM 247 0.0 6.0 57 79 67.4 59.2 29.910 5.37 0.0 39 0.00 0.00 0.00 0.00
09/20/21 7:16:23 AM 246 0.0 6.0 57 79 67.4 59.3 29.913 5.37 0.0 40 0.00 0.00 0.00 0.00
09/20/21 7:17:34 AM 246 0.0 6.0 57 79 67.4 59.3 29.914 5.37 0.0 42 0.00 0.00 0.00 0.00
09/20/21 7:18:27 AM 246 0.0 6.0 57 78 67.4 59.3 29.913 5.37 0.0 46 0.00 0.00 0.00 0.00
09/20/21 7:19:20 AM 246 0.0 6.0 57 78 67.4 59.4 29.917 5.37 0.0 46 0.00 0.00 0.00 0.00
09/20/21 7:20:27 AM 246 0.0 6.0 57 78 67.4 59.4 29.915 5.37 0.0 49 0.00 0.00 0.00 0.00
09/20/21 7:21:17 AM 246 0.0 6.0 57 78 67.4 59.5 29.914 5.37 0.0 53 0.00 0.00 0.00 0.00
09/20/21 7:22:28 AM 246 0.0 6.0 57 78 67.4 59.6 29.913 5.37 0.0 54 0.00 0.00 0.00 0.00
09/20/21 7:23:20 AM 246 0.0 6.0 57 78 67.4 59.6 29.918 5.37 0.0 56 0.00 0.00 0.00 0.00
09/20/21 7:24:31 AM 246 0.0 6.0 57 78 67.4 59.7 29.916 5.37 0.0 60 0.00 0.00 0.00 0.00
09/20/21 7:25:21 AM 246 0.0 6.0 57 78 67.4 59.8 29.918 5.37 0.0 62 0.00 0.00 0.00 0.00
09/20/21 7:26:32 AM 246 0.0 6.0 57 78 67.4 59.9 29.919 5.37 0.0 63 0.00 0.00 0.00 0.00
09/20/21 7:27:24 AM 246 0.0 6.0 57 78 67.4 59.9 29.917 5.37 0.0 67 0.00 0.00 0.00 0.00
09/20/21 7:28:17 AM 246 0.0 6.0 57 78 67.3 60.0 29.920 5.37 0.0 69 0.00 0.00 0.00 0.00
09/20/21 7:29:28 AM 246 0.0 6.0 57 78 67.3 60.0 29.922 5.37 0.0 72 0.00 0.00 0.00 0.00
09/20/21 7:30:20 AM 246 0.0 6.0 57 78 67.4 60.0 29.919 5.37 0.0 74 0.00 0.00 0.00 0.00
09/20/21 7:31:28 AM 246 0.0 6.0 57 78 67.3 60.1 29.919 5.37 0.0 76 0.00 0.00 0.00 0.00
09/20/21 7:32:18 AM 246 0.0 6.0 57 78 67.4 60.2 29.919 5.37 0.0 76 0.00 0.00 0.00 0.00
09/20/21 7:33:32 AM 246 0.0 6.0 57 78 67.4 60.2 29.920 5.37 0.0 81 0.00 0.00 0.00 0.00
09/20/21 7:34:21 AM 246 0.0 6.0 57 78 67.3 60.3 29.919 5.37 0.0 81 0.00 0.00 0.00 0.00
09/20/21 7:35:35 AM 246 0.0 6.0 57 78 67.4 60.4 29.923 5.37 0.0 86 0.00 0.00 0.00 0.00
09/20/21 7:36:22 AM 246 0.0 6.0 57 77 67.4 60.4 29.924 5.37 0.0 90 0.00 0.00 0.00 0.00
09/20/21 7:37:36 AM 246 0.0 6.0 57 77 67.3 60.4 29.921 5.37 0.0 91 0.00 0.00 0.00 0.00
09/20/21 7:38:26 AM 246 0.0 6.0 57 77 67.3 60.5 29.922 5.37 0.0 95 0.00 0.00 0.00 0.00
09/20/21 7:39:19 AM 246 0.0 6.0 57 77 67.4 60.6 29.921 5.37 0.0 97 0.00 0.00 0.00 0.00
09/20/21 7:40:29 AM 246 0.0 6.0 57 77 67.3 60.6 29.922 5.37 0.0 97 0.00 0.00 0.00 0.00
09/20/21 7:41:37 AM 246 0.0 6.0 57 78 67.4 60.7 29.918 5.37 0.0 100 0.00 0.00 0.00 0.00
09/20/21 7:42:27 AM 240 3.0 6.0 57 78 67.4 60.8 29.919 5.37 0.0 102 0.00 0.00 0.00 0.00
09/20/21 7:43:17 AM 153 4.0 6.0 57 78 67.4 60.9 29.921 5.37 0.0 105 0.00 0.00 0.00 0.00
09/20/21 7:44:31 AM 117 4.0 6.0 57 77 67.4 61.1 29.919 5.37 0.0 111 0.00 0.00 0.00 0.00
09/20/21 7:45:27 AM 117 2.0 6.0 57 77 67.4 61.3 29.923 5.37 0.0 113 0.00 0.00 0.00 0.00
09/20/21 7:46:17 AM 117 1.0 6.0 57 77 67.4 61.3 29.924 5.37 0.0 113 0.00 0.00 0.00 0.00
09/20/21 7:47:25 AM 112 2.0 6.0 57 77 67.5 61.4 29.924 5.37 0.0 114 0.00 0.00 0.00 0.00
09/20/21 7:48:35 AM 66 2.0 6.0 57 76 67.5 61.5 29.921 5.37 0.0 121 0.00 0.00 0.00 0.00
09/20/21 7:49:25 AM 66 0.0 6.0 57 76 67.5 61.6 29.920 5.37 0.0 125 0.00 0.00 0.00 0.00
09/20/21 7:50:18 AM 66 0.0 6.0 57 76 67.5 61.7 29.919 5.37 0.0 128 0.00 0.00 0.00 0.00
09/20/21 7:51:29 AM 67 2.0 6.0 57 76 67.5 61.7 29.920 5.37 0.0 130 0.00 0.00 0.00 0.00
09/20/21 7:52:16 AM 67 2.0 6.0 57 75 67.5 61.8 29.921 5.37 0.0 135 0.00 0.00 0.00 0.00
09/20/21 7:53:26 AM 67 2.0 6.0 57 75 67.5 61.9 29.923 5.37 0.0 137 0.00 0.00 0.00 0.00
09/20/21 7:54:19 AM 67 0.0 6.0 57 75 67.6 62.0 29.921 5.37 0.0 137 0.00 0.00 0.00 0.00
09/20/21 7:55:30 AM 67 0.0 6.0 57 74 67.6 62.1 29.924 5.37 0.0 141 0.00 0.00 0.00 0.00
09/20/21 7:56:26 AM 67 0.0 6.0 57 74 67.6 62.2 29.922 5.37 0.0 142 0.00 0.00 0.00 0.00
09/20/21 7:57:31 AM 67 0.0 6.0 57 74 67.6 62.3 29.922 5.37 0.0 146 0.00 0.00 0.00 0.00
09/20/21 7:58:24 AM 67 0.0 6.0 57 74 67.6 62.4 29.920 5.37 0.0 151 0.00 0.00 0.00 0.00
09/20/21 7:59:35 AM 67 0.0 6.0 57 74 67.6 62.5 29.924 5.37 0.0 151 0.00 0.00 0.00 0.00
09/20/21 8:00:30 AM 67 0.0 6.0 57 74 67.7 62.6 29.924 5.37 0.0 158 0.00 0.00 0.00 0.00
09/20/21 8:01:20 AM 66 0.0 6.0 57 74 67.7 62.6 29.924 5.37 0.0 158 0.00 0.00 0.00 0.00
09/20/21 8:02:28 AM 66 0.0 6.0 57 74 67.7 62.7 29.922 5.37 0.0 158 0.00 0.00 0.00 0.00
09/20/21 8:03:20 AM 66 0.0 6.0 57 74 67.7 62.8 29.923 5.37 0.0 165 0.00 0.00 0.00 0.00
09/20/21 8:04:34 AM 66 0.0 6.0 57 74 67.8 62.9 29.923 5.37 0.0 167 0.00 0.00 0.00 0.00
09/20/21 8:05:27 AM 66 0.0 6.0 57 74 67.7 62.9 29.925 5.37 0.0 171 0.00 0.00 0.00 0.00
09/20/21 8:06:17 AM 66 0.0 6.0 57 74 67.8 63.0 29.924 5.37 0.0 178 0.00 0.00 0.00 0.00
09/20/21 8:07:30 AM 66 0.0 6.0 57 74 67.8 63.1 29.926 5.37 0.0 176 0.00 0.00 0.00 0.00
09/20/21 8:08:35 AM 66 0.0 6.0 57 73 67.9 63.1 29.925 5.37 0.0 178 0.00 0.00 0.00 0.00
09/20/21 8:09:28 AM 67 0.0 6.0 57 74 67.9 63.2 29.924 5.37 0.0 179 0.00 0.00 0.00 0.00
09/20/21 8:10:21 AM 68 0.0 6.0 57 74 67.9 63.3 29.925 5.37 0.0 179 0.00 0.00 0.00 0.00
09/20/21 8:11:32 AM 115 0.0 6.0 57 74 67.9 63.4 29.922 5.37 0.0 181 0.00 0.00 0.00 0.00
09/20/21 8:12:21 AM 116 0.0 6.0 57 74 67.9 63.5 29.923 5.37 0.0 183 0.00 0.00 0.00 0.00
09/20/21 8:13:29 AM 116 0.0 6.0 57 74 67.9 63.5 29.923 5.37 0.0 181 0.00 0.00 0.00 0.00
09/20/21 8:14:22 AM 116 0.0 6.0 57 73 68.0 63.7 29.925 5.37 0.0 181 0.00 0.00 0.00 0.00
09/20/21 8:15:35 AM 116 0.0 6.0 57 72 68.0 63.8 29.926 5.37 0.0 183 0.00 0.00 0.00 0.00
09/20/21 8:16:25 AM 116 0.0 6.0 57 72 68.0 63.8 29.925 5.37 0.0 183 0.00 0.00 0.00 0.00
09/20/21 8:17:18 AM 116 0.0 6.0 57 72 68.1 63.9 29.925 5.37 0.0 181 0.00 0.00 0.00 0.00
09/20/21 8:18:26 AM 116 0.0 6.0 57 72 68.1 64.1 29.928 5.37 0.0 181 0.00 0.00 0.00 0.00
09/20/21 8:19:16 AM 116 0.0 6.0 57 72 68.1 64.1 29.924 5.37 0.0 181 0.00 0.00 0.00 0.00
09/20/21 8:20:29 AM 116 0.0 6.0 57 72 68.1 64.2 29.925 5.37 0.0 183 0.00 0.00 0.00 0.00
09/20/21 8:21:22 AM 116 0.0 6.0 57 72 68.1 64.3 29.926 5.37 0.0 185 0.00 0.00 0.00 0.00
09/20/21 8:22:33 AM 116 0.0 6.0 57 72 68.1 64.5 29.926 5.37 0.0 186 0.00 0.00 0.00 0.00
09/20/21 8:23:23 AM 116 0.0 6.0 57 72 68.2 64.6 29.927 5.37 0.0 186 0.00 0.00 0.00 0.00
09/20/21 8:24:30 AM 116 0.0 6.0 57 72 68.2 64.7 29.926 5.37 0.0 190 0.00 0.00 0.00 0.00
09/20/21 8:25:20 AM 115 0.0 6.0 57 72 68.3 64.9 29.928 5.37 0.0 193 0.00 0.00 0.00 0.00
09/20/21 8:26:34 AM 116 0.0 6.0 57 71 68.3 65.1 29.926 5.37 0.0 197 0.00 0.00 0.00 0.00
09/20/21 8:27:27 AM 116 0.0 6.0 57 71 68.3 65.2 29.927 5.37 0.0 204 0.00 0.00 0.00 0.00
09/20/21 8:28:16 AM 116 0.0 6.0 57 71 68.4 65.3 29.924 5.37 0.0 209 0.00 0.00 0.00 0.00
09/20/21 8:29:24 AM 116 0.0 6.0 57 71 68.4 65.4 29.923 5.37 0.0 218 0.00 0.00 0.00 0.00
09/20/21 8:30:20 AM 116 0.0 6.0 57 71 68.4 65.5 29.923 5.37 0.0 223 0.00 0.00 0.00 0.00
09/20/21 8:31:28 AM 116 0.0 6.0 57 71 68.4 65.6 29.922 5.37 0.0 227 0.00 0.00 0.00 0.00
09/20/21 8:32:20 AM 116 0.0 6.0 57 70 68.4 65.7 29.924 5.37 0.0 234 0.00 0.00 0.00 0.00
09/20/21 8:33:31 AM 116 0.0 6.0 57 70 68.5 65.8 29.923 5.37 0.0 236 0.00 0.00 0.00 0.00
09/20/21 8:34:18 AM 116 0.0 6.0 57 70 68.5 65.9 29.923 5.37 0.0 236 0.00 0.00 0.00 0.00
09/20/21 8:35:29 AM 116 0.0 6.0 57 70 68.6 66.0 29.925 5.37 0.5 250 0.00 0.00 0.00 0.00
09/20/21 8:36:21 AM 116 0.0 6.0 57 69 68.6 66.1 29.922 5.37 0.5 239 0.00 0.00 0.00 0.00
09/20/21 8:37:32 AM 116 0.0 6.0 57 69 68.6 66.2 29.924 5.37 0.5 243 0.00 0.00 0.00 0.00
09/20/21 8:38:28 AM 116 0.0 6.0 57 69 68.7 66.3 29.924 5.37 0.5 248 0.00 0.00 0.00 0.00
09/20/21 8:39:18 AM 116 0.0 6.0 57 69 68.7 66.5 29.924 5.37 0.5 248 0.00 0.00 0.00 0.00
09/20/21 8:40:25 AM 116 0.0 6.0 57 68 68.8 66.6 29.920 5.37 0.5 250 0.00 0.00 0.00 0.00
09/20/21 8:41:18 AM 116 0.0 6.0 57 68 68.8 66.7 29.922 5.37 0.5 250 0.00 0.00 0.00 0.00
09/20/21 8:42:26 AM 116 0.0 6.0 57 68 68.8 66.9 29.923 5.37 0.5 251 0.00 0.00 0.00 0.00
09/20/21 8:43:19 AM 116 0.0 6.0 57 68 68.8 67.0 29.923 5.37 0.5 251 0.00 0.00 0.00 0.00
09/20/21 8:44:33 AM 115 0.0 6.0 57 68 68.9 67.2 29.924 5.37 0.5 251 0.00 0.00 0.00 0.00
09/20/21 8:45:23 AM 115 0.0 6.0 57 67 68.9 67.4 29.927 5.37 0.6 251 0.00 0.00 0.00 0.00
09/20/21 8:46:33 AM 115 0.0 6.0 57 67 68.9 67.5 29.927 5.37 0.6 260 0.00 0.00 0.00 0.00
09/20/21 8:47:26 AM 115 0.0 6.0 57 67 68.9 67.6 29.925 5.37 0.6 260 0.00 0.00 0.00 0.00
09/20/21 8:48:16 AM 115 0.0 6.0 57 66 69.0 67.8 29.923 5.37 0.6 262 0.00 0.00 0.00 0.00
09/20/21 8:49:27 AM 116 0.0 6.0 57 66 69.0 67.9 29.919 5.37 0.6 265 0.00 0.00 0.00 0.00
09/20/21 8:50:17 AM 116 0.0 6.0 57 66 69.1 68.1 29.922 5.37 0.6 269 0.00 0.00 0.00 0.00
09/20/21 8:51:28 AM 116 0.0 6.0 57 65 69.0 68.3 29.925 5.37 0.6 267 0.00 0.00 0.00 0.00
09/20/21 8:52:20 AM 116 0.0 6.0 57 65 69.1 68.3 29.925 5.37 0.6 271 0.00 0.00 0.00 0.00
09/20/21 8:53:31 AM 116 0.0 6.0 57 65 69.1 68.5 29.923 5.37 0.7 271 0.00 0.00 0.00 0.00
09/20/21 8:54:24 AM 117 0.0 6.0 57 65 69.2 68.6 29.925 5.37 0.7 276 0.00 0.00 0.00 0.00
09/20/21 8:55:32 AM 117 1.0 6.0 57 64 69.2 68.7 29.921 5.37 0.7 278 0.00 0.00 0.00 0.00
09/20/21 8:56:22 AM 117 1.0 6.0 57 64 69.2 68.8 29.921 5.37 0.7 279 0.00 0.00 0.00 0.00
09/20/21 8:57:35 AM 117 2.0 6.0 57 64 69.3 68.9 29.922 5.37 0.7 283 0.00 0.00 0.00 0.00
09/20/21 8:58:25 AM 116 2.0 6.0 57 63 69.3 69.0 29.924 5.37 0.7 285 0.00 0.00 0.00 0.00
09/20/21 8:59:18 AM 116 2.0 6.0 57 62 69.3 69.1 29.926 5.37 0.7 288 0.00 0.00 0.00 0.00
09/20/21 9:00:35 AM 116 0.0 6.0 57 62 69.3 69.2 29.924 5.37 0.7 290 0.00 0.00 0.00 0.00
09/20/21 9:01:22 AM 117 2.0 6.0 57 62 69.4 69.3 29.923 5.37 0.7 290 0.00 0.00 0.00 0.00
09/20/21 9:02:32 AM 117 1.0 6.0 57 62 69.4 69.4 29.923 5.37 0.7 295 0.00 0.00 0.00 0.00
09/20/21 9:03:25 AM 117 3.0 6.0 57 62 69.4 69.5 29.923 5.37 0.8 301 0.00 0.00 0.00 0.00
09/20/21 9:04:36 AM 117 3.0 6.0 57 61 69.4 69.6 29.923 5.37 0.8 299 0.00 0.00 0.00 0.00
09/20/21 9:05:26 AM 117 3.0 6.0 57 60 69.5 69.7 29.922 5.37 0.8 302 0.00 0.00 0.00 0.00
09/20/21 9:06:34 AM 117 2.0 6.0 57 60 69.4 69.8 29.924 5.37 0.8 308 0.00 0.00 0.00 0.00
09/20/21 9:07:27 AM 117 0.0 6.0 57 60 69.5 69.8 29.926 5.37 0.8 311 0.00 0.00 0.00 0.00
09/20/21 9:08:17 AM 117 0.0 6.0 57 60 69.5 69.9 29.924 5.37 0.8 318 0.00 0.00 0.00 0.00
09/20/21 9:09:28 AM 117 0.0 6.0 57 60 69.5 70.1 29.925 5.37 0.9 320 0.00 0.00 0.00 0.00
09/20/21 9:10:21 AM 117 0.0 6.0 57 59 69.5 70.1 29.929 5.37 0.9 322 0.00 0.00 0.00 0.00
09/20/21 9:11:29 AM 118 0.0 6.0 57 59 69.5 70.2 29.927 5.37 0.9 323 0.00 0.00 0.00 0.00
09/20/21 9:12:19 AM 127 1.0 6.0 57 59 69.5 70.3 29.927 5.37 0.9 329 0.00 0.00 0.00 0.00
09/20/21 9:13:33 AM 127 0.0 6.0 57 59 69.5 70.4 29.925 5.37 0.9 332 0.00 0.00 0.00 0.00
09/20/21 9:14:23 AM 126 0.0 6.0 57 59 69.6 70.5 29.930 5.37 0.9 336 0.00 0.00 0.00 0.00
09/20/21 9:15:37 AM 126 0.0 6.0 57 59 69.6 70.6 29.930 5.37 0.9 339 0.00 0.00 0.00 0.00
09/20/21 9:16:27 AM 127 2.0 6.0 57 59 69.6 70.8 29.925 5.37 0.9 339 0.00 0.00 0.00 0.00
09/20/21 9:17:35 AM 127 1.0 6.0 57 59 69.6 70.8 29.928 5.37 1.0 350 0.00 0.00 0.00 0.00
09/20/21 9:18:27 AM 126 2.0 6.0 57 59 69.7 71.0 29.927 5.37 1.0 352 0.00 0.00 0.00 0.00
09/20/21 9:19:20 AM 126 0.0 6.0 57 57 69.6 71.1 29.929 5.37 1.0 352 0.00 0.00 0.00 0.00
09/20/21 9:20:31 AM 126 0.0 6.0 57 56 69.7 71.2 29.929 5.37 1.0 352 0.00 0.00 0.00 0.00
09/20/21 9:21:24 AM 126 0.0 6.0 57 56 69.7 71.2 29.929 5.37 1.0 352 0.00 0.00 0.00 0.00
09/20/21 9:22:32 AM 126 0.0 6.0 57 56 69.7 71.3 29.932 5.37 1.1 359 0.00 0.00 0.00 0.00
09/20/21 9:23:22 AM 126 2.0 6.0 57 56 69.7 71.4 29.929 5.37 1.1 360 0.00 0.00 0.00 0.00
09/20/21 9:24:32 AM 126 1.0 6.0 57 55 69.7 71.5 29.926 5.37 1.1 362 0.00 0.00 0.00 0.00
09/20/21 9:25:25 AM 126 1.0 6.0 57 55 69.7 71.7 29.927 5.37 1.1 362 0.00 0.00 0.00 0.00
09/20/21 9:26:18 AM 126 3.0 6.0 57 54 69.7 71.8 29.927 5.37 1.1 359 0.00 0.00 0.00 0.00
09/20/21 9:27:26 AM 126 2.0 6.0 57 53 69.7 71.9 29.928 5.37 1.1 360 0.00 0.00 0.00 0.00
09/20/21 9:28:16 AM 126 1.0 6.0 57 53 69.8 72.0 29.927 5.37 1.2 360 0.00 0.00 0.00 0.00
09/20/21 9:29:30 AM 126 2.0 6.0 57 53 69.8 72.1 29.930 5.37 1.2 364 0.00 0.00 0.00 0.00
09/20/21 9:30:26 AM 125 1.0 6.0 57 52 69.8 72.2 29.930 5.37 1.2 364 0.00 0.00 0.00 0.00
09/20/21 9:31:34 AM 125 1.0 6.0 57 52 69.8 72.3 29.931 5.37 1.2 366 0.00 0.00 0.00 0.00
09/20/21 9:32:26 AM 125 0.0 6.0 57 52 69.8 72.4 29.934 5.37 1.2 366 0.00 0.00 0.00 0.00
09/20/21 9:33:34 AM 125 0.0 6.0 57 53 69.9 72.5 29.934 5.37 1.2 369 0.00 0.00 0.00 0.00
09/20/21 9:34:27 AM 125 1.0 6.0 57 53 69.9 72.6 29.930 5.37 1.3 371 0.00 0.00 0.00 0.00
09/20/21 9:35:17 AM 126 2.0 6.0 57 53 69.9 72.7 29.930 5.37 1.3 371 0.00 0.00 0.00 0.00
09/20/21 9:36:28 AM 126 0.0 6.0 57 53 69.9 72.9 29.934 5.37 1.3 374 0.00 0.00 0.00 0.00
09/20/21 9:37:20 AM 126 0.0 6.0 57 53 69.9 73.0 29.934 5.37 1.3 378 0.00 0.00 0.00 0.00
09/20/21 9:38:28 AM 125 1.0 6.0 57 53 70.0 73.1 29.931 5.37 1.3 383 0.00 0.00 0.00 0.00
09/20/21 9:39:21 AM 126 2.0 6.0 57 53 70.0 73.2 29.934 5.37 1.3 388 0.00 0.00 0.00 0.00
09/20/21 9:40:32 AM 126 0.0 6.0 57 51 70.0 73.4 29.932 5.37 1.4 394 0.00 0.00 0.00 0.00
09/20/21 9:41:25 AM 126 0.0 6.0 57 51 70.0 73.5 29.934 5.37 1.4 403 0.00 0.00 0.00 0.00
09/20/21 9:42:36 AM 126 1.0 6.0 57 50 70.0 73.6 29.935 5.37 1.4 410 0.00 0.00 0.00 0.00
09/20/21 9:43:23 AM 126 1.0 6.0 57 49 70.0 73.7 29.932 5.37 1.4 417 0.00 0.00 0.00 0.00
09/20/21 9:44:36 AM 126 2.0 6.0 57 49 70.1 73.9 29.932 5.37 1.4 424 0.00 0.00 0.00 0.00
09/20/21 9:45:29 AM 126 0.0 6.0 57 49 70.0 74.0 29.932 5.37 1.4 432 0.00 0.00 0.00 0.00
09/20/21 9:46:22 AM 126 1.0 6.0 57 49 70.1 74.1 29.935 5.37 1.4 445 0.00 0.00 0.00 0.00
09/20/21 9:47:33 AM 126 2.0 6.0 57 48 70.1 74.2 29.936 5.37 1.5 466 0.00 0.00 0.00 0.00
09/20/21 9:48:23 AM 127 2.0 6.0 57 47 70.1 74.3 29.936 5.37 1.5 475 0.00 0.00 0.00 0.00
09/20/21 9:49:30 AM 132 2.0 6.0 57 45 70.1 74.4 29.936 5.37 1.5 485 0.00 0.00 0.00 0.00
09/20/21 9:50:20 AM 133 3.0 6.0 57 45 70.1 74.6 29.938 5.37 1.5 494 0.00 0.00 0.00 0.00
09/20/21 9:51:34 AM 133 1.0 6.0 57 44 70.2 74.6 29.935 5.37 1.5 501 0.00 0.00 0.00 0.00
09/20/21 9:52:24 AM 133 1.0 6.0 57 43 70.2 74.8 29.936 5.37 1.6 504 0.00 0.00 0.00 0.00
09/20/21 9:53:35 AM 134 0.0 6.0 57 44 70.2 74.9 29.935 5.37 1.6 512 0.00 0.00 0.00 0.00
09/20/21 9:54:25 AM 134 2.0 6.0 57 43 70.2 74.9 29.937 5.37 1.6 515 0.00 0.00 0.00 0.00
09/20/21 9:55:17 AM 134 1.0 6.0 57 43 70.2 75.1 29.936 5.37 1.6 519 0.00 0.00 0.00 0.00
09/20/21 9:56:28 AM 134 0.0 6.0 57 42 70.2 75.2 29.936 5.37 1.6 520 0.00 0.00 0.00 0.00
09/20/21 9:57:21 AM 126 4.0 6.0 57 42 70.2 75.3 29.936 5.37 1.7 527 0.00 0.00 0.00 0.00
09/20/21 9:58:32 AM 115 4.0 6.0 57 40 70.3 75.4 29.937 5.37 1.7 527 0.00 0.00 0.00 0.00
09/20/21 9:59:22 AM 115 2.0 6.0 57 41 70.3 75.5 29.938 5.37 1.7 527 0.00 0.00 0.00 0.00
09/20/21 10:00:36 AM 115 1.0 6.0 57 41 70.3 75.6 29.936 5.37 1.7 534 0.00 0.00 0.00 0.00
09/20/21 10:01:26 AM 115 0.0 6.0 57 40 70.3 75.6 29.939 5.37 1.7 534 0.00 0.00 0.00 0.00
09/20/21 10:02:18 AM 114 0.0 6.0 57 41 70.3 75.7 29.941 5.37 1.7 534 0.00 0.00 0.00 0.00
09/20/21 10:03:29 AM 115 0.0 6.0 57 42 70.3 75.8 29.939 5.37 1.7 538 0.00 0.00 0.00 0.00
09/20/21 10:04:19 AM 118 3.0 6.0 57 41 70.4 75.9 29.938 5.37 1.8 543 0.00 0.00 0.00 0.00
09/20/21 10:05:27 AM 118 2.0 6.0 57 40 70.4 76.0 29.939 5.37 1.8 547 0.00 0.00 0.00 0.00
09/20/21 10:06:20 AM 150 4.0 6.0 57 41 70.5 76.1 29.938 5.37 1.8 547 0.00 0.00 0.00 0.00
09/20/21 10:07:34 AM 150 0.0 6.0 57 41 70.4 76.3 29.941 5.37 1.8 550 0.00 0.00 0.00 0.00
09/20/21 10:08:24 AM 150 2.0 6.0 57 42 70.4 76.4 29.941 5.37 1.8 550 0.00 0.00 0.00 0.00
09/20/21 10:09:35 AM 150 1.0 6.0 57 41 70.4 76.6 29.942 5.37 1.9 555 0.00 0.00 0.00 0.00
09/20/21 10:10:21 AM 150 0.0 6.0 57 41 70.4 76.7 29.941 5.37 1.9 559 0.00 0.00 0.00 0.00
09/20/21 10:11:35 AM 173 2.0 6.0 57 42 70.4 76.8 29.940 5.37 1.9 557 0.00 0.00 0.00 0.00
09/20/21 10:12:28 AM 174 2.0 6.0 57 41 70.5 76.9 29.940 5.37 1.9 559 0.00 0.00 0.00 0.00
09/20/21 10:13:18 AM 174 0.0 6.0 57 41 70.5 77.0 29.942 5.37 1.9 559 0.00 0.00 0.00 0.00
09/20/21 10:14:32 AM 174 0.0 6.0 57 41 70.5 77.1 29.941 5.37 1.9 559 0.00 0.00 0.00 0.00
09/20/21 10:15:22 AM 174 0.0 6.0 57 43 70.5 77.3 29.942 5.37 2.0 559 0.00 0.00 0.00 0.00
09/20/21 10:16:33 AM 174 0.0 6.0 57 41 70.5 77.4 29.944 5.37 2.0 571 0.00 0.00 0.00 0.00
09/20/21 10:17:23 AM 177 3.0 6.0 57 41 70.5 77.6 29.942 5.37 2.0 571 0.00 0.00 0.00 0.00
09/20/21 10:18:36 AM 178 3.0 6.0 57 40 70.5 77.8 29.944 5.37 2.0 578 0.00 0.00 0.00 0.00
09/20/21 10:19:26 AM 179 3.0 6.0 57 40 70.5 77.8 29.944 5.37 2.0 580 0.00 0.00 0.00 0.00
09/20/21 10:20:19 AM 179 0.0 6.0 57 40 70.5 77.9 29.943 5.37 2.0 580 0.00 0.00 0.00 0.00
09/20/21 10:21:27 AM 175 6.0 6.0 57 40 70.5 78.0 29.942 5.37 2.1 582 0.00 0.00 0.00 0.00
09/20/21 10:22:35 AM 173 3.0 6.0 57 39 70.5 78.1 29.943 5.37 2.1 585 0.00 0.00 0.00 0.00
09/20/21 10:23:28 AM 173 2.0 6.0 57 38 70.6 78.1 29.943 5.37 2.1 587 0.00 0.00 0.00 0.00
09/20/21 10:24:21 AM 171 1.0 6.0 57 37 70.6 78.1 29.941 5.37 2.1 592 0.00 0.00 0.00 0.00
09/20/21 10:25:32 AM 163 2.0 6.0 57 36 70.6 78.2 29.942 5.37 2.2 596 0.00 0.00 0.00 0.00
09/20/21 10:26:18 AM 162 2.0 6.0 57 36 70.6 78.2 29.943 5.37 2.2 598 0.00 0.00 0.00 0.00
09/20/21 10:27:32 AM 157 5.0 6.0 57 37 70.6 78.3 29.940 5.37 2.2 598 0.00 0.00 0.00 0.00
09/20/21 10:28:22 AM 137 5.0 6.0 57 35 70.6 78.3 29.939 5.37 2.2 601 0.00 0.00 0.00 0.00
09/20/21 10:29:36 AM 135 2.0 6.0 57 35 70.6 78.3 29.941 5.37 2.2 605 0.00 0.00 0.00 0.00
09/20/21 10:30:29 AM 136 1.0 6.0 57 34 70.6 78.4 29.942 5.37 2.2 606 0.00 0.00 0.00 0.00
09/20/21 10:31:16 AM 138 1.0 6.0 57 34 70.7 78.4 29.941 5.37 2.2 605 0.00 0.00 0.00 0.00
09/20/21 10:32:27 AM 138 1.0 6.0 57 35 70.7 78.5 29.940 5.37 2.2 610 0.00 0.00 0.00 0.00
09/20/21 10:33:20 AM 138 1.0 6.0 57 34 70.7 78.5 29.940 5.37 2.3 610 0.00 0.00 0.00 0.00
09/20/21 10:34:31 AM 137 0.0 6.0 57 34 70.7 78.7 29.942 5.37 2.3 615 0.00 0.00 0.00 0.00
09/20/21 10:35:24 AM 137 0.0 6.0 57 35 70.7 78.8 29.941 5.37 2.3 619 0.00 0.00 0.00 0.00
09/20/21 10:36:32 AM 139 1.0 6.0 57 34 70.7 78.9 29.941 5.37 2.3 621 0.00 0.00 0.00 0.00
09/20/21 10:37:25 AM 140 0.0 6.0 57 34 70.8 79.0 29.938 5.37 2.3 619 0.00 0.00 0.00 0.00
09/20/21 10:38:36 AM 91 4.0 6.0 57 34 70.8 79.1 29.939 5.37 2.4 624 0.00 0.00 0.00 0.00
09/20/21 10:39:29 AM 94 0.0 6.0 57 34 70.8 79.2 29.940 5.37 2.4 626 0.00 0.00 0.00 0.00
09/20/21 10:40:21 AM 94 2.0 6.0 57 34 70.8 79.3 29.940 5.37 2.4 628 0.00 0.00 0.00 0.00
09/20/21 10:41:32 AM 97 1.0 6.0 57 35 70.8 79.4 29.941 5.37 2.4 628 0.00 0.00 0.00 0.00
09/20/21 10:42:22 AM 97 2.0 6.0 57 35 70.9 79.5 29.940 5.37 2.4 631 0.00 0.00 0.00 0.00
09/20/21 10:43:33 AM 97 3.0 6.0 57 34 70.9 79.6 29.939 5.37 2.4 631 0.00 0.00 0.00 0.00
09/20/21 10:44:26 AM 104 2.0 6.0 57 34 70.9 79.7 29.939 5.37 2.5 636 0.00 0.00 0.00 0.00
09/20/21 10:45:19 AM 104 0.0 6.0 57 34 71.0 79.8 29.938 5.37 2.5 638 0.00 0.00 0.00 0.00
09/20/21 10:46:30 AM 130 3.0 6.0 57 35 71.0 80.0 29.937 5.37 2.5 642 0.00 0.00 0.00 0.00
09/20/21 10:47:17 AM 157 6.0 6.0 57 34 71.0 80.1 29.936 5.37 2.5 642 0.00 0.00 0.00 0.00
09/20/21 10:48:28 AM 160 2.0 6.0 57 35 71.0 80.2 29.936 5.37 2.5 647 0.00 0.00 0.00 0.00
09/20/21 10:49:21 AM 160 4.0 6.0 57 36 71.0 80.3 29.936 5.37 2.5 647 0.00 0.00 0.00 0.00
09/20/21 10:50:32 AM 178 4.0 6.0 57 34 71.0 80.4 29.935 5.37 2.6 649 0.00 0.00 0.00 0.00
09/20/21 10:51:22 AM 179 3.0 6.0 57 36 71.1 80.4 29.933 5.37 2.6 649 0.00 0.00 0.00 0.00
09/20/21 10:52:30 AM 175 4.0 6.0 57 35 71.1 80.5 29.934 5.37 2.6 649 0.00 0.00 0.00 0.00
09/20/21 10:53:22 AM 170 5.0 6.0 57 34 71.1 80.5 29.934 5.37 2.6 656 0.00 0.00 0.00 0.00
09/20/21 10:54:33 AM 156 2.0 6.0 57 35 71.1 80.6 29.933 5.37 2.7 657 0.00 0.00 0.00 0.00
09/20/21 10:55:26 AM 163 6.0 6.0 57 34 71.1 80.6 29.935 5.37 2.7 659 0.00 0.00 0.00 0.00
09/20/21 10:56:19 AM 164 5.0 6.0 57 35 71.1 80.7 29.937 5.37 2.7 659 0.00 0.00 0.00 0.00
09/20/21 10:57:30 AM 175 4.0 6.0 57 35 71.3 80.7 29.935 5.37 2.7 659 0.00 0.00 0.00 0.00
09/20/21 10:58:17 AM 171 4.0 6.0 57 35 71.2 80.8 29.932 5.37 2.7 661 0.00 0.00 0.00 0.00
09/20/21 10:59:31 AM 165 5.0 6.0 57 34 71.3 80.9 29.932 5.37 2.7 664 0.00 0.00 0.00 0.00
09/20/21 11:00:24 AM 162 1.0 6.0 57 34 71.3 80.9 29.934 5.37 2.7 664 0.00 0.00 0.00 0.00
09/20/21 11:01:35 AM 161 5.0 6.0 57 34 71.3 80.9 29.933 5.37 2.7 673 0.00 0.00 0.00 0.00
09/20/21 11:02:28 AM 161 1.0 6.0 57 33 71.3 81.0 29.933 5.37 2.8 673 0.00 0.00 0.00 0.00
09/20/21 11:03:36 AM 128 4.0 6.0 57 34 71.4 81.1 29.935 5.37 2.8 677 0.00 0.00 0.00 0.00
09/20/21 11:04:25 AM 127 4.0 6.0 57 33 71.4 81.1 29.932 5.37 2.8 675 0.00 0.00 0.00 0.00
09/20/21 11:05:18 AM 126 2.0 6.0 57 33 71.3 81.1 29.935 5.37 2.8 677 0.00 0.00 0.00 0.00
09/20/21 11:06:29 AM 140 1.0 6.0 57 33 71.4 81.1 29.933 5.37 2.8 680 0.00 0.00 0.00 0.00
09/20/21 11:07:22 AM 138 4.0 6.0 57 33 71.4 81.1 29.936 5.37 2.9 682 0.00 0.00 0.00 0.00
09/20/21 11:08:30 AM 135 1.0 6.0 57 33 71.5 81.2 29.934 5.37 2.9 686 0.00 0.00 0.00 0.00
09/20/21 11:09:23 AM 136 1.0 6.0 57 33 71.5 81.2 29.935 5.37 2.9 686 0.00 0.00 0.00 0.00
09/20/21 11:10:34 AM 136 1.0 6.0 57 33 71.5 81.4 29.935 5.37 2.9 689 0.00 0.00 0.00 0.00
09/20/21 11:11:27 AM 143 3.0 6.0 57 33 71.5 81.5 29.934 5.37 2.9 691 0.00 0.00 0.00 0.00
09/20/21 11:12:17 AM 144 4.0 6.0 57 34 71.5 81.6 29.935 5.37 2.9 693 0.00 0.00 0.00 0.00
09/20/21 11:13:31 AM 145 2.0 6.0 57 33 71.5 81.7 29.935 5.37 2.9 693 0.00 0.00 0.00 0.00
09/20/21 11:14:18 AM 144 5.0 6.0 57 33 71.5 81.8 29.937 5.37 2.9 693 0.00 0.00 0.00 0.00
09/20/21 11:15:32 AM 143 4.0 6.0 57 32 71.5 81.9 29.935 5.37 2.9 694 0.00 0.00 0.00 0.00
09/20/21 11:16:22 AM 142 4.0 6.0 57 33 71.5 81.9 29.937 5.37 3.0 696 0.00 0.00 0.00 0.00
09/20/21 11:17:30 AM 142 2.0 6.0 57 33 71.6 82.1 29.935 5.37 3.0 701 0.00 0.00 0.00 0.00
09/20/21 11:18:23 AM 142 1.0 6.0 57 34 71.6 82.2 29.938 5.37 3.0 701 0.00 0.00 0.00 0.00
09/20/21 11:19:31 AM 136 3.0 6.0 57 35 71.6 82.3 29.936 5.37 3.0 705 0.00 0.00 0.00 0.00
09/20/21 11:20:20 AM 135 4.0 6.0 57 33 71.6 82.4 29.936 5.37 3.0 705 0.00 0.00 0.00 0.00
09/20/21 11:21:34 AM 134 3.0 6.0 57 33 71.7 82.5 29.936 5.37 3.1 707 0.00 0.00 0.00 0.00
09/20/21 11:22:27 AM 134 2.0 6.0 57 32 71.7 82.6 29.935 5.37 3.1 712 0.00 0.00 0.00 0.00
09/20/21 11:23:17 AM 128 2.0 6.0 57 32 71.7 82.7 29.937 5.37 3.1 714 0.00 0.00 0.00 0.00
09/20/21 11:24:25 AM 113 2.0 6.0 57 32 71.7 82.7 29.939 5.37 3.1 712 0.00 0.00 0.00 0.00
09/20/21 11:25:18 AM 111 2.0 6.0 57 32 71.7 82.7 29.939 5.37 3.1 715 0.00 0.00 0.00 0.00
09/20/21 11:26:29 AM 105 3.0 6.0 57 32 71.7 82.7 29.938 5.37 3.1 715 0.00 0.00 0.00 0.00
09/20/21 11:27:22 AM 120 3.0 6.0 57 32 71.8 82.7 29.933 5.37 3.1 715 0.00 0.00 0.00 0.00
09/20/21 11:28:33 AM 122 3.0 6.0 57 32 71.8 82.8 29.934 5.37 3.1 717 0.00 0.00 0.00 0.00
09/20/21 11:29:26 AM 123 2.0 6.0 57 32 71.8 82.8 29.934 5.37 3.2 717 0.00 0.00 0.00 0.00
09/20/21 11:30:34 AM 125 2.0 6.0 57 32 71.8 82.9 29.932 5.37 3.2 721 0.00 0.00 0.00 0.00
09/20/21 11:31:24 AM 117 2.0 6.0 57 31 71.9 82.9 29.933 5.37 3.2 721 0.00 0.00 0.00 0.00
09/20/21 11:32:35 AM 117 3.0 6.0 57 31 71.9 83.0 29.934 5.37 3.2 724 0.00 0.00 0.00 0.00
09/20/21 11:33:28 AM 117 3.0 6.0 57 31 71.9 83.0 29.933 5.37 3.2 729 0.00 0.00 0.00 0.00
09/20/21 11:34:21 AM 117 1.0 6.0 57 31 71.9 83.0 29.931 5.37 3.3 731 0.00 0.00 0.00 0.00
09/20/21 11:35:29 AM 117 3.0 6.0 57 31 71.9 83.0 29.930 5.37 3.3 729 0.00 0.00 0.00 0.00
09/20/21 11:36:19 AM 92 3.0 6.0 57 31 72.0 83.1 29.931 5.37 3.3 729 0.00 0.00 0.00 0.00
09/20/21 11:37:33 AM 92 2.0 6.0 57 30 72.0 83.1 29.930 5.37 3.3 733 0.00 0.00 0.00 0.00
09/20/21 11:38:23 AM 92 1.0 6.0 57 31 72.0 83.2 29.930 5.37 3.3 733 0.00 0.00 0.00 0.00
09/20/21 11:39:34 AM 90 2.0 6.0 57 32 72.0 83.3 29.932 5.37 3.4 733 0.00 0.00 0.00 0.00
09/20/21 11:40:24 AM 113 4.0 6.0 57 31 72.1 83.4 29.931 5.37 3.4 738 0.00 0.00 0.00 0.00
09/20/21 11:41:35 AM 121 4.0 6.0 57 31 72.1 83.4 29.930 5.37 3.4 738 0.00 0.00 0.00 0.00
09/20/21 11:42:25 AM 135 3.0 6.0 57 31 72.1 83.3 29.931 5.37 3.4 742 0.00 0.00 0.00 0.00
09/20/21 11:43:17 AM 159 4.0 6.0 57 31 72.1 83.4 29.929 5.37 3.4 744 0.00 0.00 0.00 0.00
09/20/21 11:44:29 AM 115 3.0 6.0 57 31 72.1 83.5 29.931 5.37 3.5 747 0.00 0.00 0.00 0.00
09/20/21 11:45:25 AM 115 2.0 6.0 57 31 72.2 83.5 29.928 5.37 3.5 749 0.00 0.00 0.00 0.00
09/20/21 11:46:30 AM 115 2.0 6.0 57 31 72.2 83.5 29.932 5.37 3.5 751 0.00 0.00 0.00 0.00
09/20/21 11:47:20 AM 115 0.0 6.0 57 32 72.3 83.6 29.929 5.37 3.5 751 0.00 0.00 0.00 0.00
09/20/21 11:48:31 AM 116 3.0 6.0 57 32 72.3 83.7 29.929 5.37 3.5 752 0.00 0.00 0.00 0.00
09/20/21 11:49:24 AM 116 3.0 6.0 57 31 72.3 83.8 29.930 5.37 3.5 752 0.00 0.00 0.00 0.00
09/20/21 11:50:35 AM 96 3.0 6.0 57 31 72.3 84.0 29.931 5.37 3.6 751 0.00 0.00 0.00 0.00
09/20/21 11:51:25 AM 82 3.0 6.0 57 31 72.3 84.1 29.929 5.37 3.6 752 0.00 0.00 0.00 0.00
09/20/21 11:52:18 AM 82 2.0 6.0 57 31 72.3 84.1 29.931 5.37 3.6 754 0.00 0.00 0.00 0.00
09/20/21 11:53:29 AM 113 2.0 6.0 57 31 72.4 84.2 29.929 5.37 3.6 756 0.00 0.00 0.00 0.00
09/20/21 11:54:23 AM 147 4.0 6.0 57 31 72.4 84.2 29.928 5.37 3.7 756 0.00 0.00 0.00 0.00
09/20/21 11:55:34 AM 154 4.0 7.0 57 31 72.4 84.3 29.929 5.37 3.7 759 0.00 0.00 0.00 0.00
09/20/21 11:56:21 AM 154 3.0 7.0 57 31 72.4 84.3 29.929 5.37 3.7 763 0.00 0.00 0.00 0.00
09/20/21 11:57:35 AM 153 1.0 7.0 57 31 72.4 84.4 29.928 5.37 3.7 763 0.00 0.00 0.00 0.00
09/20/21 11:58:25 AM 153 2.0 7.0 57 31 72.4 84.5 29.929 5.37 3.7 765 0.00 0.00 0.00 0.00
09/20/21 11:59:18 AM 153 3.0 7.0 57 31 72.5 84.5 29.929 5.37 3.7 765 0.00 0.00 0.00 0.00
09/20/21 12:00:29 PM 190 4.0 7.0 57 32 72.4 84.8 29.929 5.37 3.8 768 0.00 0.00 0.00 0.00
09/20/21 12:01:19 PM 182 3.0 7.0 57 32 72.5 84.9 29.928 5.37 3.8 768 0.00 0.00 0.00 0.00
09/20/21 12:02:30 PM 161 4.0 7.0 57 31 72.5 85.1 29.928 5.37 3.8 768 0.00 0.00 0.00 0.00
09/20/21 12:03:20 PM 161 4.0 7.0 57 31 72.5 85.1 29.927 5.37 3.8 768 0.00 0.00 0.00 0.00
09/20/21 12:04:31 PM 161 4.0 7.0 57 31 72.5 85.1 29.927 5.37 3.8 768 0.00 0.00 0.00 0.00
09/20/21 12:05:22 PM 161 4.0 7.0 57 31 72.5 85.1 29.928 5.37 3.8 768 0.00 0.00 0.00 0.00
09/20/21 12:07:54 PM 134 4.0 7.0 57 30 72.7 85.8 29.926 5.37 3.8 775 0.00 0.00 0.00 0.00
09/20/21 12:08:26 PM 134 2.0 7.0 57 30 72.7 85.9 29.926 5.37 3.9 775 0.00 0.00 0.00 0.00
09/20/21 12:09:37 PM 135 1.0 7.0 57 31 72.7 86.0 29.926 5.37 3.9 777 0.00 0.00 0.00 0.00
09/20/21 12:10:30 PM 134 0.0 7.0 57 30 72.7 86.1 29.924 5.37 3.9 777 0.00 0.00 0.00 0.00
09/20/21 12:11:23 PM 134 3.0 7.0 57 30 72.6 86.2 29.922 5.37 3.9 777 0.00 0.00 0.00 0.00
09/20/21 12:12:34 PM 132 1.0 7.0 57 31 72.6 86.3 29.923 5.37 3.9 777 0.00 0.00 0.00 0.00
09/20/21 12:13:21 PM 132 2.0 7.0 57 33 72.6 86.5 29.921 5.37 3.9 777 0.00 0.00 0.00 0.00
09/20/21 12:14:32 PM 223 3.0 7.0 57 32 72.6 86.7 29.920 5.37 3.9 780 0.00 0.00 0.00 0.00
09/20/21 12:15:25 PM 224 1.0 7.0 57 30 72.6 86.9 29.921 5.37 3.9 780 0.00 0.00 0.00 0.00
09/20/21 12:16:18 PM 184 4.0 7.0 57 30 72.6 87.0 29.919 5.37 3.9 780 0.00 0.00 0.00 0.00
09/20/21 12:17:29 PM 192 2.0 7.0 57 30 72.7 87.2 29.924 5.37 3.9 782 0.00 0.00 0.00 0.00
09/20/21 12:18:19 PM 192 2.0 7.0 57 30 72.7 87.3 29.920 5.37 4.0 782 0.00 0.00 0.00 0.00
09/20/21 12:19:27 PM 165 5.0 7.0 57 30 72.7 87.4 29.920 5.37 4.0 786 0.00 0.00 0.00 0.00
09/20/21 12:20:17 PM 165 1.0 7.0 57 29 72.7 87.5 29.920 5.37 4.0 788 0.00 0.00 0.00 0.00
09/20/21 12:21:28 PM 162 2.0 7.0 57 29 72.7 87.6 29.919 5.37 4.0 784 0.00 0.00 0.00 0.00
09/20/21 12:22:21 PM 162 1.0 7.0 57 29 72.7 87.6 29.920 5.37 4.0 784 0.00 0.00 0.00 0.00
09/20/21 12:23:32 PM 161 5.0 9.0 57 30 72.7 87.8 29.920 5.37 4.0 782 0.00 0.00 0.00 0.00
09/20/21 12:24:19 PM 159 5.0 9.0 57 30 72.7 87.8 29.921 5.37 4.0 784 0.00 0.00 0.00 0.00
09/20/21 12:25:33 PM 154 1.0 9.0 57 28 72.7 87.9 29.918 5.37 4.0 786 0.00 0.00 0.00 0.00
09/20/21 12:26:23 PM 171 7.0 9.0 57 28 72.8 87.9 29.920 5.37 4.0 788 0.00 0.00 0.00 0.00
09/20/21 12:27:34 PM 178 4.0 9.0 57 29 72.7 87.9 29.917 5.37 4.0 788 0.00 0.00 0.00 0.00
09/20/21 12:28:27 PM 192 6.0 9.0 57 31 72.8 88.0 29.919 5.37 4.0 788 0.00 0.00 0.00 0.00
09/20/21 12:29:35 PM 187 6.0 9.0 57 29 72.8 88.2 29.918 5.37 4.0 789 0.00 0.00 0.00 0.00
09/20/21 12:30:28 PM 185 4.0 9.0 57 28 72.8 88.2 29.917 5.37 4.0 789 0.00 0.00 0.00 0.00
09/20/21 12:31:18 PM 201 3.0 9.0 57 29 72.8 88.3 29.919 5.37 4.0 789 0.00 0.00 0.00 0.00
09/20/21 12:32:32 PM 191 4.0 9.0 57 28 72.8 88.3 29.919 5.37 4.0 788 0.00 0.00 0.00 0.00
09/20/21 12:33:22 PM 182 4.0 9.0 57 28 72.8 88.3 29.916 5.37 4.0 788 0.00 0.00 0.00 0.00
09/20/21 12:34:30 PM 250 4.0 9.0 57 29 72.8 88.4 29.915 5.37 4.0 788 0.00 0.00 0.00 0.00
09/20/21 12:35:23 PM 250 5.0 9.0 57 28 72.9 88.5 29.913 5.37 4.0 788 0.00 0.00 0.00 0.00
09/20/21 12:36:34 PM 249 3.0 9.0 57 28 72.9 88.6 29.914 5.37 4.0 789 0.00 0.00 0.00 0.00
09/20/21 12:37:24 PM 234 3.0 9.0 57 28 72.9 88.7 29.914 5.37 4.0 789 0.00 0.00 0.00 0.00
09/20/21 12:38:35 PM 198 6.0 9.0 57 29 72.9 88.8 29.914 5.37 4.0 789 0.00 0.00 0.00 0.00
09/20/21 12:39:28 PM 188 5.0 9.0 57 29 72.9 88.9 29.911 5.37 4.0 788 0.00 0.00 0.00 0.00
09/20/21 12:40:36 PM 193 5.0 9.0 57 28 72.9 88.9 29.913 5.37 4.0 789 0.00 0.00 0.00 0.00
09/20/21 12:41:26 PM 180 5.0 9.0 57 28 72.9 89.0 29.911 5.37 4.0 789 0.00 0.00 0.00 0.00
09/20/21 12:42:19 PM 231 4.0 9.0 57 28 73.0 89.0 29.911 5.37 4.0 788 0.00 0.00 0.00 0.00
09/20/21 12:43:30 PM 241 4.0 9.0 57 27 73.0 89.2 29.911 5.37 4.0 789 0.00 0.00 0.00 0.00
09/20/21 12:44:20 PM 240 2.0 9.0 57 28 73.0 89.3 29.913 5.37 4.0 789 0.00 0.00 0.00 0.00
09/20/21 12:45:32 PM 244 2.0 9.0 57 27 73.0 89.5 29.910 5.37 4.0 789 0.00 0.00 0.00 0.00
09/20/21 12:46:21 PM 214 6.0 9.0 57 26 73.1 89.5 29.911 5.37 4.0 789 0.00 0.00 0.00 0.00
09/20/21 12:47:33 PM 223 6.0 9.0 57 26 73.1 89.6 29.910 5.37 4.0 791 0.00 0.00 0.00 0.00
09/20/21 12:48:26 PM 228 6.0 9.0 57 27 73.0 89.7 29.909 5.37 4.0 789 0.00 0.00 0.00 0.00
09/20/21 12:49:15 PM 249 5.0 9.0 57 28 73.1 89.7 29.910 5.37 4.0 789 0.00 0.00 0.00 0.00
09/20/21 12:50:27 PM 238 4.0 9.0 57 27 73.1 89.7 29.908 5.37 4.0 786 0.00 0.00 0.00 0.00
09/20/21 12:51:17 PM 220 5.0 9.0 57 27 73.2 89.8 29.910 5.37 4.0 786 0.00 0.00 0.00 0.00
09/20/21 12:52:31 PM 217 9.0 10.0 57 26 73.1 89.8 29.908 5.37 4.0 791 0.00 0.00 0.00 0.00
09/20/21 12:53:24 PM 219 5.0 10.0 57 25 73.2 89.9 29.910 5.37 4.0 791 0.00 0.00 0.00 0.00
09/20/21 12:54:35 PM 218 3.0 10.0 57 27 73.2 89.9 29.908 5.37 4.0 793 0.00 0.00 0.00 0.00
09/20/21 12:55:25 PM 215 3.0 10.0 57 27 73.2 89.9 29.908 5.37 4.0 786 0.00 0.00 0.00 0.00
09/20/21 12:56:33 PM 197 3.0 10.0 57 26 73.2 90.0 29.906 5.37 4.0 786 0.00 0.00 0.00 0.00
09/20/21 12:57:23 PM 194 3.0 10.0 57 28 73.2 90.1 29.906 5.37 4.0 786 0.00 0.00 0.00 0.00
09/20/21 12:58:16 PM 202 6.0 10.0 57 28 73.2 90.3 29.905 5.37 4.0 788 0.00 0.00 0.00 0.00
09/20/21 12:59:27 PM 165 6.0 10.0 57 25 73.2 90.4 29.906 5.37 4.0 788 0.00 0.00 0.00 0.00
09/20/21 1:00:20 PM 204 5.0 10.0 57 25 73.2 90.5 29.906 5.37 4.0 788 0.00 0.00 0.00 0.00
09/20/21 1:01:31 PM 251 5.0 10.0 57 26 73.3 90.6 29.903 5.37 4.0 789 0.00 0.00 0.00 0.00
09/20/21 1:02:24 PM 223 5.0 10.0 57 24 73.3 90.8 29.903 5.37 4.0 789 0.00 0.00 0.00 0.00
09/20/21 1:03:32 PM 220 7.0 10.0 57 24 73.3 90.8 29.904 5.37 4.0 784 0.00 0.00 0.00 0.00
09/20/21 1:04:25 PM 249 5.0 10.0 57 24 73.3 90.9 29.905 5.37 4.0 784 0.00 0.00 0.00 0.00
09/20/21 1:05:18 PM 194 7.0 10.0 57 24 73.3 91.0 29.903 5.37 4.0 784 0.00 0.00 0.00 0.00
09/20/21 1:06:26 PM 191 4.0 10.0 57 24 73.3 91.1 29.904 5.37 4.0 786 0.00 0.00 0.00 0.00
09/20/21 1:07:16 PM 225 7.0 10.0 57 24 73.3 91.1 29.905 5.37 4.0 784 0.00 0.00 0.00 0.00
09/20/21 1:08:27 PM 195 4.0 10.0 57 23 73.3 91.1 29.903 5.37 4.0 782 0.00 0.00 0.00 0.00
09/20/21 1:09:17 PM 208 5.0 10.0 57 25 73.3 91.3 29.902 5.37 3.9 780 0.00 0.00 0.00 0.00
09/20/21 1:10:28 PM 179 6.0 10.0 57 23 73.3 91.3 29.900 5.37 3.9 779 0.00 0.00 0.00 0.00
09/20/21 1:11:21 PM 194 6.0 10.0 57 23 73.3 91.4 29.903 5.37 3.9 782 0.00 0.00 0.00 0.00
09/20/21 1:12:30 PM 186 5.0 10.0 57 26 73.3 91.5 29.902 5.37 3.9 782 0.00 0.00 0.00 0.00
09/20/21 1:13:20 PM 191 5.0 10.0 57 23 73.3 91.6 29.902 5.37 4.0 786 0.00 0.00 0.00 0.00
09/20/21 1:14:34 PM 182 6.0 10.0 57 23 73.3 91.7 29.900 5.37 4.0 784 0.00 0.00 0.00 0.00
09/20/21 1:15:27 PM 198 4.0 10.0 57 23 73.4 91.8 29.899 5.37 3.9 782 0.00 0.00 0.00 0.00
09/20/21 1:16:17 PM 202 3.0 10.0 57 23 73.4 91.9 29.900 5.37 3.9 779 0.00 0.00 0.00 0.00
09/20/21 1:17:25 PM 204 2.0 10.0 57 23 73.4 91.9 29.899 5.37 3.9 780 0.00 0.00 0.00 0.00
09/20/21 1:18:36 PM 205 3.0 10.0 57 23 73.4 92.1 29.898 5.37 3.9 777 0.00 0.00 0.00 0.00
09/20/21 1:19:26 PM 211 4.0 10.0 57 24 73.4 92.3 29.897 5.37 3.9 779 0.00 0.00 0.00 0.00
09/20/21 1:20:19 PM 309 2.0 10.0 57 23 73.4 92.4 29.897 5.37 3.9 780 0.00 0.00 0.00 0.00
09/20/21 1:21:30 PM 267 8.0 10.0 57 21 73.4 92.4 29.898 5.37 4.0 782 0.00 0.00 0.00 0.00
09/20/21 1:22:17 PM 257 5.0 10.0 57 20 73.5 92.4 29.895 5.37 4.0 784 0.00 0.00 0.00 0.00
09/20/21 1:23:28 PM 227 5.0 10.0 57 19 73.5 92.5 29.894 5.37 4.0 784 0.00 0.00 0.00 0.00
09/20/21 1:24:21 PM 261 7.0 10.0 57 19 73.5 92.5 29.897 5.37 4.0 782 0.00 0.00 0.00 0.00
09/20/21 1:25:32 PM 229 5.0 10.0 57 19 73.5 92.6 29.897 5.37 4.0 780 0.00 0.00 0.00 0.00
09/20/21 1:26:25 PM 306 4.0 10.0 57 19 73.5 92.6 29.896 5.37 4.0 780 0.00 0.00 0.00 0.00
09/20/21 1:27:15 PM 289 8.0 10.0 57 19 73.5 92.7 29.893 5.37 4.0 780 0.00 0.00 0.00 0.00
09/20/21 1:28:24 PM 300 5.0 12.0 57 18 73.6 92.8 29.891 5.37 4.0 779 0.00 0.00 0.00 0.00
09/20/21 1:29:38 PM 301 9.0 12.0 57 18 73.6 92.8 29.889 5.37 3.9 777 0.00 0.00 0.00 0.00
09/20/21 1:30:31 PM 302 8.0 12.0 57 18 73.6 92.8 29.888 5.37 3.9 777 0.00 0.00 0.00 0.00
09/20/21 1:31:21 PM 296 4.0 12.0 57 19 73.7 92.8 29.888 5.37 4.0 775 0.00 0.00 0.00 0.00
09/20/21 1:32:32 PM 292 8.0 15.0 57 19 73.7 93.0 29.892 5.37 3.9 773 0.00 0.00 0.00 0.00
09/20/21 1:33:19 PM 288 8.0 15.0 57 19 73.7 93.1 29.889 5.37 3.9 773 0.00 0.00 0.00 0.00
09/20/21 1:34:33 PM 236 5.0 15.0 57 18 73.7 93.1 29.891 5.37 3.9 775 0.00 0.00 0.00 0.00
09/20/21 1:35:23 PM 325 10.0 15.0 57 18 73.7 93.3 29.888 5.37 3.9 775 0.00 0.00 0.00 0.00
09/20/21 1:36:34 PM 297 9.0 15.0 57 17 73.8 93.3 29.888 5.37 3.9 775 0.00 0.00 0.00 0.00
09/20/21 1:37:27 PM 308 12.0 15.0 57 18 73.7 93.3 29.888 5.37 3.9 775 0.00 0.00 0.00 0.00
09/20/21 1:38:35 PM 302 7.0 15.0 57 17 73.8 93.3 29.888 5.37 3.9 773 0.00 0.00 0.00 0.00
09/20/21 1:39:25 PM 277 9.0 15.0 57 17 73.8 93.3 29.888 5.37 3.9 772 0.00 0.00 0.00 0.00
09/20/21 1:40:18 PM 302 7.0 15.0 57 17 73.8 93.4 29.888 5.37 3.9 770 0.00 0.00 0.00 0.00
09/20/21 1:41:30 PM 290 4.0 15.0 57 17 73.8 93.5 29.887 5.37 3.9 770 0.00 0.00 0.00 0.00
09/20/21 1:42:20 PM 272 4.0 15.0 57 17 73.8 93.5 29.889 5.37 3.9 770 0.00 0.00 0.00 0.00
09/20/21 1:43:28 PM 282 9.0 15.0 57 18 73.8 93.6 29.889 5.37 3.9 768 0.00 0.00 0.00 0.00
09/20/21 1:44:21 PM 296 4.0 15.0 57 17 73.9 93.7 29.888 5.37 3.8 768 0.00 0.00 0.00 0.00
09/20/21 1:45:35 PM 290 8.0 15.0 57 17 73.9 93.8 29.888 5.37 3.9 768 0.00 0.00 0.00 0.00
09/20/21 1:46:25 PM 303 7.0 15.0 57 17 73.9 93.8 29.888 5.37 3.9 768 0.00 0.00 0.00 0.00
09/20/21 1:47:18 PM 277 4.0 15.0 57 17 74.0 93.8 29.888 5.37 3.8 768 0.00 0.00 0.00 0.00
09/20/21 1:48:29 PM 305 8.0 15.0 57 17 74.0 93.8 29.890 5.37 3.8 766 0.00 0.00 0.00 0.00
09/20/21 1:49:37 PM 306 10.0 15.0 57 17 74.0 93.9 29.886 5.37 3.8 763 0.00 0.00 0.00 0.00
09/20/21 1:50:27 PM 288 11.0 15.0 57 17 74.0 94.0 29.887 5.37 3.8 761 0.00 0.00 0.00 0.00
09/20/21 1:51:20 PM 297 10.0 15.0 57 17 74.0 94.0 29.889 5.37 3.8 759 0.00 0.00 0.00 0.00
09/20/21 1:52:31 PM 293 5.0 15.0 57 16 74.0 94.0 29.890 5.37 3.8 759 0.00 0.00 0.00 0.00
09/20/21 1:53:21 PM 230 4.0 15.0 57 17 74.1 94.1 29.887 5.37 3.7 758 0.00 0.00 0.00 0.00
09/20/21 1:54:29 PM 236 5.0 15.0 57 17 74.0 94.2 29.887 5.37 3.7 756 0.00 0.00 0.00 0.00
09/20/21 1:55:22 PM 254 9.0 15.0 57 17 74.0 94.3 29.889 5.37 3.8 759 0.00 0.00 0.00 0.00
09/20/21 1:56:34 PM 238 4.0 15.0 57 18 74.0 94.4 29.889 5.37 3.7 759 0.00 0.00 0.00 0.00
09/20/21 1:57:27 PM 245 7.0 15.0 57 17 74.0 94.5 29.887 5.37 3.7 758 0.00 0.00 0.00 0.00
09/20/21 1:58:20 PM 266 7.0 15.0 57 17 74.0 94.5 29.889 5.37 3.7 758 0.00 0.00 0.00 0.00
09/20/21 1:59:25 PM 288 7.0 15.0 57 17 74.1 94.6 29.888 5.37 3.7 756 0.00 0.00 0.00 0.00
09/20/21 2:00:21 PM 302 4.0 15.0 57 17 74.1 94.6 29.888 5.37 3.7 756 0.00 0.00 0.00 0.00
09/20/21 2:01:32 PM 301 4.0 15.0 57 17 74.1 94.7 29.887 5.37 3.7 751 0.00 0.00 0.00 0.00
09/20/21 2:02:25 PM 280 8.0 15.0 57 17 74.1 94.7 29.887 5.37 3.7 751 0.00 0.00 0.00 0.00
09/20/21 2:03:36 PM 317 5.0 15.0 57 16 74.1 94.7 29.888 5.37 3.7 751 0.00 0.00 0.00 0.00
09/20/21 2:04:26 PM 274 6.0 15.0 57 16 74.1 94.7 29.887 5.37 3.7 747 0.00 0.00 0.00 0.00
09/20/21 2:05:34 PM 277 4.0 15.0 57 16 74.1 94.8 29.885 5.37 3.6 747 0.00 0.00 0.00 0.00
09/20/21 2:06:24 PM 298 5.0 15.0 57 16 74.1 94.9 29.886 5.37 3.6 744 0.00 0.00 0.00 0.00
09/20/21 2:07:17 PM 313 3.0 15.0 57 16 74.1 95.0 29.887 5.37 3.6 742 0.00 0.00 0.00 0.00
09/20/21 2:08:28 PM 297 3.0 15.0 57 16 74.2 95.1 29.885 5.37 3.5 742 0.00 0.00 0.00 0.00
09/20/21 2:09:18 PM 303 4.0 15.0 57 17 74.2 95.2 29.888 5.37 3.5 731 0.00 0.00 0.00 0.00
09/20/21 2:10:26 PM 230 8.0 15.0 57 17 74.1 95.3 29.885 5.37 3.5 731 0.00 0.00 0.00 0.00
09/20/21 2:11:19 PM 222 8.0 15.0 57 21 74.2 95.4 29.886 5.37 3.5 737 0.00 0.00 0.00 0.00
09/20/21 2:12:31 PM 221 4.0 15.0 57 20 74.2 95.4 29.885 5.37 3.5 737 0.00 0.00 0.00 0.00
09/20/21 2:13:21 PM 223 9.0 15.0 57 20 74.2 95.4 29.885 5.37 3.5 735 0.00 0.00 0.00 0.00
09/20/21 2:14:32 PM 217 4.0 15.0 57 21 74.3 95.4 29.885 5.37 3.4 728 0.00 0.00 0.00 0.00
09/20/21 2:15:22 PM 232 5.0 15.0 57 21 74.3 95.4 29.881 5.37 3.4 728 0.00 0.00 0.00 0.00
09/20/21 2:16:33 PM 200 7.0 15.0 57 20 74.3 95.3 29.884 5.37 3.4 724 0.00 0.00 0.00 0.00
09/20/21 2:17:29 PM 186 7.0 15.0 57 20 74.3 95.3 29.881 5.37 3.4 724 0.00 0.00 0.00 0.00
09/20/21 2:18:22 PM 213 5.0 15.0 57 20 74.3 95.3 29.884 5.37 3.3 724 0.00 0.00 0.00 0.00
09/20/21 2:19:30 PM 196 5.0 15.0 57 20 74.3 95.3 29.885 5.37 3.3 719 0.00 0.00 0.00 0.00
09/20/21 2:20:23 PM 219 6.0 15.0 57 18 74.4 95.2 29.883 5.37 3.3 715 0.00 0.00 0.00 0.00
09/20/21 2:21:32 PM 211 11.0 15.0 57 20 74.4 95.2 29.882 5.37 3.3 710 0.00 0.00 0.00 0.00
09/20/21 2:22:22 PM 189 7.0 15.0 57 21 74.4 95.2 29.885 5.37 3.2 712 0.00 0.00 0.00 0.00
09/20/21 2:23:33 PM 244 9.0 15.0 57 22 74.4 95.1 29.883 5.37 3.2 710 0.00 0.00 0.00 0.00
09/20/21 2:24:23 PM 220 10.0 15.0 57 21 74.4 95.1 29.884 5.37 3.2 710 0.00 0.00 0.00 0.00
09/20/21 2:25:35 PM 230 7.0 15.0 57 21 74.5 95.0 29.883 5.37 3.2 710 0.00 0.00 0.00 0.00
09/20/21 2:26:25 PM 237 12.0 15.0 57 21 74.6 95.0 29.882 5.37 3.2 707 0.00 0.00 0.00 0.00
09/20/21 2:27:15 PM 202 9.0 15.0 57 22 74.5 94.9 29.881 5.37 3.2 703 0.00 0.00 0.00 0.00
09/20/21 2:28:29 PM 202 8.0 15.0 57 22 74.6 95.0 29.883 5.37 3.1 705 0.00 0.00 0.00 0.00
09/20/21 2:29:19 PM 193 11.0 16.0 57 23 74.5 94.9 29.886 5.37 3.1 703 0.00 0.00 0.00 0.00
09/20/21 2:30:34 PM 201 6.0 16.0 57 23 74.6 94.8 29.883 5.37 3.1 703 0.00 0.00 0.00 0.00
09/20/21 2:31:21 PM 223 9.0 16.0 57 24 74.6 94.8 29.884 5.37 3.1 700 0.00 0.00 0.00 0.00
09/20/21 2:32:32 PM 219 9.0 16.0 57 22 74.6 94.7 29.885 5.37 3.1 694 0.00 0.00 0.00 0.00
09/20/21 2:33:25 PM 194 11.0 16.0 57 24 74.6 94.7 29.883 5.37 3.1 691 0.00 0.00 0.00 0.00
09/20/21 2:34:36 PM 188 10.0 16.0 57 23 74.6 94.7 29.881 5.37 3.1 693 0.00 0.00 0.00 0.00
09/20/21 2:35:26 PM 205 13.0 16.0 57 22 74.6 94.6 29.880 5.37 3.1 693 0.00 0.00 0.00 0.00
09/20/21 2:36:19 PM 201 13.0 16.0 57 22 74.6 94.5 29.885 5.37 3.1 694 0.00 0.00 0.00 0.00
09/20/21 2:37:25 PM 212 9.0 16.0 57 22 74.7 94.4 29.882 5.37 3.0 693 0.00 0.00 0.00 0.00
09/20/21 2:38:36 PM 214 11.0 16.0 57 22 74.6 94.2 29.882 5.37 3.0 689 0.00 0.00 0.00 0.00
09/20/21 2:39:26 PM 222 10.0 16.0 57 22 74.6 94.1 29.883 5.37 3.0 687 0.00 0.00 0.00 0.00
09/20/21 2:40:19 PM 212 7.0 16.0 57 22 74.6 94.0 29.881 5.37 2.9 680 0.00 0.00 0.00 0.00
09/20/21 2:41:31 PM 203 5.0 16.0 57 22 74.7 94.0 29.881 5.37 2.9 675 0.00 0.00 0.00 0.00
09/20/21 2:42:17 PM 207 7.0 16.0 57 22 74.6 94.0 29.884 5.37 2.9 682 0.00 0.00 0.00 0.00
09/20/21 2:43:29 PM 203 6.0 16.0 57 22 74.7 94.0 29.884 5.37 2.9 682 0.00 0.00 0.00 0.00
09/20/21 2:44:22 PM 216 4.0 16.0 57 23 74.6 94.0 29.882 5.37 2.9 677 0.00 0.00 0.00 0.00
09/20/21 2:45:36 PM 226 6.0 16.0 57 22 74.6 94.1 29.881 5.37 2.9 677 0.00 0.00 0.00 0.00
09/20/21 2:46:26 PM 232 5.0 16.0 57 21 74.7 94.1 29.882 5.37 2.9 673 0.00 0.00 0.00 0.00
09/20/21 2:47:34 PM 242 8.0 16.0 57 23 74.7 94.2 29.882 5.37 2.8 664 0.00 0.00 0.00 0.00
09/20/21 2:48:24 PM 215 9.0 16.0 57 23 74.7 94.3 29.881 5.37 2.8 666 0.00 0.00 0.00 0.00
09/20/21 2:49:35 PM 205 5.0 16.0 57 23 74.7 94.4 29.881 5.37 2.8 663 0.00 0.00 0.00 0.00
09/20/21 2:50:25 PM 239 6.0 16.0 57 23 74.7 94.4 29.881 5.37 2.8 663 0.00 0.00 0.00 0.00
09/20/21 2:51:18 PM 215 7.0 16.0 57 23 74.7 94.5 29.882 5.37 2.7 656 0.00 0.00 0.00 0.00
09/20/21 2:52:23 PM 200 8.0 16.0 57 22 74.7 94.6 29.882 5.37 2.7 657 0.00 0.00 0.00 0.00
09/20/21 2:53:38 PM 201 8.0 16.0 57 23 74.7 94.6 29.883 5.37 2.7 652 0.00 0.00 0.00 0.00
09/20/21 2:54:28 PM 225 5.0 16.0 57 23 74.7 94.6 29.881 5.37 2.7 654 0.00 0.00 0.00 0.00
09/20/21 2:55:18 PM 238 8.0 16.0 57 22 74.7 94.6 29.882 5.37 2.7 652 0.00 0.00 0.00 0.00
09/20/21 2:56:29 PM 237 11.0 16.0 57 23 74.8 94.6 29.884 5.37 2.7 650 0.00 0.00 0.00 0.00
09/20/21 2:57:22 PM 214 8.0 16.0 57 23 74.8 94.6 29.882 5.37 2.7 654 0.00 0.00 0.00 0.00
09/20/21 2:58:30 PM 239 5.0 16.0 57 22 74.8 94.5 29.882 5.37 2.6 652 0.00 0.00 0.00 0.00
09/20/21 2:59:20 PM 232 5.0 16.0 57 22 74.8 94.5 29.882 5.37 2.6 645 0.00 0.00 0.00 0.00
09/20/21 3:00:37 PM 203 9.0 16.0 57 22 74.8 94.5 29.884 5.37 2.6 640 0.00 0.00 0.00 0.00
09/20/21 3:01:28 PM 209 11.0 16.0 57 22 74.8 94.5 29.883 5.37 2.5 638 0.00 0.00 0.00 0.00
09/20/21 3:02:21 PM 217 9.0 16.0 57 22 74.8 94.4 29.885 5.37 2.5 636 0.00 0.00 0.00 0.00
09/20/21 3:03:26 PM 242 5.0 16.0 57 22 74.9 94.4 29.883 5.37 2.5 626 0.00 0.00 0.00 0.00
09/20/21 3:04:20 PM 252 5.0 16.0 57 23 74.8 94.3 29.884 5.37 2.5 626 0.00 0.00 0.00 0.00
09/20/21 3:05:31 PM 264 7.0 16.0 57 23 74.9 94.2 29.883 5.37 2.4 624 0.00 0.00 0.00 0.00
09/20/21 3:06:21 PM 222 6.0 16.0 57 23 74.9 94.2 29.883 5.37 2.4 621 0.00 0.00 0.00 0.00
09/20/21 3:07:35 PM 252 5.0 16.0 57 22 74.9 94.1 29.883 5.37 2.4 619 0.00 0.00 0.00 0.00
09/20/21 3:08:22 PM 242 9.0 16.0 57 23 74.9 94.1 29.881 5.37 2.4 619 0.00 0.00 0.00 0.00
09/20/21 3:09:34 PM 259 4.0 16.0 57 23 74.9 94.0 29.882 5.37 2.4 613 0.00 0.00 0.00 0.00
09/20/21 3:10:24 PM 251 2.0 16.0 57 23 74.9 94.0 29.880 5.37 2.3 610 0.00 0.00 0.00 0.00
09/20/21 3:11:17 PM 236 4.0 16.0 57 23 74.9 94.0 29.881 5.37 2.3 606 0.00 0.00 0.00 0.00
09/20/21 3:12:28 PM 257 8.0 16.0 57 24 75.0 94.0 29.882 5.37 2.3 603 0.00 0.00 0.00 0.00
09/20/21 3:13:22 PM 284 8.0 16.0 57 24 75.0 94.0 29.881 5.37 2.3 603 0.00 0.00 0.00 0.00
09/20/21 3:14:30 PM 229 1.0 16.0 57 24 75.0 93.9 29.882 5.37 2.2 598 0.00 0.00 0.00 0.00
09/20/21 3:15:23 PM 192 7.0 16.0 57 24 75.1 94.0 29.881 5.37 2.2 594 0.00 0.00 0.00 0.00
09/20/21 3:16:31 PM 215 8.0 16.0 57 24 75.1 94.0 29.882 5.37 2.2 592 0.00 0.00 0.00 0.00
09/20/21 3:17:22 PM 215 6.0 16.0 57 23 75.0 94.0 29.881 5.37 2.2 591 0.00 0.00 0.00 0.00
09/20/21 3:18:36 PM 213 8.0 16.0 57 23 75.1 94.0 29.880 5.37 2.2 589 0.00 0.00 0.00 0.00
09/20/21 3:19:23 PM 224 10.0 16.0 57 24 75.1 94.0 29.878 5.37 2.2 587 0.00 0.00 0.00 0.00
09/20/21 3:20:34 PM 242 9.0 16.0 57 24 75.1 94.0 29.878 5.37 2.2 584 0.00 0.00 0.00 0.00
09/20/21 3:21:25 PM 269 4.0 16.0 57 24 75.1 94.0 29.879 5.37 2.1 580 0.00 0.00 0.00 0.00
09/20/21 3:22:18 PM 189 8.0 16.0 57 24 75.1 94.0 29.880 5.37 2.1 578 0.00 0.00 0.00 0.00
09/20/21 3:23:29 PM 225 10.0 16.0 57 25 75.1 94.0 29.880 5.37 2.1 573 0.00 0.00 0.00 0.00
09/20/21 3:24:38 PM 214 6.0 16.0 57 24 75.1 94.0 29.882 5.37 2.1 571 0.00 0.00 0.00 0.00
09/20/21 3:25:28 PM 274 9.0 16.0 57 24 75.1 94.0 29.880 5.37 2.1 568 0.00 0.00 0.00 0.00
09/20/21 3:26:18 PM 261 8.0 16.0 57 25 75.1 93.9 29.879 5.37 2.0 566 0.00 0.00 0.00 0.00
09/20/21 3:27:29 PM 221 6.0 16.0 57 25 75.2 93.9 29.879 5.37 2.0 564 0.00 0.00 0.00 0.00
09/20/21 3:28:23 PM 252 4.0 16.0 57 25 75.2 93.9 29.879 5.37 2.0 561 0.00 0.00 0.00 0.00
09/20/21 3:29:16 PM 217 5.0 16.0 57 25 75.2 93.9 29.878 5.37 2.0 557 0.00 0.00 0.00 0.00
09/20/21 3:30:27 PM 227 7.0 16.0 57 25 75.1 94.0 29.879 5.37 2.0 555 0.00 0.00 0.00 0.00
09/20/21 3:31:36 PM 234 11.0 16.0 57 25 75.2 94.0 29.879 5.37 1.9 555 0.00 0.00 0.00 0.00
09/20/21 3:32:26 PM 226 5.0 16.0 57 25 75.2 94.0 29.879 5.37 1.9 554 0.00 0.00 0.00 0.00
09/20/21 3:33:19 PM 239 4.0 16.0 57 25 75.1 93.9 29.877 5.37 1.9 554 0.00 0.00 0.00 0.00
09/20/21 3:34:30 PM 280 3.0 16.0 57 25 75.2 93.8 29.877 5.37 1.9 547 0.00 0.00 0.00 0.00
09/20/21 3:35:18 PM 265 6.0 16.0 57 24 75.2 93.8 29.875 5.37 1.9 545 0.00 0.00 0.00 0.00
09/20/21 3:36:29 PM 242 5.0 16.0 57 24 75.2 93.7 29.877 5.37 1.8 538 0.00 0.00 0.00 0.00
09/20/21 3:37:22 PM 242 4.0 16.0 57 25 75.2 93.7 29.877 5.37 1.8 534 0.00 0.00 0.00 0.00
09/20/21 3:38:31 PM 219 5.0 16.0 57 24 75.2 93.7 29.878 5.37 1.8 533 0.00 0.00 0.00 0.00
09/20/21 3:39:24 PM 229 7.0 16.0 57 26 75.2 93.7 29.877 5.37 1.8 531 0.00 0.00 0.00 0.00
09/20/21 3:40:32 PM 227 4.0 16.0 57 25 75.2 93.6 29.879 5.37 1.8 529 0.00 0.00 0.00 0.00
09/20/21 3:41:22 PM 240 4.0 16.0 57 25 75.2 93.6 29.877 5.37 1.7 526 0.00 0.00 0.00 0.00
09/20/21 3:42:37 PM 300 4.0 16.0 57 24 75.3 93.6 29.876 5.37 1.7 524 0.00 0.00 0.00 0.00
09/20/21 3:43:27 PM 252 9.0 16.0 57 25 75.3 93.6 29.876 5.37 1.7 519 0.00 0.00 0.00 0.00
09/20/21 3:44:20 PM 257 2.0 16.0 57 25 75.3 93.5 29.877 5.37 1.7 517 0.00 0.00 0.00 0.00
09/20/21 3:45:32 PM 270 6.0 16.0 57 25 75.2 93.5 29.877 5.37 1.7 517 0.00 0.00 0.00 0.00
09/20/21 3:46:19 PM 250 5.0 16.0 57 26 75.3 93.5 29.876 5.37 1.7 517 0.00 0.00 0.00 0.00
09/20/21 3:47:34 PM 240 4.0 16.0 57 25 75.3 93.5 29.876 5.37 1.7 510 0.00 0.00 0.00 0.00
09/20/21 3:48:24 PM 238 3.0 16.0 57 25 75.3 93.5 29.875 5.37 1.6 506 0.00 0.00 0.00 0.00
09/20/21 3:49:17 PM 244 4.0 16.0 57 25 75.3 93.4 29.877 5.37 1.6 506 0.00 0.00 0.00 0.00
09/20/21 3:50:32 PM 242 4.0 16.0 57 25 75.3 93.5 29.876 5.37 1.6 501 0.00 0.00 0.00 0.00
09/20/21 3:51:19 PM 222 6.0 16.0 57 25 75.3 93.4 29.877 5.37 1.6 499 0.00 0.00 0.00 0.00
09/20/21 3:52:30 PM 245 7.0 16.0 57 25 75.4 93.4 29.877 5.37 1.5 496 0.00 0.00 0.00 0.00
09/20/21 3:53:21 PM 215 9.0 16.0 57 25 75.3 93.4 29.877 5.37 1.5 494 0.00 0.00 0.00 0.00
09/20/21 3:54:32 PM 226 5.0 16.0 57 25 75.4 93.3 29.876 5.37 1.5 492 0.00 0.00 0.00 0.00
09/20/21 3:55:23 PM 234 5.0 16.0 57 26 75.4 93.3 29.878 5.37 1.5 489 0.00 0.00 0.00 0.00
09/20/21 3:56:31 PM 239 4.0 16.0 57 26 75.4 93.2 29.879 5.37 1.5 489 0.00 0.00 0.00 0.00
09/20/21 3:57:21 PM 255 8.0 16.0 57 26 75.4 93.2 29.877 5.37 1.5 482 0.00 0.00 0.00 0.00
09/20/21 3:58:33 PM 213 8.0 16.0 57 27 75.4 93.3 29.876 5.37 1.4 480 0.00 0.00 0.00 0.00
09/20/21 3:59:24 PM 216 6.0 16.0 57 26 75.5 93.3 29.880 5.37 1.4 476 0.00 0.00 0.00 0.00
09/20/21 4:00:38 PM 236 5.0 16.0 57 26 75.4 93.2 29.877 5.37 1.4 471 0.00 0.00 0.00 0.00
09/20/21 4:01:22 PM 221 9.0 16.0 57 25 75.4 93.3 29.877 5.37 1.4 471 0.00 0.00 0.00 0.00
09/20/21 4:02:37 PM 208 6.0 16.0 57 25 75.5 93.2 29.876 5.37 1.4 464 0.00 0.00 0.00 0.00
09/20/21 4:03:30 PM 222 9.0 16.0 57 26 75.5 93.2 29.877 5.37 1.4 461 0.00 0.00 0.00 0.00
09/20/21 4:04:21 PM 239 5.0 16.0 57 27 75.5 93.2 29.873 5.37 1.3 461 0.00 0.00 0.00 0.00
09/20/21 4:05:32 PM 226 6.0 16.0 57 26 75.5 93.1 29.876 5.37 1.3 455 0.00 0.00 0.00 0.00
09/20/21 4:06:23 PM 291 5.0 16.0 57 26 75.5 93.1 29.879 5.37 1.3 454 0.00 0.00 0.00 0.00
09/20/21 4:07:34 PM 222 4.0 16.0 57 26 75.5 93.0 29.878 5.37 1.3 450 0.00 0.00 0.00 0.00
09/20/21 4:08:24 PM 252 4.0 16.0 57 26 75.5 93.0 29.879 5.37 1.3 448 0.00 0.00 0.00 0.00
09/20/21 4:09:36 PM 252 3.0 16.0 57 26 75.6 93.0 29.879 5.37 1.3 445 0.00 0.00 0.00 0.00
09/20/21 4:10:26 PM 223 6.0 16.0 57 26 75.5 92.9 29.877 5.37 1.3 443 0.00 0.00 0.00 0.00
09/20/21 4:11:19 PM 230 5.0 16.0 57 27 75.6 92.9 29.879 5.37 1.2 439 0.00 0.00 0.00 0.00
09/20/21 4:12:28 PM 252 4.0 16.0 57 26 75.6 92.9 29.878 5.37 1.2 436 0.00 0.00 0.00 0.00
09/20/21 4:13:18 PM 205 7.0 16.0 57 26 75.6 92.9 29.882 5.37 1.2 432 0.00 0.00 0.00 0.00
09/20/21 4:14:29 PM 207 7.0 16.0 57 26 75.6 92.8 29.878 5.37 1.2 429 0.00 0.00 0.00 0.00
09/20/21 4:15:23 PM 202 5.0 16.0 57 26 75.6 92.8 29.879 5.37 1.2 425 0.00 0.00 0.00 0.00
09/20/21 4:16:34 PM 225 6.0 16.0 57 26 75.6 92.8 29.879 5.37 1.2 424 0.00 0.00 0.00 0.00
09/20/21 4:17:21 PM 295 10.0 16.0 57 26 75.6 92.7 29.879 5.37 1.2 424 0.00 0.00 0.00 0.00
09/20/21 4:18:33 PM 246 9.0 16.0 57 25 75.6 92.6 29.878 5.37 1.1 418 0.00 0.00 0.00 0.00
09/20/21 4:19:26 PM 250 8.0 16.0 57 25 75.6 92.5 29.880 5.37 1.1 417 0.00 0.00 0.00 0.00
09/20/21 4:20:16 PM 255 4.0 16.0 57 25 75.7 92.5 29.877 5.37 1.1 413 0.00 0.00 0.00 0.00
09/20/21 4:21:28 PM 252 5.0 16.0 57 26 75.6 92.4 29.877 5.37 1.1 413 0.00 0.00 0.00 0.00
09/20/21 4:22:18 PM 219 3.0 16.0 57 26 75.6 92.4 29.880 5.37 1.1 406 0.00 0.00 0.00 0.00
09/20/21 4:23:27 PM 250 5.0 16.0 57 25 75.6 92.4 29.881 5.37 1.0 403 0.00 0.00 0.00 0.00
09/20/21 4:24:20 PM 251 0.0 16.0 57 25 75.6 92.4 29.879 5.37 1.0 399 0.00 0.00 0.00 0.00
09/20/21 4:25:31 PM 308 8.0 16.0 57 26 75.7 92.4 29.879 5.37 1.0 397 0.00 0.00 0.00 0.00
09/20/21 4:26:22 PM 284 3.0 16.0 57 26 75.6 92.4 29.881 5.37 1.0 394 0.00 0.00 0.00 0.00
09/20/21 4:27:33 PM 256 3.0 16.0 57 25 75.7 92.4 29.879 5.37 1.0 390 0.00 0.00 0.00 0.00
09/20/21 4:28:20 PM 217 4.0 16.0 57 27 75.7 92.4 29.881 5.37 1.0 390 0.00 0.00 0.00 0.00
09/20/21 4:29:32 PM 234 5.0 16.0 57 25 75.7 92.4 29.882 5.37 1.0 385 0.00 0.00 0.00 0.00
09/20/21 4:30:25 PM 234 3.0 16.0 57 26 75.6 92.4 29.881 5.37 0.9 381 0.00 0.00 0.00 0.00
09/20/21 4:31:37 PM 234 3.0 16.0 57 26 75.6 92.4 29.881 5.37 0.9 376 0.00 0.00 0.00 0.00
09/20/21 4:32:27 PM 268 4.0 16.0 57 26 75.7 92.4 29.883 5.37 0.9 374 0.00 0.00 0.00 0.00
09/20/21 4:33:35 PM 214 3.0 16.0 57 26 75.7 92.4 29.882 5.37 0.9 371 0.00 0.00 0.00 0.00
09/20/21 4:34:29 PM 254 7.0 16.0 57 27 75.7 92.4 29.882 5.37 0.9 367 0.00 0.00 0.00 0.00
09/20/21 4:35:19 PM 288 2.0 16.0 57 27 75.7 92.4 29.879 5.37 0.9 364 0.00 0.00 0.00 0.00
09/20/21 4:36:33 PM 241 5.0 16.0 57 27 75.7 92.4 29.883 5.37 0.8 362 0.00 0.00 0.00 0.00
09/20/21 4:37:24 PM 239 1.0 16.0 57 27 75.7 92.5 29.882 5.37 0.8 360 0.00 0.00 0.00 0.00
09/20/21 4:38:17 PM 296 3.0 16.0 57 27 75.7 92.5 29.882 5.37 0.8 357 0.00 0.00 0.00 0.00
09/20/21 4:39:22 PM 285 2.0 16.0 57 27 75.7 92.5 29.882 5.37 0.8 353 0.00 0.00 0.00 0.00
09/20/21 4:40:34 PM 286 4.0 16.0 57 26 75.7 92.5 29.882 5.37 0.8 350 0.00 0.00 0.00 0.00
09/20/21 4:41:27 PM 228 3.0 16.0 57 26 75.7 92.5 29.882 5.37 0.8 346 0.00 0.00 0.00 0.00
09/20/21 4:42:21 PM 242 5.0 16.0 57 26 75.7 92.5 29.884 5.37 0.8 343 0.00 0.00 0.00 0.00
09/20/21 4:43:32 PM 242 4.0 16.0 57 26 75.8 92.5 29.883 5.37 0.8 341 0.00 0.00 0.00 0.00
09/20/21 4:44:20 PM 229 5.0 16.0 57 26 75.7 92.4 29.881 5.37 0.8 338 0.00 0.00 0.00 0.00
09/20/21 4:45:34 PM 238 5.0 16.0 57 26 75.8 92.4 29.883 5.37 0.7 334 0.00 0.00 0.00 0.00
09/20/21 4:46:25 PM 232 2.0 16.0 57 27 75.8 92.4 29.881 5.37 0.7 330 0.00 0.00 0.00 0.00
09/20/21 4:47:36 PM 296 3.0 16.0 57 26 75.8 92.3 29.880 5.37 0.7 323 0.00 0.00 0.00 0.00
09/20/21 4:48:26 PM 262 6.0 16.0 57 26 75.8 92.3 29.882 5.37 0.7 320 0.00 0.00 0.00 0.00
09/20/21 4:49:35 PM 288 3.0 16.0 57 26 75.8 92.2 29.883 5.37 0.7 316 0.00 0.00 0.00 0.00
09/20/21 4:50:25 PM 288 3.0 16.0 57 27 75.9 92.2 29.884 5.37 0.7 313 0.00 0.00 0.00 0.00
09/20/21 4:51:15 PM 277 7.0 16.0 57 27 75.9 92.1 29.884 5.37 0.7 313 0.00 0.00 0.00 0.00
09/20/21 4:52:30 PM 281 3.0 16.0 57 26 75.9 92.1 29.884 5.37 0.6 308 0.00 0.00 0.00 0.00
09/20/21 4:53:20 PM 266 4.0 16.0 57 27 75.9 92.0 29.886 5.37 0.6 302 0.00 0.00 0.00 0.00
09/20/21 4:54:29 PM 310 4.0 16.0 57 26 75.9 92.0 29.884 5.37 0.6 301 0.00 0.00 0.00 0.00
09/20/21 4:55:19 PM 281 6.0 16.0 57 27 75.9 91.9 29.885 5.37 0.6 299 0.00 0.00 0.00 0.00
09/20/21 4:56:34 PM 297 3.0 16.0 57 27 75.8 91.8 29.884 5.37 0.6 295 0.00 0.00 0.00 0.00
09/20/21 4:57:24 PM 236 6.0 16.0 57 27 75.9 91.8 29.883 5.37 0.6 294 0.00 0.00 0.00 0.00
09/20/21 4:58:35 PM 237 2.0 16.0 57 27 75.9 91.7 29.885 5.37 0.6 290 0.00 0.00 0.00 0.00
09/20/21 4:59:26 PM 257 5.0 16.0 57 27 75.9 91.7 29.884 5.37 0.6 287 0.00 0.00 0.00 0.00
09/20/21 5:00:37 PM 224 6.0 16.0 57 26 75.9 91.7 29.885 5.37 0.6 281 0.00 0.00 0.00 0.00
09/20/21 5:01:28 PM 282 4.0 16.0 57 26 76.0 91.7 29.882 5.37 0.6 281 0.00 0.00 0.00 0.00
09/20/21 5:02:21 PM 265 10.0 16.0 57 27 75.9 91.6 29.884 5.37 0.5 278 0.00 0.00 0.00 0.00
09/20/21 5:03:32 PM 248 4.0 16.0 57 26 75.9 91.5 29.883 5.37 0.5 271 0.00 0.00 0.00 0.00
09/20/21 5:04:23 PM 236 4.0 16.0 57 27 75.9 91.5 29.882 5.37 0.5 269 0.00 0.00 0.00 0.00
09/20/21 5:05:31 PM 259 2.0 16.0 57 26 75.9 91.4 29.883 5.37 0.5 269 0.00 0.00 0.00 0.00
09/20/21 5:06:21 PM 253 3.0 16.0 57 26 76.0 91.3 29.884 5.37 0.5 262 0.00 0.00 0.00 0.00
09/20/21 5:07:36 PM 299 2.0 16.0 57 27 76.0 91.3 29.882 5.37 0.5 260 0.00 0.00 0.00 0.00
09/20/21 5:08:26 PM 237 10.0 16.0 57 27 75.9 91.3 29.882 5.37 0.5 257 0.00 0.00 0.00 0.00
09/20/21 5:09:16 PM 263 7.0 16.0 57 27 75.9 91.2 29.884 5.37 0.5 253 0.00 0.00 0.00 0.00
09/20/21 5:10:25 PM 259 7.0 16.0 57 27 76.0 91.1 29.882 5.37 0.0 251 0.00 0.00 0.00 0.00
09/20/21 5:11:36 PM 278 6.0 16.0 57 27 76.0 91.1 29.882 5.37 0.0 250 0.00 0.00 0.00 0.00
09/20/21 5:12:30 PM 269 3.0 16.0 57 27 76.0 91.0 29.882 5.37 0.0 246 0.00 0.00 0.00 0.00
09/20/21 5:13:20 PM 246 5.0 16.0 57 27 76.0 91.0 29.880 5.37 0.0 243 0.00 0.00 0.00 0.00
09/20/21 5:14:32 PM 244 3.0 16.0 57 27 76.0 90.9 29.884 5.37 0.0 243 0.00 0.00 0.00 0.00
09/20/21 5:15:25 PM 221 5.0 16.0 57 27 75.9 90.9 29.883 5.37 0.0 236 0.00 0.00 0.00 0.00
09/20/21 5:16:31 PM 234 2.0 16.0 57 27 75.9 90.8 29.883 5.37 0.0 230 0.00 0.00 0.00 0.00
09/20/21 5:17:24 PM 236 4.0 16.0 57 28 76.0 90.7 29.883 5.37 0.0 230 0.00 0.00 0.00 0.00
09/20/21 5:18:36 PM 225 4.0 16.0 57 27 76.0 90.6 29.885 5.37 0.0 223 0.00 0.00 0.00 0.00
09/20/21 5:19:29 PM 236 4.0 16.0 57 28 76.0 90.6 29.884 5.37 0.0 220 0.00 0.00 0.00 0.00
09/20/21 5:20:19 PM 234 4.0 16.0 57 27 76.0 90.5 29.882 5.37 0.0 218 0.00 0.00 0.00 0.00
09/20/21 5:21:28 PM 221 7.0 16.0 57 27 76.0 90.5 29.885 5.37 0.0 214 0.00 0.00 0.00 0.00
09/20/21 5:22:22 PM 227 4.0 16.0 57 27 76.0 90.4 29.883 5.37 0.0 213 0.00 0.00 0.00 0.00
09/20/21 5:23:33 PM 224 4.0 16.0 57 27 75.9 90.4 29.886 5.37 0.0 209 0.00 0.00 0.00 0.00
09/20/21 5:24:27 PM 242 3.0 16.0 57 27 76.0 90.4 29.882 5.37 0.0 206 0.00 0.00 0.00 0.00
09/20/21 5:25:17 PM 238 4.0 16.0 57 27 76.0 90.3 29.884 5.37 0.0 202 0.00 0.00 0.00 0.00
09/20/21 5:26:26 PM 233 6.0 16.0 57 28 76.0 90.3 29.884 5.37 0.0 200 0.00 0.00 0.00 0.00
09/20/21 5:27:16 PM 230 5.0 16.0 57 28 76.0 90.3 29.886 5.37 0.0 197 0.00 0.00 0.00 0.00
09/20/21 5:28:28 PM 229 3.0 16.0 57 28 76.0 90.2 29.885 5.37 0.0 193 0.00 0.00 0.00 0.00
09/20/21 5:29:18 PM 265 3.0 16.0 57 27 76.0 90.2 29.886 5.37 0.0 190 0.00 0.00 0.00 0.00
09/20/21 5:30:33 PM 229 3.0 16.0 57 28 76.0 90.1 29.886 5.37 0.0 186 0.00 0.00 0.00 0.00
09/20/21 5:31:20 PM 253 4.0 16.0 57 27 76.0 90.1 29.885 5.37 0.0 183 0.00 0.00 0.00 0.00
09/20/21 5:32:28 PM 213 7.0 16.0 57 28 76.0 90.1 29.886 5.37 0.0 176 0.00 0.00 0.00 0.00
09/20/21 5:34:43 PM 218 4.0 16.0 57 29 76.1 90.0 29.886 5.37 0.0 169 0.00 0.00 0.00 0.00
09/20/21 5:35:34 PM 225 5.0 16.0 57 28 76.0 89.9 29.888 5.37 0.0 165 0.00 0.00 0.00 0.00
09/20/21 5:36:27 PM 242 4.0 16.0 57 28 76.1 89.9 29.886 5.37 0.0 165 0.00 0.00 0.00 0.00
09/20/21 5:37:17 PM 235 5.0 16.0 57 28 76.1 89.9 29.888 5.37 0.0 160 0.00 0.00 0.00 0.00
09/20/21 5:38:23 PM 226 6.0 16.0 57 28 76.1 89.8 29.888 5.37 0.0 160 0.00 0.00 0.00 0.00
09/20/21 5:39:37 PM 232 4.0 16.0 57 28 76.2 89.8 29.887 5.37 0.0 160 0.00 0.00 0.00 0.00
09/20/21 5:40:28 PM 232 4.0 16.0 57 28 76.1 89.8 29.885 5.37 0.0 160 0.00 0.00 0.00 0.00
09/20/21 5:41:18 PM 232 4.0 16.0 57 28 76.2 89.8 29.886 5.37 0.0 160 0.00 0.00 0.00 0.00
09/20/21 5:42:30 PM 232 4.0 16.0 57 28 76.2 89.8 29.886 5.37 0.0 160 0.00 0.00 0.00 0.00
09/20/21 5:43:20 PM 232 4.0 16.0 57 28 76.2 89.8 29.886 5.37 0.0 160 0.00 0.00 0.00 0.00
09/20/21 5:45:05 PM 232 4.0 16.0 57 28 76.4 89.8 29.887 5.37 0.0 160 0.00 0.00 0.00 0.00
09/20/21 5:46:14 PM 232 4.0 16.0 57 28 76.5 89.8 29.888 5.37 0.0 160 0.00 0.00 0.00 0.00
09/20/21 5:46:45 PM 232 4.0 16.0 57 28 76.5 89.8 29.890 5.37 0.0 160 0.00 0.00 0.00 0.00
09/20/21 5:47:36 PM 232 4.0 16.0 57 28 76.5 89.8 29.890 5.37 0.0 160 0.00 0.00 0.00 0.00
09/20/21 5:48:26 PM 232 4.0 16.0 57 28 76.6 89.8 29.889 5.37 0.0 160 0.00 0.00 0.00 0.00
09/20/21 5:49:20 PM 223 6.0 16.0 57 28 76.6 89.3 29.887 5.37 0.0 160 0.00 0.00 0.00 0.00
09/20/21 5:50:25 PM 224 5.0 16.0 57 28 76.6 89.3 29.888 5.37 0.0 114 0.00 0.00 0.00 0.00
09/20/21 5:51:15 PM 226 2.0 16.0 57 29 76.5 89.2 29.890 5.37 0.0 111 0.00 0.00 0.00 0.00
09/20/21 5:52:30 PM 225 2.0 16.0 57 29 76.5 89.1 29.889 5.37 0.0 107 0.00 0.00 0.00 0.00
09/20/21 5:53:20 PM 232 5.0 16.0 57 29 76.5 89.1 29.890 5.37 0.0 105 0.00 0.00 0.00 0.00
09/20/21 5:54:32 PM 222 3.0 16.0 57 29 76.4 89.0 29.892 5.37 0.0 102 0.00 0.00 0.00 0.00
09/20/21 5:55:16 PM 222 3.0 16.0 57 29 76.4 89.0 29.888 5.37 0.0 100 0.00 0.00 0.00 0.00
09/20/21 5:56:31 PM 259 2.0 16.0 57 29 76.4 89.0 29.891 5.37 0.0 97 0.00 0.00 0.00 0.00
09/20/21 5:57:21 PM 259 1.0 16.0 57 29 76.4 88.9 29.890 5.37 0.0 93 0.00 0.00 0.00 0.00
09/20/21 5:58:32 PM 259 0.0 16.0 57 29 76.3 88.9 29.892 5.37 0.0 91 0.00 0.00 0.00 0.00
09/20/21 5:59:25 PM 259 2.0 16.0 57 29 76.4 88.9 29.891 5.37 0.0 91 0.00 0.00 0.00 0.00
09/20/21 6:00:36 PM 243 4.0 16.0 57 29 76.3 88.9 29.891 5.37 0.0 84 0.00 0.00 0.00 0.00
09/20/21 6:01:24 PM 244 3.0 16.0 57 29 76.3 88.9 29.892 5.37 0.0 83 0.00 0.00 0.00 0.00
09/20/21 6:02:17 PM 244 4.0 16.0 57 29 76.3 88.9 29.895 5.37 0.0 79 0.00 0.00 0.00 0.00
09/20/21 6:03:29 PM 223 4.0 16.0 57 29 76.2 88.8 29.893 5.37 0.0 76 0.00 0.00 0.00 0.00
09/20/21 6:04:19 PM 223 4.0 16.0 57 29 76.2 88.7 29.896 5.37 0.0 72 0.00 0.00 0.00 0.00
09/20/21 6:05:31 PM 225 3.0 16.0 57 29 76.2 88.6 29.895 5.37 0.0 70 0.00 0.00 0.00 0.00
09/20/21 6:06:21 PM 231 1.0 16.0 57 29 76.2 88.6 29.894 5.37 0.0 67 0.00 0.00 0.00 0.00
09/20/21 6:07:33 PM 233 3.0 16.0 57 29 76.2 88.5 29.896 5.37 0.0 62 0.00 0.00 0.00 0.00
09/20/21 6:08:26 PM 233 1.0 16.0 57 29 76.2 88.4 29.899 5.37 0.0 54 0.00 0.00 0.00 0.00
09/20/21 6:09:37 PM 234 1.0 16.0 57 30 76.2 88.4 29.896 5.37 0.0 54 0.00 0.00 0.00 0.00
09/20/21 6:10:28 PM 238 0.0 16.0 57 30 76.2 88.4 29.895 5.37 0.0 39 0.00 0.00 0.00 0.00
09/20/21 6:11:35 PM 238 1.0 16.0 57 30 76.2 88.3 29.899 5.37 0.0 35 0.00 0.00 0.00 0.00
09/20/21 6:12:29 PM 238 1.0 16.0 57 30 76.2 88.2 29.896 5.37 0.0 35 0.00 0.00 0.00 0.00
09/20/21 6:13:19 PM 238 0.0 16.0 57 30 76.2 88.2 29.897 5.37 0.0 33 0.00 0.00 0.00 0.00
09/20/21 6:14:30 PM 238 0.0 16.0 57 30 76.2 88.1 29.897 5.37 0.0 33 0.00 0.00 0.00 0.00
09/20/21 6:15:23 PM 238 1.0 16.0 57 30 76.2 88.1 29.898 5.37 0.0 32 0.00 0.00 0.00 0.00
09/20/21 6:16:32 PM 241 3.0 16.0 57 30 76.2 88.1 29.899 5.37 0.0 30 0.00 0.00 0.00 0.00
09/20/21 6:17:22 PM 275 4.0 16.0 57 30 76.2 88.1 29.899 5.37 0.0 30 0.00 0.00 0.00 0.00
09/20/21 6:18:34 PM 240 3.0 16.0 57 30 76.2 88.0 29.900 5.37 0.0 28 0.00 0.00 0.00 0.00
09/20/21 6:19:27 PM 240 2.0 16.0 57 30 76.2 87.9 29.899 5.37 0.0 28 0.00 0.00 0.00 0.00
09/20/21 6:20:18 PM 276 7.0 16.0 57 30 76.2 87.9 29.901 5.37 0.0 26 0.00 0.00 0.00 0.00
09/20/21 6:21:30 PM 244 3.0 16.0 57 30 76.2 87.8 29.899 5.37 0.0 26 0.00 0.00 0.00 0.00
09/20/21 6:22:17 PM 244 1.0 16.0 57 30 76.2 87.7 29.901 5.37 0.0 26 0.00 0.00 0.00 0.00
09/20/21 6:23:29 PM 244 3.0 16.0 57 30 76.2 87.7 29.901 5.37 0.0 25 0.00 0.00 0.00 0.00
09/20/21 6:24:19 PM 244 2.0 16.0 57 30 76.2 87.6 29.903 5.37 0.0 25 0.00 0.00 0.00 0.00
09/20/21 6:25:30 PM 270 2.0 16.0 57 30 76.2 87.5 29.902 5.37 0.0 23 0.00 0.00 0.00 0.00
09/20/21 6:26:24 PM 240 2.0 16.0 57 30 76.2 87.5 29.902 5.37 0.0 23 0.00 0.00 0.00 0.00
09/20/21 6:27:33 PM 240 1.0 16.0 57 30 76.2 87.4 29.902 5.37 0.0 23 0.00 0.00 0.00 0.00
09/20/21 6:28:23 PM 242 3.0 16.0 57 31 76.2 87.4 29.905 5.37 0.0 21 0.00 0.00 0.00 0.00
09/20/21 6:29:34 PM 261 4.0 16.0 57 30 76.2 87.3 29.906 5.37 0.0 19 0.00 0.00 0.00 0.00
09/20/21 6:30:31 PM 261 4.0 16.0 57 30 76.2 87.2 29.903 5.37 0.0 19 0.00 0.00 0.00 0.00
09/20/21 6:31:21 PM 262 2.0 16.0 57 31 76.3 87.1 29.904 5.37 0.0 18 0.00 0.00 0.00 0.00
09/20/21 6:32:30 PM 262 2.0 16.0 57 31 76.2 87.0 29.905 5.37 0.0 16 0.00 0.00 0.00 0.00
09/20/21 6:33:21 PM 262 3.0 16.0 57 31 76.2 87.0 29.906 5.37 0.0 16 0.00 0.00 0.00 0.00
09/20/21 6:34:32 PM 263 2.0 16.0 57 31 76.2 86.9 29.905 5.37 0.0 14 0.00 0.00 0.00 0.00
09/20/21 6:35:26 PM 263 3.0 16.0 57 31 76.2 86.8 29.906 5.37 0.0 14 0.00 0.00 0.00 0.00
09/20/21 6:36:19 PM 263 2.0 16.0 57 31 76.2 86.8 29.906 5.37 0.0 12 0.00 0.00 0.00 0.00
09/20/21 6:37:31 PM 262 0.0 16.0 57 31 76.2 86.6 29.906 5.37 0.0 12 0.00 0.00 0.00 0.00
09/20/21 6:38:16 PM 263 1.0 16.0 57 31 76.2 86.6 29.908 5.37 0.0 11 0.00 0.00 0.00 0.00
09/20/21 6:39:30 PM 263 0.0 16.0 57 31 76.2 86.5 29.909 5.37 0.0 11 0.00 0.00 0.00 0.00
09/20/21 6:40:18 PM 263 0.0 16.0 57 31 76.2 86.5 29.908 5.37 0.0 11 0.00 0.00 0.00 0.00
09/20/21 6:41:30 PM 263 0.0 16.0 57 31 76.2 86.4 29.909 5.37 0.0 9 0.00 0.00 0.00 0.00
09/20/21 6:42:20 PM 263 0.0 16.0 57 31 76.2 86.4 29.909 5.37 0.0 7 0.00 0.00 0.00 0.00
09/20/21 6:43:29 PM 263 1.0 16.0 57 32 76.2 86.3 29.911 5.37 0.0 7 0.00 0.00 0.00 0.00
09/20/21 6:44:19 PM 263 1.0 16.0 57 32 76.2 86.2 29.910 5.37 0.0 7 0.00 0.00 0.00 0.00
09/20/21 6:45:34 PM 262 0.0 16.0 57 32 76.2 86.1 29.910 5.37 0.0 5 0.00 0.00 0.00 0.00
09/20/21 6:46:24 PM 262 0.0 16.0 57 32 76.2 86.1 29.910 5.37 0.0 5 0.00 0.00 0.00 0.00
09/20/21 6:47:36 PM 262 0.0 16.0 57 32 76.2 86.1 29.913 5.37 0.0 0 0.00 0.00 0.00 0.00
09/20/21 6:48:23 PM 262 0.0 16.0 57 32 76.2 86.0 29.912 5.37 0.0 0 0.00 0.00 0.00 0.00
09/20/21 6:49:35 PM 262 0.0 16.0 57 32 76.1 86.0 29.912 5.37 0.0 0 0.00 0.00 0.00 0.00
09/20/21 6:50:25 PM 262 0.0 16.0 57 32 76.1 85.9 29.913 5.37 0.0 0 0.00 0.00 0.00 0.00
09/20/21 6:51:19 PM 262 0.0 16.0 57 32 76.1 85.9 29.911 5.37 0.0 0 0.00 0.00 0.00 0.00
09/20/21 6:52:30 PM 262 0.0 16.0 57 32 76.2 85.8 29.912 5.37 0.0 0 0.00 0.00 0.00 0.00
09/20/21 6:53:21 PM 263 0.0 16.0 57 32 76.2 85.7 29.912 5.37 0.0 0 0.00 0.00 0.00 0.00
09/20/21 6:54:29 PM 262 0.0 16.0 57 33 76.1 85.7 29.914 5.37 0.0 0 0.00 0.00 0.00 0.00
09/20/21 6:55:20 PM 263 0.0 16.0 57 33 76.1 85.6 29.913 5.37 0.0 0 0.00 0.00 0.00 0.00
09/20/21 6:56:32 PM 263 0.0 16.0 57 33 76.1 85.5 29.913 5.37 0.0 0 0.00 0.00 0.00 0.00
09/20/21 6:57:22 PM 263 0.0 16.0 57 33 76.1 85.4 29.914 5.37 0.0 0 0.00 0.00 0.00 0.00
09/20/21 6:58:34 PM 263 1.0 16.0 57 33 76.1 85.3 29.914 5.37 0.0 0 0.00 0.00 0.00 0.00
09/20/21 6:59:21 PM 263 1.0 16.0 57 33 76.0 85.3 29.915 5.37 0.0 0 0.00 0.00 0.00 0.00
09/20/21 7:00:33 PM 263 1.0 16.0 57 33 76.1 85.2 29.914 5.37 0.0 0 0.00 0.00 0.00 0.00
09/20/21 7:01:23 PM 263 0.0 16.0 57 33 76.1 85.1 29.915 5.37 0.0 0 0.00 0.00 0.00 0.00
09/20/21 7:02:35 PM 263 1.0 16.0 57 33 76.1 85.0 29.916 5.37 0.0 0 0.00 0.00 0.00 0.00
09/20/21 7:03:29 PM 263 0.0 16.0 57 34 76.0 85.0 29.915 5.37 0.0 0 0.00 0.00 0.00 0.00
09/20/21 7:04:34 PM 263 0.0 16.0 57 34 76.1 84.9 29.916 5.37 0.0 0 0.00 0.00 0.00 0.00
09/20/21 7:05:28 PM 263 0.0 16.0 57 34 76.0 84.9 29.916 5.37 0.0 0 0.00 0.00 0.00 0.00
09/20/21 7:06:21 PM 263 0.0 16.0 57 34 76.1 84.8 29.918 5.37 0.0 0 0.00 0.00 0.00 0.00
09/20/21 7:07:33 PM 263 0.0 16.0 57 34 76.1 84.7 29.914 5.37 0.0 0 0.00 0.00 0.00 0.00
09/20/21 7:08:24 PM 263 0.0 16.0 57 34 76.0 84.7 29.914 5.37 0.0 0 0.00 0.00 0.00 0.00
09/20/21 7:09:32 PM 263 0.0 16.0 57 34 76.0 84.6 29.914 5.37 0.0 0 0.00 0.00 0.00 0.00
09/20/21 7:10:26 PM 263 0.0 16.0 57 34 76.0 84.5 29.914 5.37 0.0 0 0.00 0.00 0.00 0.00
09/20/21 7:11:16 PM 263 0.0 16.0 57 34 76.0 84.5 29.917 5.37 0.0 0 0.00 0.00 0.00 0.00
09/20/21 7:12:34 PM 263 0.0 16.0 57 35 76.0 84.4 29.915 5.37 0.0 0 0.00 0.00 0.00 0.00
09/20/21 7:13:25 PM 264 0.0 16.0 57 35 76.0 84.3 29.916 5.37 0.0 0 0.00 0.00 0.00 0.00
09/20/21 7:14:36 PM 254 2.0 16.0 57 35 76.0 84.2 29.917 5.37 0.0 0 0.00 0.00 0.00 0.00
09/20/21 7:15:24 PM 254 0.0 16.0 57 35 76.0 84.1 29.918 5.37 0.0 0 0.00 0.00 0.00 0.00
09/20/21 7:16:36 PM 254 0.0 16.0 57 35 76.0 84.0 29.920 5.37 0.0 0 0.00 0.00 0.00 0.00
09/20/21 7:17:26 PM 254 0.0 16.0 57 35 76.0 84.0 29.920 5.37 0.0 0 0.00 0.00 0.00 0.00
09/20/21 7:18:20 PM 254 0.0 16.0 57 35 76.0 83.9 29.920 5.37 0.0 0 0.00 0.00 0.00 0.00
09/20/21 7:19:31 PM 254 0.0 16.0 57 35 76.0 83.8 29.919 5.37 0.0 0 0.00 0.00 0.00 0.00
09/20/21 7:20:19 PM 254 0.0 16.0 57 35 76.0 83.7 29.920 5.37 0.0 0 0.00 0.00 0.00 0.00
09/20/21 7:21:31 PM 254 0.0 16.0 57 35 76.0 83.6 29.922 5.37 0.0 0 0.00 0.00 0.00 0.00
09/20/21 7:22:24 PM 254 0.0 16.0 57 35 76.0 83.6 29.921 5.37 0.0 0 0.00 0.00 0.00 0.00
09/20/21 7:23:18 PM 254 0.0 16.0 57 35 76.0 83.5 29.921 5.37 0.0 0 0.00 0.00 0.00 0.00
09/20/21 7:24:29 PM 254 2.0 16.0 57 35 76.0 83.3 29.922 5.37 0.0 0 0.00 0.00 0.00 0.00
09/20/21 7:25:20 PM 254 1.0 16.0 57 35 76.0 83.2 29.923 5.37 0.0 0 0.00 0.00 0.00 0.00
09/20/21 7:26:29 PM 254 0.0 16.0 57 36 76.0 83.1 29.925 5.37 0.0 0 0.00 0.00 0.00 0.00
09/20/21 7:27:19 PM 254 0.0 16.0 57 36 76.0 83.1 29.923 5.37 0.0 0 0.00 0.00 0.00 0.00
09/20/21 7:28:31 PM 254 0.0 16.0 57 36 76.0 83.0 29.925 5.37 0.0 0 0.00 0.00 0.00 0.00
09/20/21 7:29:24 PM 254 0.0 16.0 57 36 76.0 82.9 29.925 5.37 0.0 0 0.00 0.00 0.00 0.00
09/20/21 7:30:36 PM 254 0.0 16.0 57 36 76.0 82.9 29.927 5.37 0.0 0 0.00 0.00 0.00 0.00
09/20/21 7:31:21 PM 254 1.0 16.0 57 36 76.0 82.8 29.924 5.37 0.0 0 0.00 0.00 0.00 0.00
09/20/21 7:32:32 PM 254 0.0 16.0 57 36 75.9 82.7 29.925 5.37 0.0 0 0.00 0.00 0.00 0.00
09/20/21 7:33:26 PM 254 0.0 16.0 57 36 76.0 82.7 29.928 5.37 0.0 0 0.00 0.00 0.00 0.00
09/20/21 7:34:16 PM 254 1.0 16.0 57 36 76.0 82.6 29.928 5.37 0.0 0 0.00 0.00 0.00 0.00
09/20/21 7:35:28 PM 254 0.0 16.0 57 37 75.9 82.5 29.928 5.37 0.0 0 0.00 0.00 0.00 0.00
09/20/21 7:36:37 PM 254 0.0 16.0 57 37 75.9 82.5 29.928 5.37 0.0 0 0.00 0.00 0.00 0.00
09/20/21 7:37:24 PM 254 0.0 16.0 57 37 75.9 82.5 29.928 5.37 0.0 0 0.00 0.00 0.00 0.00
09/20/21 7:38:18 PM 254 0.0 16.0 57 36 75.9 82.4 29.930 5.37 0.0 0 0.00 0.00 0.00 0.00
09/20/21 7:39:30 PM 254 0.0 16.0 57 36 75.9 82.4 29.928 5.37 0.0 0 0.00 0.00 0.00 0.00
09/20/21 7:40:20 PM 254 1.0 16.0 57 36 75.9 82.3 29.931 5.37 0.0 0 0.00 0.00 0.00 0.00
09/20/21 7:41:29 PM 254 0.0 16.0 57 37 75.9 82.3 29.931 5.37 0.0 0 0.00 0.00 0.00 0.00
09/20/21 7:42:20 PM 254 0.0 16.0 57 37 75.9 82.2 29.931 5.37 0.0 0 0.00 0.00 0.00 0.00
09/20/21 7:43:31 PM 254 0.0 16.0 57 37 75.9 82.1 29.930 5.37 0.0 0 0.00 0.00 0.00 0.00
09/20/21 7:44:22 PM 254 0.0 16.0 57 37 75.9 82.1 29.931 5.37 0.0 0 0.00 0.00 0.00 0.00
09/20/21 7:45:37 PM 254 0.0 16.0 57 37 75.8 82.0 29.930 5.37 0.0 0 0.00 0.00 0.00 0.00
09/20/21 7:46:27 PM 254 0.0 16.0 57 37 75.8 81.9 29.932 5.37 0.0 0 0.00 0.00 0.00 0.00
09/20/21 7:47:33 PM 254 0.0 16.0 57 37 75.8 81.9 29.932 5.37 0.0 0 0.00 0.00 0.00 0.00
09/20/21 7:48:24 PM 254 0.0 16.0 57 37 75.8 81.8 29.933 5.37 0.0 0 0.00 0.00 0.00 0.00
09/20/21 7:49:36 PM 254 0.0 16.0 57 37 75.8 81.8 29.934 5.37 0.0 0 0.00 0.00 0.00 0.00
09/20/21 7:51:21 PM 254 0.0 16.0 57 37 75.8 81.7 29.935 5.37 0.0 0 0.00 0.00 0.00 0.00
09/20/21 7:52:26 PM 254 0.0 16.0 57 37 75.8 81.6 29.934 5.37 0.0 0 0.00 0.00 0.00 0.00
09/20/21 7:53:17 PM 254 0.0 16.0 57 37 75.8 81.6 29.935 5.37 0.0 0 0.00 0.00 0.00 0.00
09/20/21 7:54:29 PM 254 0.0 16.0 57 38 75.8 81.5 29.937 5.37 0.0 0 0.00 0.00 0.00 0.00
09/20/21 7:55:19 PM 254 0.0 16.0 57 37 75.7 81.5 29.938 5.37 0.0 0 0.00 0.00 0.00 0.00
09/20/21 7:56:34 PM 254 0.0 16.0 57 38 75.7 81.4 29.935 5.37 0.0 0 0.00 0.00 0.00 0.00
09/20/21 7:57:22 PM 254 0.0 16.0 57 38 75.8 81.3 29.937 5.37 0.0 0 0.00 0.00 0.00 0.00
09/20/21 7:58:30 PM 254 0.0 16.0 57 38 75.8 81.2 29.939 5.37 0.0 0 0.00 0.00 0.00 0.00
09/20/21 7:59:24 PM 254 0.0 16.0 57 38 75.7 81.2 29.938 5.37 0.0 0 0.00 0.00 0.00 0.00
09/20/21 8:00:36 PM 254 0.0 16.0 57 38 75.8 81.1 29.938 5.37 0.0 0 0.00 0.00 0.00 0.00
09/20/21 8:01:26 PM 254 0.0 16.0 57 38 75.7 81.1 29.943 5.37 0.0 0 0.00 0.00 0.00 0.00
09/20/21 8:02:17 PM 254 0.0 16.0 57 38 75.7 81.0 29.939 5.37 0.0 0 0.00 0.00 0.00 0.00
09/20/21 8:03:26 PM 254 0.0 16.0 57 38 75.7 81.0 29.944 5.37 0.0 0 0.00 0.00 0.00 0.00
09/20/21 8:04:17 PM 254 0.0 16.0 57 38 75.7 80.9 29.945 5.37 0.0 0 0.00 0.00 0.00 0.00
09/20/21 8:05:29 PM 254 0.0 16.0 57 38 75.7 80.9 29.942 5.37 0.0 0 0.00 0.00 0.00 0.00
09/20/21 8:06:19 PM 254 0.0 16.0 57 38 75.7 80.9 29.944 5.37 0.0 0 0.00 0.00 0.00 0.00
09/20/21 8:07:34 PM 254 0.0 16.0 57 38 75.7 80.8 29.945 5.37 0.0 0 0.00 0.00 0.00 0.00
09/20/21 8:08:22 PM 254 0.0 16.0 57 38 75.7 80.8 29.947 5.37 0.0 0 0.00 0.00 0.00 0.00
09/20/21 8:09:33 PM 254 0.0 16.0 57 38 75.7 80.7 29.948 5.37 0.0 0 0.00 0.00 0.00 0.00
09/20/21 8:10:24 PM 254 0.0 16.0 57 38 75.7 80.7 29.947 5.37 0.0 0 0.00 0.00 0.00 0.00
09/20/21 8:11:36 PM 254 0.0 16.0 57 38 75.7 80.6 29.948 5.37 0.0 0 0.00 0.00 0.00 0.00
09/20/21 8:12:27 PM 254 0.0 16.0 57 38 75.7 80.6 29.945 5.37 0.0 0 0.00 0.00 0.00 0.00
09/20/21 8:13:35 PM 254 0.0 16.0 57 38 75.7 80.5 29.950 5.37 0.0 0 0.00 0.00 0.00 0.00
09/20/21 8:14:26 PM 254 0.0 16.0 57 38 75.7 80.4 29.949 5.37 0.0 0 0.00 0.00 0.00 0.00
09/20/21 8:15:20 PM 254 0.0 16.0 57 38 75.7 80.3 29.949 5.37 0.0 0 0.00 0.00 0.00 0.00
09/20/21 8:16:28 PM 254 0.0 16.0 57 39 75.6 80.3 29.951 5.37 0.0 0 0.00 0.00 0.00 0.00
09/20/21 8:17:22 PM 254 0.0 16.0 57 39 75.6 80.2 29.949 5.37 0.0 0 0.00 0.00 0.00 0.00
09/20/21 8:18:28 PM 254 0.0 16.0 57 39 75.6 80.0 29.952 5.37 0.0 0 0.00 0.00 0.00 0.00
09/20/21 8:19:21 PM 254 0.0 16.0 57 39 75.6 80.0 29.951 5.37 0.0 0 0.00 0.00 0.00 0.00
09/20/21 8:20:33 PM 254 0.0 16.0 57 39 75.5 79.8 29.953 5.37 0.0 0 0.00 0.00 0.00 0.00
09/20/21 8:21:24 PM 254 0.0 16.0 57 39 75.5 79.7 29.954 5.37 0.0 0 0.00 0.00 0.00 0.00
09/20/21 8:22:35 PM 254 0.0 16.0 57 39 75.6 79.6 29.952 5.37 0.0 0 0.00 0.00 0.00 0.00
09/20/21 8:23:26 PM 254 0.0 16.0 57 39 75.5 79.5 29.951 5.37 0.0 0 0.00 0.00 0.00 0.00
09/20/21 8:24:35 PM 254 0.0 16.0 57 39 75.5 79.4 29.954 5.37 0.0 0 0.00 0.00 0.00 0.00
09/20/21 8:25:25 PM 254 0.0 16.0 57 39 75.5 79.3 29.954 5.37 0.0 0 0.00 0.00 0.00 0.00
09/20/21 8:26:16 PM 254 0.0 16.0 57 39 75.5 79.3 29.952 5.37 0.0 0 0.00 0.00 0.00 0.00
09/20/21 8:27:28 PM 254 0.0 16.0 57 39 75.5 79.2 29.956 5.37 0.0 0 0.00 0.00 0.00 0.00
09/20/21 8:28:18 PM 254 0.0 16.0 57 39 75.4 79.1 29.954 5.37 0.0 0 0.00 0.00 0.00 0.00
09/20/21 8:29:27 PM 254 0.0 16.0 57 40 75.5 79.0 29.957 5.37 0.0 0 0.00 0.00 0.00 0.00
09/20/21 8:30:18 PM 254 0.0 16.0 57 40 75.4 78.9 29.957 5.37 0.0 0 0.00 0.00 0.00 0.00
09/20/21 8:31:30 PM 254 0.0 16.0 57 40 75.4 78.8 29.959 5.37 0.0 0 0.00 0.00 0.00 0.00
09/20/21 8:32:20 PM 254 1.0 16.0 57 40 75.4 78.7 29.956 5.37 0.0 0 0.00 0.00 0.00 0.00
09/20/21 8:33:32 PM 254 1.0 16.0 57 40 75.4 78.5 29.958 5.37 0.0 0 0.00 0.00 0.00 0.00
09/20/21 8:34:19 PM 254 1.0 16.0 57 40 75.4 78.5 29.957 5.37 0.0 0 0.00 0.00 0.00 0.00
09/20/21 8:35:31 PM 254 1.0 16.0 57 40 75.4 78.4 29.959 5.37 0.0 0 0.00 0.00 0.00 0.00
09/20/21 8:36:22 PM 254 1.0 16.0 57 40 75.4 78.4 29.961 5.37 0.0 0 0.00 0.00 0.00 0.00
09/20/21 8:37:34 PM 254 0.0 16.0 57 40 75.4 78.4 29.961 5.37 0.0 0 0.00 0.00 0.00 0.00
09/20/21 8:38:28 PM 254 0.0 16.0 57 41 75.4 78.4 29.964 5.37 0.0 0 0.00 0.00 0.00 0.00
09/20/21 8:39:18 PM 254 0.0 16.0 57 41 75.4 78.3 29.961 5.37 0.0 0 0.00 0.00 0.00 0.00
09/20/21 8:40:27 PM 254 0.0 16.0 57 41 75.3 78.3 29.963 5.37 0.0 0 0.00 0.00 0.00 0.00
09/20/21 8:41:18 PM 254 0.0 16.0 57 41 75.4 78.3 29.965 5.37 0.0 0 0.00 0.00 0.00 0.00
09/20/21 8:42:32 PM 254 0.0 16.0 57 41 75.4 78.3 29.964 5.37 0.0 0 0.00 0.00 0.00 0.00
09/20/21 8:43:20 PM 254 0.0 16.0 57 41 75.3 78.2 29.966 5.37 0.0 0 0.00 0.00 0.00 0.00
09/20/21 8:44:35 PM 254 0.0 16.0 57 41 75.4 78.2 29.965 5.37 0.0 0 0.00 0.00 0.00 0.00
09/20/21 8:45:23 PM 254 0.0 16.0 57 41 75.3 78.2 29.965 5.37 0.0 0 0.00 0.00 0.00 0.00
09/20/21 8:46:34 PM 254 0.0 16.0 57 41 75.3 78.1 29.966 5.37 0.0 0 0.00 0.00 0.00 0.00
09/20/21 8:47:25 PM 254 0.0 16.0 57 41 75.3 78.1 29.968 5.37 0.0 0 0.00 0.00 0.00 0.00
09/20/21 8:48:16 PM 254 0.0 16.0 57 41 75.3 78.0 29.966 5.37 0.0 0 0.00 0.00 0.00 0.00
09/20/21 8:49:28 PM 254 0.0 16.0 57 41 75.3 78.0 29.970 5.37 0.0 0 0.00 0.00 0.00 0.00
09/20/21 8:50:36 PM 254 0.0 16.0 57 41 75.3 78.0 29.970 5.37 0.0 0 0.00 0.00 0.00 0.00
09/20/21 8:51:27 PM 254 0.0 16.0 57 41 75.2 77.9 29.969 5.37 0.0 0 0.00 0.00 0.00 0.00
09/20/21 8:52:21 PM 254 0.0 16.0 57 41 75.3 77.9 29.973 5.37 0.0 0 0.00 0.00 0.00 0.00
09/20/21 8:53:32 PM 254 0.0 16.0 57 41 75.3 77.8 29.968 5.37 0.0 0 0.00 0.00 0.00 0.00
09/20/21 8:54:23 PM 254 0.0 16.0 57 41 75.3 77.7 29.973 5.37 0.0 0 0.00 0.00 0.00 0.00
09/20/21 8:55:17 PM 254 0.0 16.0 57 41 75.2 77.7 29.973 5.37 0.0 0 0.00 0.00 0.00 0.00
09/20/21 8:56:25 PM 254 0.0 16.0 57 41 75.2 77.6 29.970 5.37 0.0 0 0.00 0.00 0.00 0.00
09/20/21 8:57:38 PM 254 0.0 16.0 57 41 75.2 77.5 29.973 5.37 0.0 0 0.00 0.00 0.00 0.00
09/20/21 8:58:28 PM 254 0.0 16.0 57 42 75.2 77.5 29.975 5.37 0.0 0 0.00 0.00 0.00 0.00
09/20/21 8:59:19 PM 254 0.0 16.0 57 42 75.2 77.4 29.973 5.37 0.0 0 0.00 0.00 0.00 0.00
09/20/21 9:00:34 PM 254 0.0 16.0 57 42 75.1 77.3 29.973 5.37 0.0 0 0.00 0.00 0.00 0.00
09/20/21 9:01:22 PM 254 0.0 16.0 57 42 75.2 77.3 29.973 5.37 0.0 0 0.00 0.00 0.00 0.00
09/20/21 9:02:30 PM 254 0.0 16.0 57 42 75.1 77.2 29.974 5.37 0.0 0 0.00 0.00 0.00 0.00
09/20/21 9:03:24 PM 254 0.0 16.0 57 42 75.1 77.2 29.976 5.37 0.0 0 0.00 0.00 0.00 0.00
09/20/21 9:04:36 PM 254 0.0 16.0 57 42 75.1 77.1 29.976 5.37 0.0 0 0.00 0.00 0.00 0.00
09/20/21 9:05:27 PM 254 0.0 16.0 57 42 75.1 77.0 29.975 5.37 0.0 0 0.00 0.00 0.00 0.00
09/20/21 9:06:36 PM 254 0.0 16.0 57 43 75.1 76.9 29.976 5.37 0.0 0 0.00 0.00 0.00 0.00
09/20/21 9:07:26 PM 254 0.0 16.0 57 43 75.1 76.9 29.975 5.37 0.0 0 0.00 0.00 0.00 0.00
09/20/21 9:08:17 PM 254 0.0 16.0 57 43 75.1 76.8 29.976 5.37 0.0 0 0.00 0.00 0.00 0.00
09/20/21 9:09:28 PM 254 0.0 16.0 57 43 75.1 76.7 29.975 5.37 0.0 0 0.00 0.00 0.00 0.00
09/20/21 9:10:22 PM 254 0.0 16.0 57 43 75.0 76.7 29.978 5.37 0.0 0 0.00 0.00 0.00 0.00
09/20/21 9:11:31 PM 254 0.0 16.0 57 43 75.1 76.6 29.978 5.37 0.0 0 0.00 0.00 0.00 0.00
09/20/21 9:12:21 PM 254 0.0 16.0 57 43 75.0 76.6 29.979 5.37 0.0 0 0.00 0.00 0.00 0.00
09/20/21 9:13:33 PM 254 0.0 16.0 57 43 75.0 76.5 29.978 5.37 0.0 0 0.00 0.00 0.00 0.00
09/20/21 9:14:24 PM 254 0.0 16.0 57 43 74.9 76.4 29.979 5.37 0.0 0 0.00 0.00 0.00 0.00
09/20/21 9:15:18 PM 254 0.0 16.0 57 43 74.9 76.4 29.978 5.37 0.0 0 0.00 0.00 0.00 0.00
09/20/21 9:16:29 PM 254 0.0 16.0 57 43 74.9 76.3 29.981 5.37 0.0 0 0.00 0.00 0.00 0.00
09/20/21 9:17:17 PM 254 0.0 16.0 57 43 74.9 76.2 29.980 5.37 0.0 0 0.00 0.00 0.00 0.00
09/20/21 9:18:29 PM 254 0.0 16.0 57 43 74.9 76.2 29.982 5.37 0.0 0 0.00 0.00 0.00 0.00
09/20/21 9:19:22 PM 254 0.0 16.0 57 43 74.9 76.1 29.979 5.37 0.0 0 0.00 0.00 0.00 0.00
09/20/21 9:20:34 PM 254 0.0 16.0 57 43 74.9 76.1 29.979 5.37 0.0 0 0.00 0.00 0.00 0.00
09/20/21 9:21:25 PM 254 0.0 16.0 57 43 74.9 76.0 29.980 5.37 0.0 0 0.00 0.00 0.00 0.00
09/20/21 9:22:34 PM 254 0.0 16.0 57 44 74.9 76.0 29.981 5.37 0.0 0 0.00 0.00 0.00 0.00
09/20/21 9:23:25 PM 254 0.0 16.0 57 44 74.9 75.9 29.980 5.37 0.0 0 0.00 0.00 0.00 0.00
09/20/21 9:24:36 PM 254 0.0 16.0 57 44 74.9 75.9 29.982 5.37 0.0 0 0.00 0.00 0.00 0.00
09/20/21 9:25:27 PM 254 0.0 16.0 57 44 74.9 75.8 29.982 5.37 0.0 0 0.00 0.00 0.00 0.00
09/20/21 9:26:21 PM 254 0.0 16.0 57 44 74.8 75.8 29.982 5.37 0.0 0 0.00 0.00 0.00 0.00
09/20/21 9:27:27 PM 254 0.0 16.0 57 44 74.9 75.8 29.982 5.37 0.0 0 0.00 0.00 0.00 0.00
09/20/21 9:28:17 PM 254 0.0 16.0 57 44 74.9 75.7 29.984 5.37 0.0 0 0.00 0.00 0.00 0.00
09/20/21 9:29:29 PM 254 0.0 16.0 57 44 74.8 75.7 29.982 5.37 0.0 0 0.00 0.00 0.00 0.00
09/20/21 9:30:23 PM 254 0.0 16.0 57 44 74.9 75.7 29.983 5.37 0.0 0 0.00 0.00 0.00 0.00
09/20/21 9:31:32 PM 254 0.0 16.0 57 44 74.9 75.6 29.981 5.37 0.0 0 0.00 0.00 0.00 0.00
09/20/21 9:32:25 PM 254 0.0 16.0 57 44 74.8 75.6 29.981 5.37 0.0 0 0.00 0.00 0.00 0.00
09/20/21 9:33:31 PM 254 0.0 16.0 57 44 74.8 75.5 29.981 5.37 0.0 0 0.00 0.00 0.00 0.00
09/20/21 9:34:25 PM 254 0.0 16.0 57 44 74.8 75.5 29.983 5.37 0.0 0 0.00 0.00 0.00 0.00
09/20/21 9:35:36 PM 254 0.0 16.0 57 44 74.8 75.4 29.982 5.37 0.0 0 0.00 0.00 0.00 0.00
09/20/21 9:36:27 PM 254 0.0 16.0 57 44 74.8 75.4 29.983 5.37 0.0 0 0.00 0.00 0.00 0.00
09/20/21 9:37:18 PM 254 0.0 16.0 57 44 74.8 75.3 29.983 5.37 0.0 0 0.00 0.00 0.00 0.00
09/20/21 9:38:27 PM 254 0.0 16.0 57 44 74.7 75.2 29.982 5.37 0.0 0 0.00 0.00 0.00 0.00
09/20/21 9:39:18 PM 254 0.0 16.0 57 44 74.8 75.2 29.983 5.37 0.0 0 0.00 0.00 0.00 0.00
09/20/21 9:40:30 PM 254 0.0 16.0 57 44 74.7 75.1 29.984 5.37 0.0 0 0.00 0.00 0.00 0.00
09/20/21 9:41:23 PM 254 0.0 16.0 57 44 74.7 75.1 29.982 5.37 0.0 0 0.00 0.00 0.00 0.00
09/20/21 9:42:35 PM 254 0.0 16.0 57 45 74.7 75.0 29.985 5.37 0.0 0 0.00 0.00 0.00 0.00
09/20/21 9:44:35 PM 254 0.0 16.0 57 45 74.7 74.9 29.986 5.37 0.0 0 0.00 0.00 0.00 0.00
09/20/21 9:45:29 PM 254 0.0 16.0 57 45 74.7 74.9 29.983 5.37 0.0 0 0.00 0.00 0.00 0.00
09/20/21 9:46:20 PM 254 0.0 16.0 57 45 74.7 74.9 29.985 5.37 0.0 0 0.00 0.00 0.00 0.00
09/20/21 9:47:31 PM 254 0.0 16.0 57 45 74.7 74.8 29.985 5.37 0.0 0 0.00 0.00 0.00 0.00
09/20/21 9:48:22 PM 254 0.0 16.0 57 45 74.7 74.7 29.987 5.37 0.0 0 0.00 0.00 0.00 0.00
09/20/21 9:49:28 PM 254 0.0 16.0 57 45 74.7 74.7 29.985 5.37 0.0 0 0.00 0.00 0.00 0.00
09/20/21 9:50:19 PM 254 0.0 16.0 57 45 74.7 74.7 29.987 5.37 0.0 0 0.00 0.00 0.00 0.00
09/20/21 9:51:30 PM 254 0.0 16.0 57 45 74.7 74.6 29.988 5.37 0.0 0 0.00 0.00 0.00 0.00
09/20/21 9:52:21 PM 254 0.0 16.0 57 45 74.7 74.6 29.987 5.37 0.0 0 0.00 0.00 0.00 0.00
09/20/21 9:53:33 PM 254 0.0 16.0 57 45 74.7 74.6 29.986 5.37 0.0 0 0.00 0.00 0.00 0.00
09/20/21 9:54:21 PM 254 0.0 16.0 57 45 74.7 74.5 29.989 5.37 0.0 0 0.00 0.00 0.00 0.00
09/20/21 9:55:33 PM 254 0.0 16.0 57 45 74.7 74.5 29.987 5.37 0.0 0 0.00 0.00 0.00 0.00
09/20/21 9:56:23 PM 254 0.0 16.0 57 45 74.6 74.4 29.988 5.37 0.0 0 0.00 0.00 0.00 0.00
09/20/21 9:57:35 PM 254 0.0 16.0 57 46 74.7 74.4 29.987 5.37 0.0 0 0.00 0.00 0.00 0.00
09/20/21 9:58:29 PM 254 0.0 16.0 57 46 74.7 74.4 29.986 5.37 0.0 0 0.00 0.00 0.00 0.00
09/20/21 9:59:35 PM 254 0.0 16.0 57 46 74.7 74.3 29.990 5.37 0.0 0 0.00 0.00 0.00 0.00
09/20/21 10:00:28 PM 254 0.0 16.0 57 46 74.6 74.3 29.989 5.37 0.0 0 0.00 0.00 0.00 0.00
09/20/21 10:01:19 PM 254 0.0 16.0 57 46 74.7 74.2 29.989 5.37 0.0 0 0.00 0.00 0.00 0.00
09/20/21 10:02:31 PM 254 0.0 16.0 57 46 74.6 74.2 29.991 5.37 0.0 0 0.00 0.00 0.00 0.00
09/20/21 10:03:21 PM 254 0.0 16.0 57 46 74.6 74.1 29.990 5.37 0.0 0 0.00 0.00 0.00 0.00
09/20/21 10:04:30 PM 254 0.0 16.0 57 46 74.7 74.1 29.991 5.37 0.0 0 0.00 0.00 0.00 0.00
09/20/21 10:05:21 PM 254 0.0 16.0 57 46 74.7 74.0 29.989 5.37 0.0 0 0.00 0.00 0.00 0.00
09/20/21 10:06:33 PM 254 0.0 16.0 57 46 74.7 74.0 29.993 5.37 0.0 0 0.00 0.00 0.00 0.00
09/20/21 10:07:26 PM 254 0.0 16.0 57 46 74.6 73.9 29.991 5.37 0.0 0 0.00 0.00 0.00 0.00
09/20/21 10:08:35 PM 254 0.0 16.0 57 46 74.7 73.9 29.993 5.37 0.0 0 0.00 0.00 0.00 0.00
09/20/21 10:09:29 PM 255 0.0 16.0 57 46 74.6 73.9 29.996 5.37 0.0 0 0.00 0.00 0.00 0.00
09/20/21 10:10:35 PM 256 0.0 16.0 57 47 74.6 73.8 29.991 5.37 0.0 0 0.00 0.00 0.00 0.00
09/20/21 10:11:29 PM 256 0.0 16.0 57 47 74.6 73.7 29.994 5.37 0.0 0 0.00 0.00 0.00 0.00

University Police wind advisory reference

For campus closure information please call the campus Emergency Hotline at (909) 537-5999

© All rights reserved. Unauthorized duplication or distribution is prohibited

Never base important decisions on this or any weather information obtained from the Internet

California State University, San Bernardino
5500 University Parkway, San Bernardino, CA. 92407
Phone: (909) 537-5108, Email: Weather Webmaster
Last Updated: